     2              OBSERVATION DATA    GPS                 RINEX VERSION / TYPE
teqc 2000Feb29 20010702 15:27:13UTC                         PGM / RUN BY / DATE
                                                            COMMENT
L2: 1 -> 1; 150 -> 5; 250 -> 9                              COMMENT
L2: 1 -> 1; 150 -> 5; 250 -> 9                              COMMENT
L2: 1 -> 1; 150 -> 5; 250 -> 9                              COMMENT
L2: 1 -> 1; 150 -> 5; 250 -> 9                              COMMENT
L2: 1 -> 1; 150 -> 5; 250 -> 9                              COMMENT
Original Marker Name: 7001                                  COMMENT
Campaign Name: Post Hector Surveys                          COMMENT
4-Character Station Name: 7001                              COMMENT
6-Character Antenna Code: DMRCHT                            COMMENT
Vertical Measurement Point: BCR                             COMMENT
Vertical Offset to Rinex Ref. Point: 0.0348                 COMMENT
Radial Measurement Point: ECF                               COMMENT
Radial Offset to Rinex Ref. Point: 0.1897                   COMMENT
Antenna Height from Field Measurement: 0.7545 m             COMMENT
Additional Antenna Identification Info.:                    COMMENT
Turborogue and Ashtech Choke Ring                           COMMENT
Level was slightly off at the time of teardown.             COMMENT
Offset <= 1 mm after level adjustment.                      COMMENT
Original XYZ: -2343574.9086 -4706511.9736 3596717.7735      COMMENT
New XYZ position is based on association with SCEC monument COMMENT
E1F2J7S8+0011. Position of that monument is believed to be  COMMENT
valid to within 1 m horizontally; vertical accuracy         COMMENT
should be no worse than 3-times this value.                 COMMENT
                                                            COMMENT
Revised Rinex header created by UCSD GPS archive for        COMMENT
GSAC on 09-Jul-2001 (2001:190) 19:47:40 GMT                 COMMENT
For assistance contact dagnew@ucsd.edu                      COMMENT
or anderson@python.ucsd.edu                                 COMMENT
                                                            COMMENT
T6N R5E S32 S33 1919                                        MARKER NAME
HML UNIV CALIF LOS ANGELES                                  OBSERVER / AGENCY
188 ASHTECH Z-XII3 CD00                                     REC # / TYPE / VERS
365 DORNE-MARGOL. TYPE T                                    ANT # / TYPE
 -2343995.4300 -4707656.2657  3598232.2189                  APPROX POSITION XYZ
        0.6955        0.0000        0.0000                  ANTENNA: DELTA H/E/N
     1     1     0                                          WAVELENGTH FACT L1/2
     7    C1    L1    L2    P1    P2    S1    S2            # / TYPES OF OBSERV
     0                                                      INTERVAL
  2001     6    24     0     0   30.000000                  TIME OF FIRST OBS
  2001     6    24    21     6    0.000000                  TIME OF LAST OBS
                                                            END OF HEADER
 01  6 24  0  0 30.0000000  0  6G20G14G25G11G29G21
  23856410.337    -9407677.27349  -7322688.05445  23856408.932    23856418.615
       215.000         150.000
  21771321.092   -20503763.74649 -15966346.27047  21771320.608    21771327.269
       238.000         198.000
  20756317.386   -24056932.76949 -18737614.66948  20756317.151    20756324.443
       246.000         215.000
  21568299.062   -21512970.24849 -16741610.03847  21568298.847    21568306.339
       240.000         199.000
  21054907.977   -19938632.77149 -15290403.68747  21054907.771    21054914.478
       241.000         208.000
  22202459.859   -16552576.00149 -12651133.73446  22202459.787    22202469.623
       229.000         178.000
 01  6 24  0  1  0.0000000  0  6G20G14G25G11G29G21
  23839814.759    -9494886.82549  -7390643.41145  23839813.650    23839823.970
       213.000         149.000
  21783570.060   -20439395.11249 -15916188.91547  21783569.679    21783576.114
       238.000         197.000
  20750352.720   -24088277.00749 -18762038.69648  20750352.510    20750359.666
       247.000         215.000
  21561600.391   -21548171.79649 -16769039.78747  21561599.925    21561607.670
       240.000         199.000
  21063250.669   -19894791.59049 -15256241.73147  21063250.395    21063257.405
       241.000         208.000
  22212777.201   -16498358.38449 -12608886.31646  22212776.845    22212786.838
       228.000         178.000
 01  6 24  0  1 30.0000000  0  6G20G14G25G11G29G21
  23823218.369    -9582100.80649  -7458602.24845  23823216.810    23823228.244
       212.000         148.000
  21795842.859   -20374901.04949 -15865933.82347  21795842.552    21795849.030
       238.000         197.000
  20744485.689   -24119108.25349 -18786062.99148  20744485.512    20744492.624
       247.000         215.000
  21555003.374   -21582839.17549 -16796053.30247  21555002.932    21555010.434
       240.000         200.000
  21071624.246   -19850788.15149 -15221953.34147  21071624.228    21071630.750
       241.000         208.000
  22223149.956   -16443849.41649 -12566411.86546  22223150.023    22223159.269
       229.000         178.000
 01  6 24  0  2  0.0000000  0  7G20G14G25G30G11G29G21
  23806620.214    -9669323.80849  -7526568.07245  23806619.071    23806628.737
       212.000         148.000
  21808138.227   -20310288.67949 -15815586.54147  21808137.521    21808144.116
       237.000         197.000
  20738715.301   -24149431.55949 -18809691.49048  20738715.136    20738722.169
       247.000         215.000
  24599636.792    -2577824.98049  -2001600.12045  24599637.965    24599647.452
       203.000         138.000
  21548507.197   -21616976.79449 -16822654.01547  21548506.639    21548514.640
       240.000         200.000
  21080027.399   -19806629.33649 -15187543.88247  21080027.411    21080033.974
       241.000         207.000
  22233577.118   -16389054.81349 -12523714.84746  22233576.655    22233586.129
       228.000         177.000
 01  6 24  0  2 30.0000000  0  7G20G14G25G30G11G29G21
  23790022.315    -9756545.75949  -7594533.11045  23790021.031    23790031.236
       212.000         150.000
  21820457.524   -20245550.40449 -15765141.15647  21820457.282    21820463.576
       237.000         196.000
  20733043.387   -24179237.43549 -18832916.79648  20733043.273    20733050.208
       247.000         215.000
  24594007.421    -2607407.19249  -2024651.11445  24594007.803    24594019.464
       195.000         140.000
  21542113.741   -21650574.56149 -16848834.06747  21542113.325    21542120.716
       240.000         200.000
  21088461.586   -19762307.30549 -15153007.23847  21088461.502    21088468.313
       241.000         207.000
  22244060.395   -16333965.12649 -12480787.89446  22244060.068    22244069.128
       229.000         177.000
 01  6 24  0  3  0.0000000  0  7G20G14G25G30G11G29G21
  23773424.486    -9843767.53549  -7662497.97445  23773423.531    23773433.623
       214.000         151.000
  21832800.189   -20180689.22749 -15714600.00347  21832799.827    21832806.088
       238.000         196.000
  20727469.810   -24208526.58749 -18855739.46148  20727469.621    20727476.713
       247.000         215.000
  24588457.362    -2636572.36049  -2047377.15645  24588454.327    24588470.947
       201.000         138.000
  21535822.913   -21683632.83949 -16874593.73447  21535822.390    21535830.037
       240.000         200.000
  21096926.254   -19717825.25449 -15118345.90447  21096926.202    21096932.948
       241.000         207.000
  22254599.556   -16278581.71749 -12437632.06946  22254598.972    22254608.940
       229.000         177.000
 01  6 24  0  3 30.0000000  0  7G20G14G25G30G11G29G21
  23756826.852    -9930987.94049  -7730461.77845  23756826.002    23756835.903
       215.000         152.000
  21845166.040   -20115706.50749 -15663964.14147  21845165.726    21845171.933
       237.000         196.000
  20721994.597   -24237298.80549 -18878159.31948  20721994.422    20722001.488
       247.000         215.000
  24582987.002    -2665318.53549  -2069776.69645  24582987.762    24582998.196
       205.000         141.000
  21529635.000   -21716150.49249 -16899932.14647  21529634.554    21529642.170
       240.000         200.000
  21105421.160   -19673184.11849 -15083560.61347  21105421.121    21105427.824
       240.000         207.000
  22265194.713   -16222904.16149 -12394247.02646  22265194.387    22265204.157
       229.000         177.000
 01  6 24  0  4  0.0000000  0  8G20G14G25G30G11G 1G29G21
  23740228.581   -10018211.92849  -7798428.37945  23740227.692    23740237.401
       215.000         154.000
  21857553.628   -20050609.31349 -15613239.08247  21857553.241    21857559.726
       237.000         196.000
  20716616.827   -24265558.92649 -18900180.13748  20716616.415    20716623.535
       247.000         215.000
  24577595.966    -2693649.52349  -2091852.76145  24577594.585    24577609.373
       200.000         140.000
  21523549.043   -21748132.31449 -16924853.02247  21523548.647    21523556.314
       240.000         200.000
  24659921.564    -2751129.33749  -2124218.37945  24659920.232    24659936.653
       212.000         143.000
  21113944.972   -19628391.13049 -15048656.99547  21113944.760    21113951.766
       241.000         207.000
  22275844.615   -16166938.84749 -12350637.76946  22275844.094    22275853.606
       229.000         177.000
 01  6 24  0  4 30.0000000  0  8G20G14G25G30G11G 1G29G21
  23723629.192   -10105441.88649  -7866399.63145  23723628.544    23723637.911
       216.000         155.000
  21869962.077   -19985402.49149 -15562428.59747  21869962.190    21869968.425
       237.000         195.000
  20711335.990   -24293309.76649 -18921804.11948  20711335.930    20711342.764
       247.000         216.000
  24572283.468    -2721566.80349  -2113606.41545  24572283.432    24572294.818
       206.000         140.000
  21517564.665   -21779580.42549 -16949358.02447  21517564.310    21517571.778
       240.000         200.000
  24645081.386    -2829113.79549  -2184985.18045  24645079.726    24645097.049
       212.000         143.000
  21122496.858   -19583450.70849 -15013638.49747  21122496.820    21122503.443
       241.000         207.000
  22286548.662   -16110688.83649 -12306806.66546  22286548.094    22286557.318
       229.000         177.000
 01  6 24  0  5  0.0000000  0  8G20G14G25G30G11G 1G29G21
  23707031.542   -10192662.79649  -7934363.83645  23707030.924    23707039.807
       218.000         156.000
  21882393.774   -19920073.55149 -15511522.95647  21882393.444    21882399.920
       236.000         195.000
  20706154.765   -24320537.07049 -18943020.14248  20706154.557    20706161.498
       247.000         216.000
  24567052.610    -2749054.80649  -2135025.57345  24567052.443    24567063.872
       203.000         141.000
  21511684.660   -21810479.96549 -16973435.56747  21511684.451    21511691.945
       240.000         200.000
  24630269.578    -2906949.29849  -2245635.92045  24630268.030    24630285.252
       213.000         142.000
  21131079.165   -19538350.42849 -14978495.43247  21131078.948    21131085.896
       240.000         206.000
  22297309.678   -16054139.70749 -12262742.48846  22297309.384    22297318.533
       229.000         177.000
 01  6 24  0  5 30.0000000  0  8G20G14G25G30G11G 1G29G21
  23690435.659   -10279874.34049  -8002320.74345  23690435.193    23690444.003
       217.000         157.000
  21894848.301   -19854624.56849 -15460523.77847  21894847.902    21894854.280
       237.000         195.000
  20701073.091   -24347241.15649 -18963828.46548  20701072.776    20701079.868
       247.000         216.000
  24561903.832    -2776111.93349  -2156109.01445  24561903.868    24561916.027
       207.000         141.000
  21505909.106   -21840830.54049 -16997085.34747  21505908.499    21505916.171
       240.000         200.000
  24615486.004    -2984636.31849  -2306170.97545  24615484.755    24615500.650
       212.000         141.000
  21139691.521   -19493092.13549 -14943229.24247  21139691.386    21139698.244
       240.000         206.000
  22308127.551   -15997291.79149 -12218445.49146  22308127.605    22308136.827
       228.000         177.000
 01  6 24  0  6  0.0000000  0  8G20G14G25G30G11G 1G29G21
  23673841.183   -10367078.25149  -8070271.69745  23673840.301    23673849.613
       218.000         157.000
  21907324.951   -19789059.50649 -15409434.14547  21907324.695    21907331.070
       237.000         194.000
  20696090.647   -24373423.84749 -18984230.50848  20696090.285    20696097.386
       247.000         216.000
  24556836.849    -2802738.78949  -2176857.15945  24556835.906    24556848.567
       208.000         142.000
  21500237.715   -21870633.75549 -17020308.61547  21500237.295    21500244.632
       240.000         200.000
  24600730.259    -3062177.13749  -2366592.12445  24600728.430    24600743.936
       213.000         139.000
  21148333.230   -19447679.66549 -14907842.91147  21148333.174    21148339.930
       240.000         206.000
  22319001.626   -15940148.34949 -12173918.20946  22319001.527    22319010.751
       228.000         177.000
 01  6 24  0  6 30.0000000  0  8G20G14G25G30G11G 1G29G21
  23657248.143   -10454274.71349  -8138216.84445  23657246.969    23657256.801
       217.000         158.000
  21919823.197   -19723380.81649 -15358255.97047  21919822.982    21919829.321
       236.000         194.000
  20691207.296   -24399085.83549 -19004226.80748  20691207.145    20691214.032
       247.000         216.000
  24551851.772    -2828934.89649  -2197269.65545  24551852.156    24551863.585
       203.000         142.000
  21494670.400   -21899890.12049 -17043105.76447  21494669.820    21494677.532
       240.000         200.000
  24586002.071    -3139572.79349  -2426900.15045  24586000.796    24586017.435
       212.000         139.000
  21157003.782   -19402115.55549 -14872338.42247  21157003.591    21157010.437
       241.000         206.000
  22329931.749   -15882710.53149 -12129161.53546  22329931.330    22329940.868
       228.000         176.000
 01  6 24  0  7  0.0000000  0  8G20G14G25G30G11G 1G29G21
  23640656.858   -10541461.83549  -8206154.72345  23640656.244    23640666.054
       216.000         159.000
  21932342.918   -19657589.32349 -15306989.90147  21932342.405    21932349.005
       237.000         194.000
  20686423.153   -24424226.39049 -19023816.79448  20686422.967    20686430.014
       247.000         216.000
  24546949.206    -2854697.85949  -2217344.61145  24546948.811    24546959.934
       203.000         143.000
  21489207.516   -21928597.62249 -17065475.22947  21489207.002    21489214.567
       240.000         200.000
  24571301.717    -3216822.47049  -2487094.42645  24571300.473    24571315.609
       210.000         139.000
  21165703.162   -19356400.13049 -14836716.02647  21165703.149    21165710.035
       240.000         206.000
  22340918.103   -15824977.17249 -12084174.58546  22340917.525    22340927.418
       227.000         176.000
 01  6 24  0  7 30.0000000  0  8G20G14G25G30G11G 1G29G21
  23624067.347   -10628639.74649  -8274085.43245  23624066.479    23624075.759
       216.000         160.000
  21944883.707   -19591687.27249 -15255637.68247  21944883.353    21944889.981
       237.000         193.000
  20681738.140   -24448846.17349 -19043000.98648  20681737.841    20681744.882
       248.000         216.000
  24542129.233    -2880026.69949  -2237081.32445  24542129.947    24542141.238
       204.000         143.000
  21483849.008   -21956756.58149 -17087417.26147  21483848.691    21483856.146
       240.000         200.000
  24556628.961    -3293927.18149  -2547175.73245  24556626.291    24556642.097
       210.000         138.000
  21174430.833   -19310535.96149 -14800977.72547  21174430.767    21174437.347
       240.000         206.000
  22351960.520   -15766949.06549 -12038957.94346  22351960.710    22351969.435
       228.000         176.000
 01  6 24  0  8  0.0000000  0  8G20G14G25G30G11G 1G29G21
  23607479.666   -10715807.88949  -8342008.52345  23607479.142    23607487.811
       218.000         160.000
  21957445.210   -19525676.30549 -15204200.59647  21957444.867    21957451.158
       236.000         193.000
  20677152.188   -24472945.15949 -19061779.36048  20677152.006    20677159.067
       247.000         216.000
  24537392.290    -2904920.25249  -2256478.81345  24537392.297    24537403.358
       206.000         143.000
  21478595.016   -21984366.36749 -17108931.36847  21478594.678    21478601.984
       240.000         200.000
  24541983.726    -3370887.10249  -2607144.20645  24541982.689    24541997.282
       210.000         138.000
  21183186.519   -19264524.51949 -14765124.66547  21183186.445    21183193.169
       240.000         206.000
  22363059.008   -15708626.37249 -11993511.77146  22363058.966    22363068.394
       227.000         176.000
 01  6 24  0  8 30.0000000  0  8G20G14G25G30G11G 1G29G21
  23590894.247   -10802964.33949  -8409922.49445  23590893.694    23590903.202
       218.000         161.000
  21970027.252   -19459557.21149 -15152679.25547  21970026.917    21970033.521
       236.000         193.000
  20672665.661   -24496521.93349 -19080150.82048  20672665.312    20672672.358
       245.000         216.000
  24532738.584    -2929375.86749  -2275535.05845  24532738.648    24532750.092
       207.000         144.000
  21473445.863   -22011425.36149 -17130016.28647  21473445.713    21473453.216
       240.000         200.000
  24527366.204    -3447701.45349  -2666999.25345  24527365.438    24527380.899
       208.000         138.000
  21191970.147   -19218366.36649 -14729157.28247  21191970.124    21191976.777
       240.000         206.000
  22374213.566   -15650008.95149 -11947835.94146  22374212.895    22374222.824
       226.000         175.000
 01  6 24  0  9  0.0000000  0  8G20G14G25G30G11G 1G29G21
  23574311.210   -10890108.15049  -8477826.62845  23574310.015    23574319.557
       218.000         161.000
  21982629.664   -19393331.13549 -15101074.54947  21982629.352    21982636.207
       236.000         193.000
  20668278.541   -24519576.16649 -19098115.10448  20668278.359    20668285.267
       246.000         217.000
  24528168.488    -2953391.71449  -2294248.65245  24528167.683    24528179.284
       207.000         145.000
  21468401.652   -22037932.79649 -17150671.41647  21468401.165    21468408.933
       240.000         200.000
  24512776.373    -3524370.16749  -2726740.81245  24512774.989    24512789.995
       209.000         139.000
  21200781.480   -19172062.51449 -14693076.37247  21200781.534    21200788.052
       240.000         206.000
  22385424.334   -15591096.28849 -11901930.03946  22385424.263    22385434.379
       226.000         175.000
 01  6 24  0  9 30.0000000  0  8G20G14G25G30G11G 1G29G21
  23557730.703   -10977238.96749  -8545720.63745  23557730.053    23557739.202
       218.000         161.000
  21995252.014   -19327000.24949 -15049388.17447  21995251.544    21995257.991
       236.000         193.000
  20663990.722   -24542108.55349 -19115672.75748  20663990.457    20663997.379
       246.000         217.000
  24523682.199    -2976967.05649  -2312618.98945  24523683.267    24523693.219
       204.000         145.000
  21463462.408   -22063888.60449 -17170896.71647  21463462.174    21463469.529
       240.000         201.000
  24498214.072    -3600894.05249  -2786369.51645  24498213.020    24498227.721
       209.000         140.000
  21209620.088   -19125615.36649 -14656883.80047  21209619.926    21209626.770
       240.000         205.000
  22396691.152   -15531889.08949 -11855794.63946  22396690.674    22396700.841
       227.000         175.000
 01  6 24  0 10  0.0000000  0  8G20G14G25G30G11G 1G29G21
  23541152.872   -11064355.58449  -8613603.58045  23541152.339    23541161.113
       218.000         161.000
  22007894.063   -19260565.97049 -14997621.23247  22007893.642    22007900.282
       236.000         192.000
  20659802.289   -24564118.69449 -19132823.46348  20659802.147    20659809.105
       246.000         217.000
  24519280.168    -3000099.72249  -2330644.38645  24519280.245    24519290.473
       207.000         145.000
  21458628.337   -22089291.68349 -17190691.31547  21458628.021    21458635.625
       240.000         201.000
  24483679.476    -3677272.71049  -2845885.06545  24483678.452    24483694.707
       208.000         142.000
  21218485.829   -19079025.69649 -14620580.17647  21218485.748    21218492.672
       240.000         205.000
  22408013.984   -15472387.61149 -11809429.93346  22408013.955    22408023.926
       226.000         175.000
 01  6 24  0 10 30.0000000  0  8G20G14G25G30G11G 1G29G21
  23524578.108   -11151456.01649  -8681473.91545  23524577.144    23524586.982
       218.000         161.000
  22020555.693   -19194028.76149 -14945774.08147  22020555.587    22020561.945
       236.000         192.000
  20655713.494   -24585605.37249 -19149566.27948  20655713.247    20655720.072
       246.000         217.000
  24514962.830    -3022787.24949  -2348322.90245  24514963.414    24514973.773
       209.000         146.000
  21453899.750   -22114140.49449 -17210054.01047  21453899.035    21453907.007
       240.000         201.000
  24469172.663    -3753505.32049  -2905286.79445  24469171.585    24469187.311
       209.000         142.000
  21227378.618   -19032293.74649 -14584165.67947  21227378.612    21227385.413
       240.000         205.000
  22419392.982   -15412590.78249 -11762835.08146  22419392.248    22419403.062
       225.000         175.000
 01  6 24  0 11  0.0000000  0  8G20G14G25G30G11G 1G29G21
  23508006.639   -11238539.04949  -8749330.69245  23508005.426    23508015.220
       218.000         160.000
  22033236.794   -19127389.37249 -14893847.32247  22033236.628    22033243.076
       236.000         192.000
  20651724.383   -24606568.05349 -19165900.78248  20651724.149    20651731.027
       246.000         217.000
  24510730.491    -3045027.62649  -2365652.99345  24510730.225    24510741.495
       211.000         145.000
  21449276.857   -22138433.82549 -17228983.87347  21449276.475    21449283.912
       240.000         201.000
  24454693.775    -3829591.44449  -2964574.39245  24454692.479    24454708.341
       208.000         143.000
  21236298.251   -18985420.77249 -14547641.29547  21236298.187    21236304.920
       240.000         205.000
  22430828.214   -15352498.27649 -11716009.83746  22430828.221    22430836.732
       226.000         174.000
 01  6 24  0 11 30.0000000  0  8G20G14G25G30G11G 1G29G21
  23491438.725   -11325603.34249  -8817172.86745  23491437.576    23491446.986
       217.000         160.000
  22045937.053   -19060649.17249 -14841842.00547  22045936.885    22045943.268
       236.000         192.000
  20647835.028   -24627006.57649 -19181826.85448  20647834.761    20647841.661
       246.000         217.000
  24506583.663    -3066819.11449  -2382633.33145  24506583.915    24506593.728
       211.000         145.000
  21444759.836   -22162170.87049 -17247480.26047  21444759.682    21444766.950
       240.000         201.000
  24440242.747    -3905530.93049  -3023747.71445  24440241.403    24440256.318
       208.000         144.000
  21245244.554   -18938407.61249 -14511007.67647  21245244.413    21245251.335
       239.000         205.000
  22442319.779   -15292109.98249 -11668954.10946  22442318.816    22442329.755
       226.000         174.000
 01  6 24  0 12  0.0000000  0  8G20G14G25G30G11G 1G29G21
  23474874.270   -11412649.46949  -8885000.88745  23474873.233    23474882.543
       218.000         160.000
  22058655.944   -18993811.13149 -14789760.44247  22058655.371    22058662.079
       236.000         192.000
  20644045.094   -24646922.49749 -19197345.70548  20644044.815    20644051.755
       246.000         217.000
  24502522.259    -3088161.86249  -2399263.97245  24502522.207    24502533.093
       207.000         145.000
  21440348.451   -22185352.72849 -17265544.03947  21440348.086    21440355.796
       240.000         201.000
  24425819.271    -3981325.38449  -3082808.04845  24425818.358    24425833.487
       207.000         145.000
  21254216.948   -18891257.31349 -14474267.18947  21254216.752    21254223.581
       239.000         204.000
  22453867.305   -15231427.57649 -11621669.20046  22453867.151    22453876.239
       225.000         174.000
 01  6 24  0 12 30.0000000  0  8G20G14G25G30G11G 1G29G21
  23458313.937   -11499674.15649  -8952812.22445  23458312.908    23458321.334
       217.000         160.000
  22071393.645   -18926874.24449 -14737601.85947  22071393.282    22071399.888
       236.000         192.000
  20640355.112   -24666313.31549 -19212455.38548  20640354.850    20640361.765
       246.000         217.000
  24498546.939    -3109052.21349  -2415542.11645  24498546.329    24498557.365
       209.000         145.000
  21436043.307   -22207976.45349 -17283172.91047  21436042.976    21436050.390
       240.000         201.000
  24411423.854    -4056972.72049  -3141753.73345  24411423.014    24411437.596
       209.000         145.000
  21263215.703   -18843968.70349 -14437418.93147  21263215.682    21263222.537
       239.000         204.000
  22465471.196   -15170449.06449 -11574153.57746  22465470.618    22465481.122
       225.000         174.000
 01  6 24  0 13  0.0000000  0  8G20G14G25G30G11G 1G29G21
  23441757.682   -11586677.25549  -9020606.71345  23441757.199    23441765.434
       218.000         160.000
  22084149.779   -18859840.50749 -14685367.81047  22084149.212    22084156.176
       235.000         192.000
  20636764.953   -24685179.45949 -19227156.23248  20636764.685    20636771.609
       246.000         217.000
  24494657.873    -3129488.95049  -2431466.78245  24494657.901    24494668.998
       210.000         144.000
  21431844.334   -22230042.05849 -17300366.88147  21431844.113    21431851.548
       240.000         201.000
  24397056.219    -4132473.68549  -3200585.35245  24397054.950    24397069.968
       208.000         144.000
  21272240.335   -18796543.89149 -14400464.54047  21272240.185    21272247.067
       239.000         204.000
  22477131.278   -15109175.15449 -11526407.76146  22477130.536    22477140.916
       225.000         174.000
 01  6 24  0 13 30.0000000  0  8G20G14G25G30G11G 1G29G21
  23425205.842   -11673657.29349  -9088383.23945  23425205.028    23425213.923
       217.000         160.000
  22096924.096   -18792711.04249 -14633059.16347  22096923.788    22096930.220
       236.000         191.000
  20633274.690   -24703520.69749 -19241448.05948  20633274.501    20633281.313
       246.000         217.000
  24490855.449    -3149470.49049  -2447036.76745  24490854.914    24490865.867
       211.000         145.000
  21427751.772   -22251548.72849 -17317125.32247  21427751.316    21427758.903
       240.000         201.000
  24382716.491    -4207828.04449  -3259302.75645  24382715.547    24382730.332
       207.000         142.000
  21281290.732   -18748983.76249 -14363404.70847  21281290.679    21281297.330
       239.000         204.000
  22488847.632   -15047605.71449 -11478431.66646  22488848.344    22488857.663
       224.000         174.000
 01  6 24  0 14  0.0000000  0  8G20G14G25G30G11G 1G29G21
  23408658.692   -11760612.53349  -9156140.46045  23408657.174    23408666.360
       217.000         159.000
  22109716.511   -18725486.49149 -14580676.42947  22109716.202    22109722.683
       235.000         191.000
  20629884.460   -24721336.23649 -19255330.25248  20629884.208    20629891.079
       246.000         217.000
  24487140.087    -3168994.42949  -2462250.17245  24487140.485    24487151.101
       211.000         145.000
  21423765.790   -22272495.18249 -17333447.23247  21423765.516    21423772.904
       240.000         201.000
  24368404.818    -4283035.02249  -3317905.31445  24368403.815    24368418.810
       205.000         142.000
  21290366.767   -18701288.88249 -14326239.86947  21290366.716    21290373.379
       239.000         204.000
  22500620.251   -14985740.53549 -11430225.12946  22500619.755    22500630.340
       223.000         174.000
 01  6 24  0 14 30.0000000  0  8G20G14G25G30G11G 1G29G21
  23392116.199   -11847543.40949  -9223878.69545  23392115.705    23392124.564
       217.000         159.000
  22122526.523   -18658169.58849 -14528221.73147  22122526.184    22122532.657
       235.000         191.000
  20626593.988   -24738627.58449 -19268803.98648  20626593.626    20626600.560
       246.000         217.000
  24483511.790    -3188060.99549  -2477107.18845  24483512.517    24483522.828
       211.000         145.000
  21419886.232   -22292882.45149 -17349333.40847  21419886.021    21419893.192
       240.000         201.000
  24354120.906    -4358096.27649  -3376394.32545  24354119.694    24354134.623
       205.000         140.000
  21299467.930   -18653461.91949 -14288972.11547  21299467.605    21299474.619
       239.000         203.000
  22512448.953   -14923580.66749 -11381788.97146  22512448.816    22512458.655
       225.000         174.000
 01  6 24  0 15  0.0000000  0  8G20G14G25G30G11G 1G29G21
  23375578.840   -11934447.29449  -9291595.90045  23375578.344    23375586.714
       217.000         159.000
  22135354.078   -18590760.34549 -14475695.07647  22135353.763    22135360.279
       235.000         191.000
  20623403.475   -24755393.70949 -19281868.45748  20623403.235    20623410.169
       246.000         217.000
  24479971.127    -3206667.30049  -2491605.53845  24479971.009    24479981.900
       212.000         145.000
  21416113.435   -22312708.57449 -17364782.33347  21416113.163    21416120.540
       241.000         201.000
  24339864.955    -4433010.38349  -3434768.68045  24339863.333    24339879.399
       204.000         139.000
  21308594.303   -18605502.69149 -14251601.29547  21308594.217    21308601.217
       238.000         203.000
  22524333.962   -14861124.91249 -11333122.25146  22524333.908    22524343.553
       223.000         174.000
 01  6 24  0 15 30.0000000  0  8G20G14G25G30G11G 1G29G21
  23359046.892   -12021323.10749  -9359291.24045  23359045.839    23359054.901
       217.000         159.000
  22148199.004   -18523259.99049 -14423097.43447  22148198.881    22148205.044
       235.000         190.000
  20620312.938   -24771634.35949 -19294523.46648  20620312.675    20620319.431
       246.000         217.000
  24476518.280    -3224811.93849  -2505744.16345  24476518.659    24476529.169
       209.000         145.000
  21412447.528   -22331973.08749 -17379793.63947  21412447.421    21412454.498
       240.000         201.000
  24325637.012    -4507777.51549  -3493028.52945  24325636.832    24325652.078
       204.000         140.000
  21317745.571   -18557412.33149 -14214128.29747  21317745.742    21317752.294
       239.000         203.000
  22536275.294   -14798373.30249 -11284224.99846  22536275.211    22536285.813
       225.000         173.000
 01  6 24  0 16  0.0000000  0  8G20G14G25G30G11G 1G29G21
  23342520.351   -12108169.99749  -9426964.03445  23342519.360    23342528.609
       217.000         159.000
  22161060.935   -18455670.14649 -14370430.05547  22161060.397    22161067.013
       235.000         190.000
  20617322.343   -24787349.74249 -19306769.17248  20617322.125    20617328.902
       246.000         217.000
  24473153.532    -3242493.56449  -2519521.97545  24473154.807    24473165.227
       212.000         146.000
  21408888.499   -22350675.92949 -17394367.27647  21408888.045    21408895.429
       241.000         201.000
  24311436.959    -4582397.85449  -3551173.97445  24311435.423    24311450.439
       204.000         140.000
  21326921.543   -18509192.36649 -14176554.30347  21326921.579    21326928.204
       238.000         203.000
  22548272.697   -14735326.74449 -11235097.90846  22548272.816    22548282.520
       224.000         173.000
 01  6 24  0 16 30.0000000  0  8G20G14G25G30G11G 1G29G21
  23325999.734   -12194985.90149  -9494612.68345  23325998.008    23326008.114
       217.000         159.000
  22173939.872   -18387991.05249 -14317693.13347  22173939.631    22173945.997
       235.000         190.000
  20614431.917   -24802538.84249 -19318604.79048  20614431.706    20614438.495
       246.000         217.000
  24469877.426    -3259710.07049  -2532937.38145  24469877.177    24469886.565
       211.000         144.000
  21405436.666   -22368815.40349 -17408501.92247  21405436.325    21405443.724
       241.000         202.000
  24297265.069    -4656870.46049  -3609204.31445  24297263.934    24297279.594
       207.000         143.000
  21336122.104   -18460843.08449 -14138879.54147  21336121.820    21336128.591
       238.000         203.000
  22560326.444   -14671984.29949 -11185740.24446  22560326.241    22560336.013
       223.000         172.000
 01  6 24  0 17  0.0000000  0  8G20G14G25G30G11G 1G29G21
  23309485.085   -12281770.31449  -9562236.81145  23309483.880    23309493.397
       218.000         159.000
  22186835.461   -18320224.38549 -14264887.97047  22186835.054    22186842.003
       234.000         190.000
  20611641.549   -24817202.27049 -19330030.79348  20611641.418    20611648.071
       246.000         217.000
  24466689.777    -3276460.21449  -2545989.38745  24466689.184    24466700.038
       213.000         142.000
  21402092.014   -22386391.61849 -17422197.66947  21402091.990    21402099.146
       241.000         202.000
  24283121.276    -4731196.07749  -3667120.12045  24283119.576    24283135.012
       209.000         145.000
  21345346.940   -18412366.30249 -14101105.43447  21345346.944    21345353.579
       238.000         202.000
  22572436.324   -14608346.80549 -11136152.69146  22572435.968    22572447.092
       223.000         172.000
 01  6 24  0 17 30.0000000  0  8G20G14G25G30G11G 1G29G21
  23292976.940   -12368520.97049  -9629834.60845  23292976.048    23292984.896
       218.000         160.000
  22199747.683   -18252370.32349 -14212014.70647  22199747.145    22199754.211
       235.000         190.000
  20608951.286   -24831339.45349 -19341046.73748  20608951.020    20608957.775
       245.000         217.000
  24463591.642    -3292741.95449  -2558676.38845  24463591.638    24463601.870
       214.000         144.000
  21398854.797   -22403403.38449 -17435453.58347  21398854.501    21398861.788
       240.000         202.000
  24269005.471    -4805373.88049  -3724920.72245  24269004.478    24269019.665
       210.000         147.000
  21354596.055   -18363761.85349 -14063231.84047  21354595.871    21354602.459
       239.000         202.000
  22584602.513   -14544413.33349 -11086334.50546  22584602.805    22584612.175
       223.000         171.000
 01  6 24  0 18  0.0000000  0  8G20G14G25G30G11G 1G29G21
  23276475.206   -12455237.81249  -9697406.07145  23276474.962    23276483.013
       218.000         161.000
  22212676.049   -18184431.44449 -14159075.35447  22212675.844    22212682.316
       235.000         190.000
  20606360.944   -24844951.55449 -19351653.52248  20606360.813    20606367.600
       246.000         217.000
  24460582.401    -3308554.77249  -2570998.01445  24460582.561    24460591.507
       211.000         143.000
  21395724.892   -22419851.10049 -17448269.97847  21395724.608    21395731.971
       241.000         202.000
  24254917.763    -4879404.75049  -3782606.84245  24254916.840    24254931.829
       212.000         148.000
  21363869.010   -18315032.17349 -14025260.66347  21363869.021    21363875.768
       239.000         202.000
  22596824.832   -14480185.14249 -11036286.65846  22596825.074    22596835.343
       223.000         171.000
 01  6 24  0 18 30.0000000  0  8G20G14G25G30G11G 1G29G21
  23259980.375   -12541918.27449  -9764949.18345  23259979.391    23259988.802
       218.000         161.000
  22225620.615   -18116407.51349 -14106069.72747  22225620.073    22225626.897
       235.000         189.000
  20603870.847   -24858037.02249 -19361849.95648  20603870.707    20603877.400
       245.000         217.000
  24457663.051    -3323895.98749  -2582952.15845  24457662.013    24457673.469
       211.000         142.000
  21392702.637   -22435732.98949 -17460645.47247  21392702.490    21392709.849
       241.000         202.000
  24240858.153    -4953287.48649  -3840177.52345  24240856.664    24240871.548
       210.000         149.000
  21373165.860   -18266176.83949 -13987191.57747  21373165.885    21373172.565
       238.000         202.000
  22609103.432   -14415660.95449 -10986008.18746  22609103.913    22609113.563
       224.000         171.000
 01  6 24  0 19  0.0000000  0  8G20G14G25G30G11G 1G29G21
  23243492.520   -12628561.95049  -9832463.61745  23243491.706    23243500.928
       219.000         162.000
  22238580.942   -18048300.57349 -14052999.42047  22238580.641    22238587.361
       235.000         189.000
  20601480.715   -24870596.98749 -19371636.90448  20601480.432    20601487.158
       245.000         217.000
  24454833.465    -3338765.09449  -2594538.43145  24454833.261    24454844.007
       211.000         143.000
  21389787.972   -22451049.75049 -17472580.60747  21389787.608    21389794.977
       241.000         202.000
  24226826.544    -5027022.98649  -3897633.48345  24226825.268    24226840.424
       208.000         150.000
  21382486.204   -18217198.12349 -13949026.34547  21382486.313    21382492.741
       238.000         202.000
  22621438.148   -14350842.11349 -10935500.09346  22621438.394    22621448.029
       224.000         170.000
 01  6 24  0 19 30.0000000  0  8G20G14G25G30G11G 1G29G21
  23227012.103   -12715166.90649  -9899947.89546  23227011.095    23227020.501
       220.000         163.000
  22251556.998   -17980111.08249 -13999864.77647  22251556.858    22251563.383
       234.000         189.000
  20599190.700   -24882630.96549 -19381013.98848  20599190.467    20599197.374
       245.000         217.000
  24452094.191    -3353160.13349  -2605755.30445  24452094.297    24452104.290
       213.000         144.000
  21386981.008   -22465800.25349 -17484074.49747  21386980.771    21386987.967
       240.000         202.000
  24212823.074    -5100610.70049  -3954974.27045  24212822.532    24212837.086
       212.000         151.000
  21391829.996   -18168096.31249 -13910765.19847  21391830.154    21391836.774
       238.000         202.000
  22633829.104   -14285727.74949 -10884761.72546  22633828.936    22633838.863
       223.000         170.000
 01  6 24  0 20  0.0000000  0  8G20G14G25G30G11G 1G29G21
  23210539.171   -12801732.31849  -9967401.35146  23210538.339    23210547.066
       221.000         164.000
  22264548.419   -17911840.82449 -13946667.21047  22264548.034    22264554.586
       235.000         188.000
  20597000.672   -24894139.34649 -19389981.52448  20597000.363    20597007.301
       246.000         217.000
  24449445.255    -3367080.23349  -2616602.10945  24449445.241    24449456.624
       211.000         144.000
  21384281.787   -22479984.73249 -17495127.33247  21384281.500    21384288.655
       240.000         202.000
  24198847.726    -5174051.09349  -4012200.27145  24198846.837    24198861.226
       212.000         152.000
  21401196.888   -18118872.83049 -13872409.24147  21401196.810    21401203.562
       239.000         202.000
  22646276.066   -14220318.76749 -10833793.80546  22646276.019    22646286.069
       224.000         169.000
 01  6 24  0 20 30.0000000  0  8G20G14G25G30G11G 1G29G21
  23194074.059   -12888256.72649 -10034822.86346  23194074.037    23194082.413
       221.000         165.000
  22277555.109   -17843490.27149 -13893407.06447  22277554.680    22277561.415
       234.000         188.000
  20594910.719   -24905122.00649 -19398539.40748  20594910.540    20594917.069
       246.000         217.000
  24446887.015    -3380523.60049  -2627077.39845  24446888.371    24446897.802
       212.000         143.000
  21381690.462   -22493602.16149 -17505738.31147  21381690.154    21381697.344
       240.000         202.000
  24184900.388    -5247343.92949  -4069311.29045  24184899.742    24184914.620
       212.000         152.000
  21410586.833   -18069528.41649 -13833959.06147  21410586.939    21410593.515
       238.000         202.000
  22658779.197   -14154614.73349 -10782595.97146  22658779.343    22658788.811
       223.000         169.000
 01  6 24  0 21  0.0000000  0  8G20G14G25G30G11G 1G29G21
  23177617.032   -12974738.66649 -10102211.28046  23177616.420    23177624.756
       221.000         165.000
  22290576.843   -17775060.60549 -13840085.27147  22290576.645    22290583.143
       234.000         188.000
  20592920.832   -24915578.84749 -19406687.55948  20592920.728    20592927.170
       245.000         217.000
  24444419.797    -3393488.82549  -2637180.11945  24444420.150    24444431.437
       213.000         145.000
  21379207.122   -22506652.21049 -17515907.17547  21379206.823    21379214.178
       241.000         202.000
  24170981.124    -5320489.09149  -4126307.24645  24170979.959    24170994.061
       212.000         152.000
  21419999.593   -18020064.11349 -13795415.45647  21419999.823    21420006.364
       238.000         201.000
  22671338.389   -14088616.28049 -10731168.72446  22671338.339    22671348.244
       222.000         169.000
 01  6 24  0 21 30.0000000  0  8G20G14G25G30G11G 1G29G21
  23161168.453   -13061175.99149 -10169564.91646  23161167.587    23161176.269
       220.000         166.000
  22303613.550   -17706552.22749 -13786702.14847  22303613.570    22303620.272
       234.000         188.000
  20591031.001   -24925509.72049 -19414425.86548  20591030.866    20591037.434
       246.000         217.000
  24442043.808    -3405974.06649  -2646908.84645  24442042.586    24442055.459
       211.000         143.000
  21376831.895   -22519133.97649 -17525633.22247  21376831.657    21376839.081
       240.000         202.000
  24157090.091    -5393485.83649  -4183187.55145  24157088.835    24157103.335
       213.000         153.000
  21429435.109   -17970480.13149 -13756778.59647  21429435.071    21429441.802
       238.000         201.000
  22683953.783   -14022322.33549 -10679511.22346  22683952.946    22683963.223
       223.000         168.000
 01  6 24  0 22  0.0000000  0  8G20G14G25G30G11G 1G29G21
  23144728.551   -13147567.68249 -10236883.00146  23144727.149    23144736.221
       222.000         167.000
  22316665.051   -17637966.35749 -13733258.64546  22316664.734    22316672.048
       233.000         187.000
  20589241.211   -24934914.99949 -19421754.62148  20589241.015    20589247.659
       245.000         217.000
  24439759.469    -3417978.29649  -2656262.76645  24439759.547    24439769.721
       211.000         143.000
  21374564.844   -22531047.41349 -17534916.42347  21374564.507    21374571.792
       241.000         202.000
  24143227.313    -5466334.40349  -4239952.39345  24143226.342    24143240.049
       214.000         153.000
  21438893.157   -17920777.83349 -13718049.54847  21438893.073    21438899.839
       238.000         201.000
  22696625.240   -13955733.56349 -10627623.98046  22696625.473    22696635.469
       222.000         167.000
 01  6 24  0 22 30.0000000  0  8G20G14G25G30G11G 1G29G21
  23128297.584   -13233912.60049 -10304164.64546  23128296.993    23128305.613
       222.000         167.000
  22329731.011   -17569304.23349 -13679755.72046  22329730.469    22329737.789
       233.000         187.000
  20587551.335   -24943795.09849 -19428674.14148  20587551.085    20587557.775
       245.000         217.000
  24437566.875    -3429500.45849  -2665241.05245  24437566.385    24437576.830
       212.000         145.000
  21372405.943   -22542392.36649 -17543756.64547  21372405.611    21372413.035
       241.000         202.000
  24129392.678    -5539034.83049  -4296601.82245  24129391.970    24129405.462
       216.000         153.000
  21448373.502   -17870958.27049 -13679229.12247  21448373.620    21448380.310
       238.000         201.000
  22709352.777   -13888850.26049 -10575507.24746  22709352.442    22709363.777
       223.000         167.000
 01  6 24  0 23  0.0000000  0  8G20G14G25G30G11G 1G29G21
  23111875.689   -13320209.71249 -10371409.03146  23111874.272    23111883.368
       221.000         167.000
  22342811.219   -17500567.31349 -13626194.51746  22342810.864    22342817.958
       233.000         187.000
  20585961.396   -24952150.20849 -19435184.58148  20585961.256    20585967.725
       245.000         217.000
  24435466.230    -3440539.10249  -2673842.57845  24435465.769    24435475.258
       213.000         145.000
  21370355.242   -22553168.78649 -17552153.85847  21370354.791    21370362.442
       241.000         202.000
  24115586.197    -5611587.45849  -4353136.06745  24115585.238    24115598.931
       216.000         154.000
  21457875.940   -17821022.63049 -13640318.24847  21457875.812    21457882.687
       238.000         200.000
  22722136.327   -13821672.72749 -10523161.23046  22722136.013    22722146.612
       223.000         167.000
 01  6 24  0 23 30.0000000  0  8G20G14G25G30G11G 1G29G21
  23095463.127   -13406457.72049 -10438615.15846  23095462.824    23095471.056
       220.000         167.000
  22355905.427   -17431756.82849 -13572575.98846  22355904.959    22355912.174
       232.000         186.000
  20584471.229   -24959980.95249 -19441286.42748  20584471.017    20584477.722
       245.000         217.000
  24433457.827    -3451093.28649  -2682066.58745  24433458.029    24433467.758
       211.000         145.000
  21368412.744   -22563376.65049 -17560108.04147  21368412.196    21368420.057
       240.000         202.000
  24101807.755    -5683992.78249  -4409555.54145  24101806.626    24101820.378
       217.000         154.000
  21467400.230   -17770972.14649 -13601317.89547  21467400.278    21467407.061
       237.000         200.000
  22734975.685   -13754202.01049 -10470586.75346  22734975.524    22734986.095
       222.000         166.000
 01  6 24  0 24  0.0000000  0  8G20G14G25G30G11G 1G29G21
  23079060.298   -13492654.54249 -10505781.39446  23079060.159    23079068.955
       221.000         168.000
  22369013.558   -17362873.08349 -13518900.38446  22369013.324    22369019.961
       232.000         186.000
  20583080.854   -24967287.09349 -19446979.48948  20583080.640    20583087.384
       246.000         217.000
  24431541.885    -3461161.39549  -2689911.84145  24431541.516    24431552.792
       211.000         144.000
  21366578.620   -22573015.02849 -17567618.47047  21366578.216    21366585.575
       241.000         202.000
  24088057.422    -5756250.13349  -4465859.72545  24088056.226    24088069.902
       217.000         154.000
  21476946.351   -17720807.18749 -13562228.33347  21476946.509    21476952.884
       238.000         200.000
  22747871.060   -13686436.79649 -10417782.80346  22747870.617    22747880.466
       221.000         165.000
 01  6 24  0 24 30.0000000  0  8G20G14G25G30G11G 1G29G21
  23062667.504   -13578798.82649 -10572906.69246  23062666.608    23062675.639
       222.000         169.000
  22382135.532   -17293916.76249 -13465168.22346  22382134.880    22382141.854
       233.000         186.000
  20581790.343   -24974068.65349 -19452263.78348  20581790.153    20581796.659
       246.000         217.000
  24429718.684    -3470742.10449  -2697377.30045  24429719.437    24429729.000
       212.000         145.000
  21364852.854   -22582083.93949 -17574685.15947  21364852.490    21364859.887
       240.000         202.000
  24074335.269    -5828359.43449  -4522048.54745  24074334.455    24074347.186
       217.000         154.000
  21486514.071   -17670528.59949 -13523050.23547  21486513.876    21486520.539
       238.000         200.000
  22760822.241   -13618378.18849 -10364750.24746  22760822.011    22760832.097
       221.000         165.000
 01  6 24  0 25  0.0000000  0  8G20G14G25G30G11G 1G29G21
  23046285.048   -13664888.91649 -10639989.77546  23046284.239    23046292.476
       221.000         169.000
  22395271.135   -17224888.92949 -13411380.34346  22395270.647    22395277.260
       232.000         186.000
  20580599.672   -24980325.59849 -19457139.29048  20580599.587    20580606.092
       246.000         217.000
  24427988.529    -3479833.98449  -2704461.85245  24427989.215    24427998.593
       212.000         144.000
  21363235.554   -22590582.87349 -17581307.71547  21363235.410    21363242.960
       241.000         202.000
  24060641.352    -5900320.37949  -4578121.75545  24060639.606    24060653.844
       216.000         153.000
  21496103.279   -17620136.94149 -13483784.03547  21496103.187    21496109.978
       238.000         200.000
  22773829.423   -13550025.45749 -10311488.50146  22773829.106    22773838.926
       221.000         164.000
 01  6 24  0 25 30.0000000  0  8G20G14G25G30G11G 1G29G21
  23029912.951   -13750924.21249 -10707030.16246  23029912.273    23029922.002
       221.000         170.000
  22408419.976   -17155791.31749 -13357538.08546  22408419.454    22408426.660
       232.000         185.000
  20579508.647   -24986058.82349 -19461606.70348  20579508.433    20579515.186
       246.000         218.000
  24426351.509    -3488436.60449  -2711165.16445  24426351.419    24426361.660
       212.000         144.000
  21361726.670   -22598512.20449 -17587486.41847  21361726.554    21361733.757
       241.000         202.000
  24046975.459    -5972133.89049  -4634080.09845  24046974.256    24046988.062
       216.000         153.000
  21505713.647   -17569634.10449 -13444431.20047  21505713.694    21505720.505
       237.000         200.000
  22786892.366   -13481379.63549 -10257998.37146  22786892.563    22786902.390
       221.000         164.000
 01  6 24  0 26  0.0000000  0  8G20G14G25G30G11G 1G29G21
  23013551.590   -13836903.19049 -10774026.66546  23013551.760    23013559.381
       222.000         170.000
  22421581.982   -17086624.76249 -13303642.10646  22421582.112    22421588.700
       232.000         185.000
  20578517.194   -24991268.84949 -19465666.42748  20578517.079    20578523.588
       246.000         218.000
  24424807.805    -3496548.72649  -2717486.27145  24424809.526    24424819.662
       212.000         145.000
  21360326.134   -22605871.92849 -17593221.27147  21360325.744    21360333.568
       240.000         202.000
  24033337.721    -6043799.71849  -4689923.35345  24033336.427    24033349.941
       217.000         152.000
  21515345.029   -17519020.92549 -13404992.38247  21515344.797    21515351.715
       237.000         200.000
  22800011.002   -13412441.33149 -10204280.33246  22800009.442    22800021.023
       221.000         163.000
 01  6 24  0 26 30.0000000  0  8G20G14G25G30G11G 1G29G21
  22997201.523   -13922823.04549 -10840977.10146  22997201.019    22997209.204
       222.000         170.000
  22434757.134   -17017389.20049 -13249692.36346  22434757.181    22434763.614
       233.000         185.000
  20577625.438   -24995954.89749 -19469317.86248  20577625.316    20577631.901
       245.000         217.000
  24423357.899    -3504167.85749  -2723423.26445  24423357.062    24423367.787
       211.000         145.000
  21359034.247   -22612660.81049 -17598511.32247  21359033.699    21359041.520
       241.000         202.000
  24019728.330    -6115316.82949  -4745650.72245  24019727.529    24019740.242
       217.000         152.000
  21524997.510   -17468297.01449 -13365467.29047  21524997.514    21525004.398
       238.000         200.000
  22813185.447   -13343209.52549 -10150333.59846  22813185.440    22813195.731
       220.000         163.000
 01  6 24  0 27  0.0000000  0  8G20G14G25G30G11G 1G29G21
  22980862.810   -14008683.19549 -10907881.01246  22980861.940    22980870.300
       221.000         170.000
  22447945.038   -16948086.42149 -13195690.23446  22447944.691    22447951.653
       232.000         185.000
  20576833.124   -25000118.38149 -19472562.10548  20576833.055    20576839.388
       245.000         218.000
  24422001.784    -3511294.04649  -2728976.10745  24422001.610    24422013.171
       214.000         144.000
  21357850.881   -22618879.54049 -17603357.09547  21357850.538    21357857.948
       240.000         203.000
  24006146.911    -6186686.26249  -4801263.02945  24006145.971    24006158.874
       216.000         152.000
  21534670.700   -17417464.09249 -13325857.24047  21534670.498    21534677.374
       238.000         199.000
  22826415.720   -13273684.71849 -10096158.56545  22826415.521    22826425.606
       221.000         162.000
 01  6 24  0 27 30.0000000  0  8G20G14G25G30G11G 1G29G21
  22964535.605   -14094482.75249 -10974737.71446  22964534.973    22964543.815
       223.000         171.000
  22461145.556   -16878717.50249 -13141636.56146  22461145.423    22461151.934
       233.000         185.000
  20576140.155   -25003759.79149 -19475399.54048  20576139.965    20576146.710
       246.000         218.000
  24420739.678    -3517926.28749  -2734144.08045  24420739.484    24420749.570
       212.000         145.000
  21356775.927   -22624528.50849 -17607758.89647  21356775.692    21356783.146
       241.000         203.000
  23992593.589    -6257908.45149  -4856760.60045  23992592.984    23992605.783
       216.000         152.000
  21544364.331   -17366523.73549 -13286163.48547  21544364.287    21544371.130
       237.000         199.000
  22839701.506   -13203868.02049 -10041756.07446  22839701.694    22839711.091
       219.000         163.000
 01  6 24  0 28  0.0000000  0  8G20G14G25G30G11G 1G29G21
  22948220.270   -14180219.75049 -11041545.66946  22948219.698    22948227.960
       222.000         171.000
  22474358.547   -16809282.93949 -13087531.74946  22474358.146    22474365.226
       232.000         184.000
  20575546.562   -25006879.05449 -19477830.10848  20575546.376    20575552.911
       246.000         218.000
  24419571.863    -3524063.17549  -2738926.04145  24419571.852    24419581.822
       213.000         146.000
  21355809.522   -22629607.07949 -17611716.23347  21355809.191    21355816.769
       241.000         203.000
  23979068.434    -6328982.92849  -4912143.06745  23979066.797    23979081.074
       216.000         151.000
  21554078.412   -17315476.16349 -13246386.18947  21554078.402    21554085.291
       238.000         199.000
  22853042.740   -13133759.66149  -9987126.33345  22853041.858    22853052.714
       219.000         162.000
 01  6 24  0 28 30.0000000  0  8G20G14G25G30G11G 1G29G21
  22931917.314   -14265892.05249 -11108303.20946  22931916.475    22931925.499
       221.000         171.000
  22487583.932   -16739783.22649 -13033376.17046  22487583.520    22487590.902
       232.000         184.000
  20575052.462   -25009475.46249 -19479853.25348  20575052.348    20575058.712
       246.000         218.000
  24418498.652    -3529703.04149  -2743320.72645  24418499.285    24418508.678
       213.000         145.000
  21354951.776   -22634114.59849 -17615228.59547  21354951.395    21354959.086
       241.000         203.000
  23965571.460    -6399908.99349  -4967409.89845  23965569.991    23965583.074
       214.000         150.000
  21563812.849   -17264321.36549 -13206525.33047  21563812.903    21563819.773
       237.000         199.000
  22866439.649   -13063358.65149  -9932268.53645  22866440.183    22866450.714
       218.000         162.000
 01  6 24  0 29  0.0000000  0  8G20G14G25G30G11G 1G29G21
  22915626.868   -14351498.39449 -11175009.35446  22915625.902    22915634.701
       222.000         171.000
  22500821.436   -16670219.69949 -12979170.86946  22500821.276    22500827.890
       231.000         184.000
  20574657.538   -25011550.78149 -19481470.35248  20574657.371    20574663.842
       246.000         218.000
  24417520.084    -3534845.28749  -2747327.67545  24417519.533    24417530.456
       213.000         145.000
  21354202.604   -22638051.48449 -17618296.30847  21354202.183    21354209.661
       241.000         203.000
  23952102.582    -6470687.16949  -5022561.47145  23952102.594    23952114.937
       214.000         148.000
  21573567.406   -17213060.89549 -13166582.12947  21573567.400    21573574.056
       237.000         199.000
  22879892.233   -12992665.50449  -9877183.10945  22879891.391    22879902.421
       218.000         162.000
 01  6 24  0 29 30.0000000  0  8G20G14G25G30G11G 1G29G21
  22899349.153   -14437037.90049 -11241663.42146  22899348.641    22899356.771
       222.000         171.000
  22514070.794   -16600593.89349 -12924917.03246  22514070.723    22514077.308
       232.000         184.000
  20574361.583   -25013105.84049 -19482682.05648  20574361.416    20574367.847
       246.000         218.000
  24416636.385    -3539489.41549  -2750946.46245  24416636.314    24416647.419
       216.000         145.000
  21353561.881   -22641418.50649 -17620919.97547  21353561.557    21353569.053
       241.000         203.000
  23938661.763    -6541318.06849  -5077598.29845  23938660.830    23938674.470
       212.000         147.000
  21583341.811   -17161696.22849 -13126557.73847  21583341.803    21583348.624
       237.000         198.000
  22893400.103   -12921681.46949  -9821871.01345  22893399.859    22893410.603
       218.000         162.000
 01  6 24  0 30  0.0000000  0  8G20G14G25G30G11G 1G29G21
  22883084.672   -14522508.00549 -11308263.40446  22883083.911    22883093.091
       222.000         171.000
  22527332.107   -16530905.59849 -12870614.50346  22527331.803    22527338.927
       232.000         183.000
  20574164.707   -25014140.37349 -19483488.15048  20574164.482    20574171.073
       246.000         218.000
  24415847.793    -3543633.58849  -2754175.66045  24415848.250    24415858.410
       214.000         144.000
  21353029.844   -22644214.50149 -17623098.67747  21353029.425    21353036.923
       241.000         203.000
  23925249.080    -6611800.95749  -5132519.80245  23925247.516    23925261.233
       212.000         146.000
  21593136.039   -17110227.25049 -13086452.06447  21593135.873    21593142.859
       237.000         198.000
  22906963.382   -12850406.37749  -9766332.12445  22906963.279    22906974.044
       219.000         162.000
 01  6 24  0 30 30.0000000  0  8G20G14G25G30G11G 1G29G21
  22866833.350   -14607908.86649 -11374809.44346  22866832.521    22866841.162
       223.000         172.000
  22540604.812   -16461157.10449 -12816265.06546  22540604.544    22540611.336
       231.000         183.000
  20574066.641   -25014655.64249 -19483889.63048  20574066.510    20574072.999
       246.000         218.000
  24415154.438    -3547278.11449  -2757015.52645  24415152.642    24415164.023
       214.000         145.000
  21352606.109   -22646441.18349 -17624833.77047  21352605.849    21352613.398
       241.000         203.000
  23911864.324    -6682137.22649  -5187327.04445  23911863.791    23911875.886
       210.000         146.000
  21602949.694   -17058656.14149 -13046266.80847  21602949.429    21602956.488
       237.000         198.000
  22920581.824   -12778841.60449  -9710567.50145  22920581.532    22920592.359
       217.000         162.000
 01  6 24  0 31  0.0000000  0  8G20G14G25G30G11G 1G29G21
  22850595.803   -14693237.35449 -11441299.07446  22850595.552    22850603.832
       223.000         172.000
  22553889.031   -16391348.05949 -12761868.44546  22553888.648    22553895.892
       230.000         183.000
  20574067.488   -25014650.93749 -19483885.93048  20574067.350    20574073.885
       246.000         218.000
  24414556.219    -3550420.91149  -2759464.42445  24414555.545    24414567.262
       215.000         144.000
  21352290.947   -22648097.41249 -17626124.34947  21352290.587    21352297.960
       241.000         203.000
  23898507.659    -6752325.58649  -5242019.03645  23898507.258    23898520.263
       209.000         145.000
  21612782.930   -17006982.25849 -13006001.46547  21612782.892    21612789.876
       237.000         198.000
  22934255.547   -12706986.21249  -9654576.42345  22934254.916    22934266.186
       218.000         162.000
 01  6 24  0 31 30.0000000  0  8G20G14G25G30G11G 1G29G21
  22834372.410   -14778491.38349 -11507730.69546  22834371.923    22834380.364
       224.000         172.000
  22567184.748   -16321478.77049 -12707424.88746  22567184.653    22567191.716
       230.000         183.000
  20574167.291   -25014126.44349 -19483477.20248  20574167.240    20574173.627
       246.000         218.000
  24414054.012    -3553060.31049  -2761521.07645  24414054.622    24414064.621
       213.000         144.000
  21352084.465   -22649182.46449 -17626969.85447  21352084.270    21352091.675
       241.000         203.000
  23885179.274    -6822365.58049  -5296595.42045  23885178.305    23885191.867
       211.000         146.000
  21622635.632   -16955205.90349 -12965656.26747  21622635.541    21622642.417
       237.000         198.000
  22947984.632   -12634840.06549  -9598358.79245  22947984.751    22947995.319
       218.000         162.000
 01  6 24  0 32  0.0000000  0  8G20G14G25G30G11G 1G29G21
  22818163.170   -14863671.29449 -11574104.55146  22818162.205    22818171.082
       225.000         173.000
  22580491.394   -16251552.03049 -12652936.56846  22580490.881    22580498.437
       230.000         183.000
  20574365.538   -25013084.50149 -19482665.26548  20574365.343    20574371.791
       245.000         218.000
  24413647.304    -3555197.19949  -2763186.15645  24413647.923    24413657.220
       213.000         145.000
  21351986.282   -22649698.41249 -17627371.90647  21351985.938    21351993.319
       241.000         203.000
  23871878.718    -6892259.06949  -5351057.63545  23871877.143    23871891.120
       211.000         147.000
  21632507.327   -16903329.92749 -12925233.44447  21632507.317    21632514.116
       236.000         197.000
  22961768.531   -12562405.67149  -9541916.54045  22961768.249    22961779.506
       218.000         162.000
 01  6 24  0 32 30.0000000  0  8G20G14G25G30G11G 1G29G21
  22801968.585   -14948774.12249 -11640418.33446  22801967.926    22801976.831
       225.000         173.000
  22593809.087   -16181567.24149 -12598403.00746  22593809.131    22593815.734
       230.000         183.000
  20574662.363   -25011524.47549 -19481449.62448  20574662.168    20574668.787
       246.000         218.000
  24413336.471    -3556829.43749  -2764457.99645  24413337.608    24413346.494
       214.000         145.000
  21351996.623   -22649644.18749 -17627329.66447  21351996.011    21352003.855
       241.000         203.000
  23858606.429    -6962004.80449  -5405404.72045  23858604.971    23858618.167
       212.000         149.000
  21642398.121   -16851353.57749 -12884732.40447  21642398.040    21642404.742
       236.000         197.000
  22975607.635   -12489681.13049  -9485248.21145  22975607.778    22975618.379
       218.000         162.000
 01  6 24  0 33  0.0000000  0  8G20G14G25G30G11G 1G29G21
  22785788.892   -15033798.69849 -11706671.15446  22785788.337    22785796.832
       225.000         174.000
  22607137.665   -16111525.42549 -12543825.01146  22607137.664    22607143.923
       230.000         183.000
  20575057.586   -25009447.40149 -19479831.09348  20575057.384    20575063.960
       246.000         218.000
  24413122.108    -3557956.70649  -2765336.37045  24413122.117    24413132.582
       213.000         145.000
  21352115.369   -22649020.23749 -17626843.48347  21352114.789    21352122.675
       241.000         203.000
  23845362.090    -7031603.24149  -5459637.02845  23845360.051    23845374.014
       213.000         150.000
  21652307.749   -16799278.06849 -12844154.10447  21652307.619    21652314.731
       236.000         197.000
  22989501.759   -12416667.66749  -9428354.73245  22989501.989    22989513.368
       219.000         162.000
 01  6 24  0 33 30.0000000  0  8G20G14G25G30G11G 1G29G21
  22769624.267   -15118743.97349 -11772862.17646  22769623.408    22769632.504
       225.000         174.000
  22620476.752   -16041428.19849 -12489203.83546  22620476.630    22620483.769
       230.000         183.000
  20575551.020   -25006854.27049 -19477810.43848  20575550.843    20575557.253
       245.000         218.000
  24413003.716    -3558578.76349  -2765821.06445  24413003.339    24413014.429
       213.000         145.000
  21352342.365   -22647827.48949 -17625914.08147  21352342.121    21352349.452
       241.000         203.000
  23832145.703    -7101055.18849  -5513755.20745  23832144.750    23832157.027
       215.000         152.000
  21662235.988   -16747104.88049 -12803499.68147  21662235.936    21662242.956
       236.000         197.000
  23003450.597   -12343366.46249  -9371237.04946  23003450.732    23003461.192
       218.000         163.000
 01  6 24  0 34  0.0000000  0  8G20G14G25G30G11G 1G29G21
  22753475.261   -15203607.13249 -11838989.21746  22753473.948    22753483.006
       225.000         174.000
  22633826.489   -15971275.09749 -12434539.12946  22633825.758    22633833.718
       230.000         182.000
  20576142.842   -25003743.99449 -19475386.81748  20576142.633    20576149.196
       246.000         217.000
  24412982.045    -3558693.10349  -2765910.12145  24412982.534    24412993.008
       210.000         145.000
  21352677.776   -22646064.78149 -17624540.55947  21352677.529    21352685.211
       241.000         203.000
  23818957.439    -7170359.30449  -5567758.19445  23818956.669    23818969.110
       216.000         153.000
  21672182.959   -16694833.33549 -12762768.62747  21672183.020    21672189.885
       236.000         197.000
  23017454.374   -12269776.80249  -9313894.59646  23017455.027    23017465.859
       219.000         163.000
 01  6 24  0 34 30.0000000  0  8G20G14G25G30G11G 1G29G21
  22737342.082   -15288387.17849 -11905051.50246  22737341.546    22737349.265
       227.000         174.000
  22647186.557   -15901067.64049 -12379832.07546  22647186.039    22647193.503
       230.000         182.000
  20576832.746   -25000118.40749 -19472561.65248  20576832.725    20576839.123
       245.000         217.000
  24413056.717    -3558299.72049  -2765603.57745  24413056.882    24413066.649
       214.000         145.000
  21353121.509   -22643733.02649 -17622723.62147  21353121.402    21353128.677
       241.000         203.000
  23805797.156    -7239516.29949  -5621646.54245  23805796.650    23805808.565
       215.000         154.000
  21682148.334   -16642464.92649 -12721962.08547  21682148.271    21682155.068
       236.000         196.000
  23031512.884   -12195899.50949  -9256328.01146  23031512.955    23031523.423
       219.000         163.000
 01  6 24  0 35  0.0000000  0  8G20G14G25G30G11G 1G29G21
  22721224.909   -15373083.04249 -11971048.18946  22721224.014    22721232.703
       226.000         175.000
  22660556.730   -15830807.00449 -12325083.58346  22660556.783    22660563.859
       229.000         182.000
  20577620.513   -24995978.52749 -19469335.74048  20577620.310    20577626.778
       245.000         217.000
  24413228.314    -3557398.51949  -2764901.33145  24413228.154    24413237.926
       213.000         144.000
  21353673.337   -22640833.12749 -17620463.97247  21353672.900    21353680.717
       241.000         203.000
  23792664.686    -7308526.81149  -5675420.74245  23792663.672    23792675.678
       215.000         154.000
  21692131.905   -16590001.01549 -12681081.13247  21692131.930    21692138.489
       235.000         196.000
  23045625.937   -12121735.44449  -9198537.97945  23045625.895    23045637.504
       217.000         162.000
 01  6 24  0 35 30.0000000  0  8G20G14G25G30G11G 1G29G21
  22705124.346   -15457691.75649 -12036976.97046  22705123.000    22705131.742
       226.000         175.000
  22673937.148   -15760492.73549 -12270293.29546  22673936.910    22673944.056
       229.000         181.000
  20578506.189   -24991324.13549 -19465708.91348  20578506.017    20578512.419
       246.000         217.000
  24413496.704    -3555987.40049  -2763801.73745  24413496.858    24413506.725
       214.000         143.000
  21354333.496   -22637364.10149 -17617760.84847  21354333.343    21354340.549
       241.000         203.000
  23779560.359    -7377389.68349  -5729079.91545  23779559.713    23779572.190
       215.000         155.000
  21702133.740   -16537440.99949 -12640125.29347  21702133.546    21702140.682
       236.000         196.000
  23059793.802   -12047283.42749  -9140523.56045  23059793.127    23059804.345
       218.000         162.000
 01  6 24  0 36  0.0000000  0  8G20G14G25G30G11G 1G29G21
  22689040.520   -15542212.55349 -12102837.24546  22689039.585    22689047.448
       228.000         175.000
  22687327.362   -15690126.76649 -12215462.72946  22687327.140    22687334.198
       229.000         181.000
  20579489.533   -24986156.60649 -19461682.23548  20579489.456    20579495.650
       246.000         217.000
  24413862.251    -3554066.48149  -2762304.85245  24413861.615    24413872.807
       212.000         143.000
  21355101.673   -22633327.37149 -17614615.35747  21355101.381    21355108.911
       241.000         203.000
  23766483.924    -7446105.88849  -5782624.79145  23766483.276    23766495.471
       217.000         156.000
  21712153.562   -16484786.53949 -12599095.86347  21712153.689    21712160.296
       236.000         196.000
  23074016.161   -11972544.83849  -9082285.83445  23074016.181    23074026.738
       218.000         162.000
 01  6 24  0 36 30.0000000  0  8G20G14G25G30G11G 1G29G21
  22672973.508   -15626644.76549 -12168628.49446  22672972.118    22672980.778
       226.000         175.000
  22700727.195   -15619710.48649 -12160592.95346  22700727.084    22700733.806
       229.000         181.000
  20580570.216   -24980477.46349 -19457256.90148  20580569.968    20580576.466
       246.000         217.000
  24414324.603    -3551635.97649  -2760410.94745  24414324.735    24414335.876
       218.000         143.000
  21355977.708   -22628723.85249 -17611028.21547  21355977.464    21355984.920
       241.000         203.000
  23753435.175    -7514676.52949  -5836056.24945  23753434.420    23753446.770
       214.000         157.000
  21722191.054   -16432039.26449 -12557994.11847  21722191.250    21722197.813
       236.000         196.000
  23088292.824   -11897521.30849  -9023826.08945  23088292.418    23088303.196
       217.000         162.000
 01  6 24  0 37  0.0000000  0  8G20G14G25G30G11G 1G29G21
  22656923.991   -15710985.18349 -12234348.20646  22656923.089    22656931.979
       226.000         175.000
  22714136.659   -15549243.41849 -12105683.59746  22714136.321    22714143.957
       228.000         180.000
  20581748.362   -24974285.93949 -19452432.30848  20581748.272    20581754.509
       246.000         217.000
  24414884.402    -3548693.90749  -2758118.39545  24414884.267    24414893.617
       212.000         144.000
  21356961.737   -22623552.66149 -17606998.72547  21356961.683    21356969.015
       241.000         203.000
  23740414.409    -7583100.23149  -5889373.21445  23740413.144    23740425.785
       216.000         158.000
  21732246.328   -16379198.50849 -12516819.53147  21732246.259    21732253.157
       235.000         196.000
  23102623.849   -11822211.88949  -8965143.56045  23102623.696    23102634.275
       217.000         162.000
 01  6 24  0 37 30.0000000  0  8G20G14G25G30G11G 1G29G21
  22640892.172   -15795232.60449 -12299995.47046  22640891.657    22640898.498
       227.000         176.000
  22727555.618   -15478726.52149 -12050735.42246  22727554.821    22727562.136
       228.000         180.000
  20583023.855   -24967583.22049 -19447209.38648  20583023.709    20583030.039
       246.000         217.000
  24415541.839    -3545239.79049  -2755426.84845  24415540.813    24415551.948
       213.000         144.000
  21358053.680   -22617814.58849 -17602527.51547  21358053.407    21358060.868
       241.000         203.000
  23727421.500    -7651377.65449  -5942576.20745  23727419.929    23727433.444
       216.000         160.000
  21742319.182   -16326265.33249 -12475572.92747  21742319.046    21742325.960
       235.000         195.000
  23117009.071   -11746617.60649  -8906239.07445  23117009.088    23117020.853
       219.000         161.000
 01  6 24  0 38  0.0000000  0  8G20G14G25G30G11G 1G29G21
  22624878.504   -15879384.63349 -12365568.39546  22624877.523    22624885.570
       227.000         176.000
  22740984.037   -15408159.76249 -11995748.39246  22740983.994    22740991.156
       228.000         180.000
  20584396.567   -24960369.44449 -19441588.23948  20584396.399    20584402.626
       246.000         217.000
  24416296.745    -3541272.35849  -2752335.30445  24416296.710    24416306.530
       207.000         144.000
  21359253.536   -22611509.50149 -17597614.47147  21359253.327    21359260.691
       241.000         203.000
  23714456.557    -7719508.21249  -5995664.75945  23714455.524    23714467.696
       217.000         161.000
  21752409.640   -16273239.80749 -12434254.35947  21752409.520    21752416.539
       236.000         195.000
  23131448.577   -11670737.92649  -8847112.18845  23131447.902    23131459.589
       216.000         161.000
 01  6 24  0 38 30.0000000  0  8G20G14G25G30G11G 1G29G21
  22608883.011   -15963441.13649 -12431066.88846  22608882.336    22608890.040
       227.000         177.000
  22754421.399   -15337545.99449 -11940724.73746  22754421.292    22754428.080
       227.000         179.000
  20585865.985   -24952647.47749 -19435571.09948  20585865.862    20585872.235
       246.000         217.000
  24417148.837    -3536792.66349  -2748844.63245  24417150.908    24417159.782
       213.000         144.000
  21360560.912   -22604639.22949 -17592261.02947  21360560.512    21360568.328
       241.000         203.000
  23701519.217    -7787493.70449  -6048640.28345  23701518.280    23701530.892
       216.000         162.000
  21762517.212   -16220124.18749 -12392865.59247  21762517.173    21762524.237
       235.000         195.000
  23145941.929   -11594575.37449  -8787764.89945  23145942.567    23145952.915
       217.000         160.000
 01  6 24  0 39  0.0000000  0  8G20G14G25G30G11G 1G29G21
  22592906.454   -16047398.23049 -12496487.93046  22592906.037    22592913.165
       228.000         177.000
  22767868.080   -15266883.46849 -11885663.07346  22767867.853    22767875.021
       228.000         179.000
  20587432.519   -24944415.19649 -19429156.31548  20587432.337    20587438.661
       246.000         217.000
  24418099.351    -3531797.67049  -2744952.38645  24418099.961    24418110.057
       210.000         144.000
  21361976.174   -22597202.02749 -17586465.81747  21361976.102    21361983.532
       241.000         204.000
  23688609.901    -7855331.60249  -6101500.79945  23688609.217    23688621.205
       218.000         162.000
  21772642.244   -16166916.93349 -12351405.42547  21772642.393    21772649.151
       235.000         195.000
  23160489.529   -11518128.05449  -8728195.70245  23160489.277    23160500.356
       215.000         160.000
 01  6 24  0 39 30.0000000  0  8G20G14G25G30G11G 1G29G21
  22576948.762   -16131256.27849 -12561831.78046  22576947.425    22576956.345
       227.000         177.000
  22781323.532   -15196174.79949 -11830565.46646  22781323.408    22781330.072
       228.000         179.000
  20589095.508   -24935675.89749 -19422346.45548  20589095.376    20589101.561
       245.000         217.000
  24419147.654    -3526289.23149  -2740660.11045  24419148.485    24419158.648
       213.000         145.000
  21363498.779   -22589200.69449 -17580231.02847  21363498.658    21363506.078
       241.000         204.000
  23675728.282    -7923024.38949  -6154248.28446  23675727.645    23675739.336
       217.000         163.000
  21782784.145   -16113620.81049 -12309876.01147  21782784.192    21782790.970
       235.000         195.000
  23175090.807   -11441398.41149  -8668406.52545  23175089.949    23175101.595
       217.000         160.000
 01  6 24  0 40  0.0000000  0  8G20G14G25G30G11G 1G29G21
  22561010.348   -16215012.85849 -12627096.56346  22561008.988    22561017.383
       228.000         178.000
  22794787.767   -15125420.06549 -11775431.96146  22794787.087    22794794.491
       227.000         178.000
  20590855.058   -24926429.39249 -19415141.37048  20590854.888    20590861.240
       246.000         217.000
  24420293.880    -3520266.03849  -2735966.68945  24420294.892    24420305.000
       212.000         145.000
  21365128.803   -22580634.98249 -17573556.46147  21365128.479    21365136.004
       242.000         203.000
  23662874.362    -7990571.53449  -6206882.25246  23662873.983    23662886.071
       218.000         163.000
  21792942.996   -16060235.70749 -12268277.26647  21792942.930    21792949.986
       235.000         194.000
  23189745.838   -11364386.15949  -8608397.13045  23189745.873    23189757.471
       218.000         159.000
 01  6 24  0 40 30.0000000  0  8G20G14G25G30G11G 1G29G21
  22545091.594   -16298666.07749 -12692280.80946  22545090.878    22545099.086
       228.000         178.000
  22808260.632   -15054619.94449 -11720263.09046  22808260.540    22808266.989
       227.000         178.000
  20592710.859   -24916676.95449 -19407542.05148  20592710.693    20592717.198
       246.000         217.000
  24421538.149    -3513727.31149  -2730871.57545  24421539.150    24421547.884
       214.000         145.000
  21366866.101   -22571505.42549 -17566442.53547  21366865.867    21366873.601
       242.000         203.000
  23650048.140    -8057973.24849  -6259402.90546  23650047.723    23650059.499
       220.000         164.000
  21803118.638   -16006762.45449 -12226609.83347  21803118.965    21803125.163
       234.000         194.000
  23204454.498   -11287092.30149  -8548168.29945  23204454.680    23204465.780
       216.000         159.000
 01  6 24  0 41  0.0000000  0  8G20G14G25G30G11G 1G29G21
  22529192.769   -16382214.54949 -12757383.43146  22529192.165    22529199.946
       229.000         178.000
  22821741.920   -14983775.26649 -11665059.49746  22821741.547    22821749.183
       229.000         178.000
  20594662.767   -24906419.48149 -19399549.19748  20594662.642    20594668.875
       246.000         217.000
  24422880.670    -3506672.75949  -2725374.49145  24422880.482    24422890.098
       215.000         145.000
  21368710.557   -22561812.77449 -17558889.83447  21368710.310    21368717.947
       242.000         203.000
  23637249.548    -8125229.70249  -6311810.35646  23637249.073    23637260.963
       220.000         164.000
  21813310.979   -15953201.62049 -12184874.14647  21813311.009    21813317.888
       235.000         194.000
  23219216.629   -11209517.32549  -8487720.42345  23219216.251    23219228.028
       216.000         158.000
 01  6 24  0 41 30.0000000  0  8G20G14G25G30G11G 1G29G21
  22513314.305   -16465656.04749 -12822402.70246  22513314.257    22513321.656
       229.000         178.000
  22835231.658   -14912886.45549 -11609821.51246  22835231.788    22835238.643
       227.000         177.000
  20596710.717   -24895657.38149 -19391163.12748  20596710.614    20596716.887
       245.000         217.000
  24424321.550    -3499101.63749  -2719474.87745  24424320.835    24424331.263
       212.000         145.000
  21370662.132   -22551557.13949 -17550898.44047  21370661.719    21370669.537
       241.000         203.000
  23624478.666    -8192340.57249  -6364104.34846  23624478.064    23624489.940
       221.000         165.000
  21823519.843   -15899553.82149 -12143070.70147  21823519.962    21823526.782
       234.000         194.000
  23234032.236   -11131661.14649  -8427053.42845  23234032.744    23234043.062
       215.000         158.000
 01  6 24  0 42  0.0000000  0  8G20G14G25G30G11G 1G29G21
  22497456.533   -16548988.95149 -12887337.35746  22497456.225    22497463.564
       229.000         179.000
  22848729.622   -14841954.34249 -11554549.78646  22848729.554    22848736.554
       227.000         177.000
  20598854.504   -24884391.62949 -19382384.60348  20598854.370    20598860.764
       245.000         217.000
  24425860.486    -3491013.28449  -2713172.27945  24425861.768    24425870.599
       219.000         145.000
  21372720.719   -22540739.36249 -17542469.01747  21372720.274    21372728.044
       241.000         203.000
  23611735.413    -8259306.14649  -6416285.11646  23611734.726    23611746.663
       220.000         165.000
  21833745.161   -15845819.49449 -12101199.82947  21833745.373    21833752.133
       234.000         194.000
  23248901.268   -11053524.77949  -8366168.10845  23248901.640    23248912.850
       216.000         157.000
 01  6 24  0 42 30.0000000  0  8G20G14G25G30G11G 1G29G21
  22481619.725   -16632211.49349 -12952186.00546  22481618.819    22481626.548
       229.000         179.000
  22862235.742   -14770979.46449 -11499244.73746  22862235.444    22862242.916
       227.000         177.000
  20601093.908   -24872623.30349 -19373214.46148  20601093.760    20601100.060
       245.000         217.000
  24427498.192    -3482407.37049  -2706466.34945  24427498.545    24427508.289
       210.000         146.000
  21374886.127   -22529360.05949 -17533602.03447  21374886.064    21374893.087
       241.000         203.000
  23599019.792    -8326126.49149  -6468352.70846  23599018.909    23599030.406
       221.000         165.000
  21843986.859   -15791999.27249 -12059262.02147  21843986.913    21843994.048
       234.000         193.000
  23263823.462   -10975108.53849  -8305064.69645  23263823.600    23263834.817
       214.000         156.000
 01  6 24  0 43  0.0000000  0  8G20G14G25G30G11G 1G29G21
  22465804.390   -16715321.25249 -13016946.77946  22465803.718    22465811.128
       229.000         179.000
  22875749.923   -14699962.12249 -11443906.59946  22875749.668    22875757.485
       226.000         176.000
  20603428.854   -24860352.94549 -19363653.12648  20603428.723    20603435.219
       245.000         217.000
  24429234.403    -3473283.18949  -2699356.58845  24429235.542    24429243.777
       215.000         145.000
  21377158.396   -22517419.34649 -17524297.59447  21377158.011    21377165.556
       241.000         203.000
  23586331.864    -8392801.29249  -6520306.87546  23586330.583    23586342.819
       220.000         165.000
  21854244.781   -15738093.55649 -12017257.59747  21854244.971    21854251.711
       234.000         193.000
  23278798.831   -10896412.77249  -8243743.47745  23278798.893    23278811.219
       216.000         155.000
 01  6 24  0 43 30.0000000  0  8G20G14G25G30G11G 1G29G21
  22450010.720   -16798317.39749 -13081619.01146  22450009.782    22450017.899
       229.000         180.000
  22889271.905   -14628903.82649 -11388536.56046  22889272.017    22889279.050
       225.000         176.000
  20605859.046   -24847582.19149 -19353701.86948  20605859.021    20605865.244
       245.000         217.000
  24431069.329    -3463641.17749  -2691843.28545  24431068.383    24431080.329
       211.000         144.000
  21379537.140   -22504918.97949 -17514557.05947  21379536.775    21379544.553
       241.000         203.000
  23573671.365    -8459331.75249  -6572148.57046  23573670.617    23573682.189
       220.000         165.000
  21864518.776   -15684103.49449 -11975187.45047  21864518.919    21864525.596
       234.000         193.000
  23293827.159   -10817438.80549  -8182205.48845  23293827.339    23293838.769
       216.000         155.000
 01  6 24  0 44  0.0000000  0  8G20G14G25G30G11G 1G29G21
  22434238.916   -16881198.36749 -13146201.50246  22434238.720    22434246.185
       229.000         180.000
  22902801.559   -14557805.35749 -11333135.21146  22902800.901    22902808.707
       226.000         176.000
  20608384.218   -24834312.30449 -19343361.68048  20608384.173    20608390.289
       246.000         217.000
  24433002.821    -3453481.09049  -2683926.33245  24433002.225    24433012.575
       213.000         145.000
  21382022.229   -22491859.72549 -17504381.02747  21382022.024    21382029.536
       241.000         203.000
  23561038.237    -8525718.24149  -6623878.09346  23561036.554    23561049.181
       219.000         163.000
  21874808.590   -15630030.11049 -11933052.37747  21874808.845    21874815.855
       234.000         193.000
  23308908.315   -10738187.42149  -8120451.30645  23308907.769    23308920.366
       212.000         153.000
 01  6 24  0 44 30.0000000  0  8G20G14G25G30G11G 1G29G21
  22418489.557   -16963961.43249 -13210692.12046  22418488.643    22418496.841
       229.000         180.000
  22916338.873   -14486666.31949 -11277702.24246  22916337.999    22916345.800
       225.000         176.000
  20611004.327   -24820543.44749 -19332632.67848  20611004.239    20611010.509
       245.000         217.000
  24435035.070    -3442801.43349  -2675604.53645  24435036.047    24435044.658
       212.000         144.000
  21384613.707   -22478241.44449 -17493769.39147  21384613.430    21384621.052
       241.000         203.000
  23548432.727    -8591959.53449  -6675494.47246  23548431.750    23548443.085
       218.000         163.000
  21885114.394   -15575872.93949 -11890852.01547  21885114.181    21885121.814
       234.000         193.000
  23324042.287   -10658658.35649  -8058480.75945  23324041.982    23324054.236
       212.000         152.000
 01  6 24  0 45  0.0000000  0  9G20G22G14G25G30G11G 1G29G21
  22402762.695   -17046606.35949 -13275090.68146  22402761.801    22402770.066
       230.000         181.000
  24427330.568    -4068492.44149  -3145009.14745  24427329.012    24427348.679
       205.000         138.000
  22929883.460   -14415489.24949 -11222239.65746  22929883.012    22929890.650
       226.000         175.000
  20613718.872   -24806278.36649 -19321517.01148  20613718.829    20613725.042
       246.000         217.000
  24437165.703    -3431604.01149  -2666879.25445  24437166.312    24437175.587
       211.000         145.000
  21387311.117   -22464066.58349 -17482724.06047  21387311.083    21387318.372
       241.000         203.000
  23535854.508    -8658057.70849  -6726999.34245  23535853.568    23535864.486
       218.000         162.000
  21895435.662   -15521634.43949 -11848588.28147  21895435.825    21895442.763
       233.000         192.000
  23339228.577   -10578854.18949  -7996295.85545  23339228.089    23339240.880
       212.000         151.000
 01  6 24  0 45 30.0000000  0  9G20G22G14G25G30G11G 1G29G21
  22387057.710   -17129136.23149 -13339399.58346  22387056.963    22387064.742
       229.000         181.000
  24408658.792    -4166611.82249  -3221465.43045  24408658.028    24408675.920
       204.000         138.000
  22943434.277   -14344279.45849 -11166751.56946  22943433.631    22943441.587
       226.000         175.000
  20616526.764   -24791522.69249 -19310019.06348  20616526.716    20616532.967
       246.000         217.000
  24439394.279    -3419893.05549  -2657753.84145  24439395.209    24439404.248
       213.000         144.000
  21390113.309   -22449340.90149 -17471249.51647  21390113.093    21390120.525
       241.000         203.000
  23523302.503    -8724017.82449  -6778396.64345  23523301.617    23523312.735
       217.000         161.000
  21905771.379   -15467319.85849 -11806265.25647  21905771.380    21905778.435
       233.000         192.000
  23354466.252   -10498780.22349  -7933900.72045  23354466.060    23354478.511
       213.000         151.000
 01  6 24  0 46  0.0000000  0  9G20G22G14G25G30G11G 1G29G21
  22371376.882   -17211539.20349 -13403609.61346  22371375.929    22371383.512
       230.000         182.000
  24389969.035    -4264826.23849  -3297995.77945  24389967.917    24389986.094
       207.000         140.000
  22956993.058   -14273027.74349 -11111230.81146  22956992.585    22957000.504
       226.000         175.000
  20619429.663   -24776267.79549 -19298132.11348  20619429.486    20619435.733
       245.000         217.000
  24441722.422    -3407658.48749  -2648220.40745  24441722.168    24441733.193
       208.000         145.000
  21393022.119   -22434055.04849 -17459338.48247  21393021.799    21393029.417
       241.000         203.000
  23510778.647    -8789830.14549  -6829678.76945  23510777.308    23510789.234
       217.000         161.000
  21916123.351   -15412919.98549 -11763875.78147  21916123.304    21916131.005
       233.000         192.000
  23369757.158   -10418426.98049  -7871287.96645  23369757.094    23369769.142
       213.000         151.000
 01  6 24  0 46 30.0000000  0  9G20G22G14G25G30G11G 1G29G21
  22355720.097   -17293815.79049 -13467721.15346  22355719.537    22355727.592
       230.000         182.000
  24371261.138    -4363135.51049  -3374600.02145  24371259.278    24371278.293
       210.000         141.000
  22970559.326   -14201736.68549 -11055679.40346  22970559.393    22970567.141
       226.000         175.000
  20622426.908   -24760516.97649 -19285858.72848  20622426.751    20622433.075
       245.000         217.000
  24444149.710    -3394902.16949  -2638280.42445  24444149.917    24444161.191
       211.000         145.000
  21396036.931   -22418212.18549 -17446993.41047  21396036.482    21396044.068
       241.000         203.000
  23498282.521    -8855496.95549  -6880847.51145  23498280.879    23498292.616
       216.000         161.000
  21926491.066   -15358437.45249 -11721421.88547  21926491.176    21926498.221
       233.000         192.000
  23385100.492   -10337797.42949  -7808459.90645  23385100.981    23385112.479
       214.000         150.000
 01  6 24  0 47  0.0000000  0  9G20G22G14G25G30G11G 1G29G21
  22340087.622   -17375964.61149 -13531733.14346  22340086.740    22340094.812
       230.000         183.000
  24352535.607    -4461537.21749  -3451276.29745  24352534.211    24352553.683
       208.000         141.000
  22984132.830   -14130407.67849 -11000098.43146  22984132.496    22984139.396
       225.000         174.000
  20625518.277   -24744271.56849 -19273199.94948  20625518.031    20625524.545
       245.000         217.000
  24446676.498    -3381624.30349  -2627934.01045  24446677.377    24446687.533
       213.000         145.000
  21399157.468   -22401813.66449 -17434215.35947  21399157.052    21399164.524
       241.000         203.000
  23485813.885    -8921019.09349  -6931903.53545  23485812.990    23485823.218
       218.000         160.000
  21936874.294   -15303873.54049 -11678904.58247  21936874.278    21936881.466
       234.000         192.000
  23400496.281   -10256892.68349  -7745417.41845  23400496.134    23400508.405
       212.000         150.000
 01  6 24  0 47 30.0000000  0  9G20G22G14G25G30G11G 1G29G21
  22324479.606   -17457984.99749 -13595645.04946  22324478.645    22324486.272
       231.000         183.000
  24333792.885    -4560029.32549  -3528023.01245  24333790.947    24333810.253
       208.000         142.000
  22997713.279   -14059042.13449 -10944488.98546  22997712.795    22997720.497
       225.000         174.000
  20628703.289   -24727534.12549 -19260157.76548  20628703.026    20628709.505
       245.000         217.000
  24449302.182    -3367826.05649  -2617182.13145  24449301.761    24449312.079
       210.000         144.000
  21402383.306   -22384861.79249 -17421006.12647  21402382.909    21402390.677
       241.000         203.000
  23473372.527    -8986397.96849  -6982847.91745  23473371.423    23473383.352
       217.000         160.000
  21947272.644   -15249229.88949 -11636325.14547  21947272.729    21947279.896
       233.000         192.000
  23415944.087   -10175714.78649  -7682162.08145  23415943.450    23415956.167
       213.000         150.000
 01  6 24  0 48  0.0000000  0  9G20G22G14G25G30G11G 1G29G21
  22308896.437   -17539874.83949 -13659455.24546  22308895.583    22308903.298
       231.000         184.000
  24315033.521    -4658608.89549  -3604837.87045  24315031.284    24315051.222
       209.000         141.000
  23011300.562   -13987640.68249 -10888851.54946  23011300.108    23011307.876
       224.000         174.000
  20631981.750   -24710305.61049 -19246732.92948  20631981.646    20631987.745
       245.000         217.000
  24452027.020    -3353506.97449  -2606024.40345  24452026.724    24452037.671
       207.000         143.000
  21405714.351   -22367357.07549 -17407366.10747  21405713.873    21405721.802
       241.000         202.000
  23460958.485    -9051633.44849  -7033680.58245  23460957.767    23460968.838
       217.000         160.000
  21957686.162   -15194506.78649 -11593683.79447  21957686.080    21957693.099
       233.000         192.000
  23431443.783   -10094264.09049  -7618694.17845  23431443.020    23431456.582
       214.000         150.000
 01  6 24  0 48 30.0000000  0  9G20G22G14G25G30G11G 1G29G21
  22293338.542   -17621631.76549 -13723161.85846  22293337.494    22293345.960
       230.000         184.000
  24296258.052    -4757273.25049  -3681718.79845  24296256.512    24296275.570
       210.000         142.000
  23024894.625   -13916203.61649 -10833186.37546  23024894.257    23024901.207
       225.000         174.000
  20635353.541   -24692586.67149 -19232925.94148  20635353.442    20635359.629
       245.000         217.000
  24454851.060    -3338666.49049  -2594460.37145  24454851.519    24454861.549
       211.000         143.000
  21409150.511   -22349299.90149 -17393295.59547  21409150.184    21409158.053
       241.000         202.000
  23448571.755    -9116725.34749  -7084401.35745  23448571.152    23448582.002
       216.000         160.000
  21968114.701   -15139704.43349 -11550980.68847  21968114.421    21968121.639
       233.000         191.000
  23446995.294   -10012541.04049  -7555014.04545  23446995.203    23447007.642
       213.000         150.000
 01  6 24  0 49  0.0000000  0  9G20G22G14G25G30G11G 1G29G21
  22277806.171   -17703254.61649 -13786764.00646  22277805.696    22277812.659
       230.000         184.000
  24277466.851    -4856020.11049  -3758664.01945  24277464.741    24277483.977
       211.000         143.000
  23038495.327   -13844731.82849 -10777494.13646  23038494.912    23038502.036
       224.000         173.000
  20638818.313   -24674378.93549 -19218738.07948  20638818.144    20638824.443
       245.000         217.000
  24457774.259    -3323304.83749  -2582490.25445  24457773.895    24457784.973
       208.000         144.000
  21412691.525   -22330691.92649 -17378795.89847  21412691.512    21412699.154
       241.000         202.000
  23436212.249    -9181674.20249  -7135010.68145  23436211.129    23436222.749
       217.000         160.000
  21978558.172   -15084823.69149 -11508216.49847  21978558.501    21978565.306
       233.000         191.000
  23462598.430    -9930546.85849  -7491122.65245  23462598.591    23462610.239
       214.000         151.000
 01  6 24  0 49 30.0000000  0  9G20G22G14G25G30G11G 1G29G21
  22262299.602   -17784741.87749 -13850260.49446  22262299.111    22262306.743
       231.000         185.000
  24258660.546    -4954846.69249  -3835671.37945  24258659.420    24258677.026
       211.000         143.000
  23052102.384   -13773226.42749 -10721775.71146  23052101.622    23052109.824
       225.000         173.000
  20642375.776   -24655684.30549 -19204170.81848  20642375.601    20642382.015
       245.000         217.000
  24460796.565    -3307422.61749  -2570114.50445  24460796.613    24460806.896
       211.000         145.000
  21416337.077   -22311534.47849 -17363868.03247  21416336.809    21416344.342
       241.000         202.000
  23423879.799    -9246480.74349  -7185509.11345  23423878.896    23423890.497
       216.000         159.000
  21989016.336   -15029865.68149 -11465392.10847  21989016.281    21989023.336
       233.000         191.000
  23478252.837    -9848283.09049  -7427021.19745  23478252.914    23478265.783
       214.000         152.000
 01  6 24  0 50  0.0000000  0  9G20G22G14G25G30G11G 1G29G21
  22246819.309   -17866091.16249 -13913649.47846  22246818.578    22246826.245
       231.000         185.000
  24239839.722    -5053749.55549  -3912738.16645  24239839.019    24239857.000
       211.000         143.000
  23065715.862   -13701687.40949 -10666031.09746  23065715.378    23065723.185
       224.000         172.000
  20646025.876   -24636502.91549 -19189224.26848  20646025.784    20646032.019
       245.000         217.000
  24463918.131    -3291018.92349  -2557332.39045  24463919.041    24463928.737
       208.000         144.000
  21420087.062   -22291828.24849 -17348512.55247  21420086.942    21420094.546
       241.000         202.000
  23411574.499    -9311144.69149  -7235896.42245  23411574.124    23411584.559
       218.000         160.000
  21999489.179   -14974830.59649 -11422507.66147  21999489.350    21999496.238
       233.000         191.000
  23493958.643    -9765749.40949  -7362709.41745  23493957.991    23493970.865
       214.000         152.000
 01  6 24  0 50 30.0000000  0  9G20G22G14G25G30G11G 1G29G21
  22231365.566   -17947300.75949 -13976929.62046  22231364.726    22231372.595
       231.000         186.000
  24221004.772    -5152726.33349  -3989862.55545  24221002.549    24221021.078
       211.000         143.000
  23079335.598   -13630115.59549 -10610260.92046  23079334.889    23079343.279
       224.000         172.000
  20649768.295   -24616836.17849 -19173899.52348  20649768.153    20649774.489
       245.000         217.000
  24467138.790    -3274094.21049  -2544144.30245  24467138.153    24467147.864
       203.000         143.000
  21423941.277   -22271574.38749 -17332730.33947  21423940.804    21423948.612
       241.000         202.000
  23399296.279    -9375666.52649  -7286173.02145  23399296.334    23399306.419
       218.000         160.000
  22009976.574   -14919719.06549 -11379563.64947  22009976.690    22009983.452
       232.000         191.000
  23509715.471    -9682947.46949  -7298188.61745  23509715.593    23509727.397
       216.000         152.000
 01  6 24  0 51  0.0000000  0  9G20G22G14G25G30G11G 1G29G21
  22215938.987   -18028367.70949 -14040098.60446  22215938.276    22215945.732
       232.000         186.000
  24202156.359    -5251773.66749  -4067041.92745  24202155.227    24202173.268
       211.000         143.000
  23092961.641   -13558510.41349 -10554464.74146  23092961.206    23092969.178
       224.000         172.000
  20653602.934   -24596685.00549 -19158197.29748  20653602.798    20653609.197
       245.000         217.000
  24470458.855    -3256647.32049  -2530549.31645  24470459.493    24470468.808
       205.000         143.000
  21427899.689   -22250772.75349 -17316521.29347  21427899.354    21427906.993
       241.000         202.000
  23387045.272    -9440045.42049  -7336338.22845  23387044.806    23387055.708
       218.000         161.000
  22020478.642   -14864530.53149 -11336559.63347  22020478.270    22020485.967
       232.000         191.000
  23525523.481    -9599876.39849  -7233458.10245  23525523.439    23525536.571
       216.000         152.000
 01  6 24  0 51 30.0000000  0  9G20G22G14G25G30G11G 1G29G21
  22200539.597   -18109291.85249 -14103156.30746  22200539.137    22200546.352
       231.000         186.000
  24183294.871    -5350890.15949  -4144275.16145  24183293.364    24183309.992
       210.000         144.000
  23106593.595   -13486874.16749 -10498644.36246  23106593.698    23106600.626
       224.000         171.000
  20657529.205   -24576052.14849 -19142119.73448  20657529.180    20657535.411
       245.000         217.000
  24473877.936    -3238679.93249  -2516548.75645  24473877.967    24473888.544
       206.000         144.000
  21431961.814   -22229426.38149 -17299887.77747  21431961.512    21431969.127
       241.000         202.000
  23374821.117    -9504283.19149  -7386393.47345  23374820.528    23374831.612
       219.000         161.000
  22030994.935   -14809267.21549 -11293497.34247  22030995.049    22031002.169
       233.000         190.000
  23541382.246    -9516538.71049  -7168519.82345  23541382.160    23541395.787
       214.000         152.000
 01  6 24  0 52  0.0000000  0  9G20G22G14G25G30G11G 1G29G21
  22185168.004   -18190069.85049 -14166100.13246  22185167.248    22185174.984
       232.000         187.000
  24164421.097    -5450071.03949  -4221558.59545  24164419.870    24164437.107
       210.000         144.000
  23120231.646   -13415205.78649 -10442798.92746  23120232.126    23120238.623
       224.000         171.000
  20661547.274   -24554937.06749 -19125666.41148  20661547.298    20661553.585
       245.000         217.000
  24477396.154    -3220190.40349  -2502141.32045  24477395.821    24477406.262
       204.000         143.000
  21436127.640   -22207534.84749 -17282829.46947  21436127.458    21436135.041
       241.000         202.000
  23362624.079    -9568378.60249  -7436337.78245  23362623.053    23362634.587
       220.000         162.000
  22041525.662   -14753928.04749 -11250375.94147  22041525.469    22041532.725
       232.000         190.000
  23557291.911    -9432933.72749  -7103373.27845  23557291.606    23557303.941
       216.000         152.000
 01  6 24  0 52 30.0000000  0  9G20G22G14G25G30G11G 1G29G21
  22169824.426   -18270700.56949 -14228929.18846  22169823.361    22169831.221
       233.000         187.000
  24145535.402    -5549314.40249  -4298890.68945  24145533.725    24145551.240
       210.000         144.000
  23133875.572   -13343506.87549 -10386929.71746  23133875.591    23133883.430
       224.000         171.000
  20665656.642   -24533342.24149 -19108839.25948  20665656.434    20665662.821
       245.000         217.000
  24481013.709    -3201180.02849  -2487328.03045  24481013.627    24481023.930
       204.000         143.000
  21440396.764   -22185100.39749 -17265348.10447  21440396.622    21440404.006
       241.000         202.000
  23350453.880    -9632332.90349  -7486172.14145  23350453.308    23350464.238
       220.000         162.000
  22052070.495   -14698514.47949 -11207196.56947  22052070.699    22052077.383
       232.000         190.000
  23573252.044    -9349063.16849  -7038019.78545  23573252.617    23573265.342
       215.000         153.000
 01  6 24  0 53  0.0000000  0  9G20G22G14G25G30G11G 1G29G21
  22154509.274   -18351181.99749 -14291641.91946  22154508.253    22154516.352
       233.000         187.000
  24126638.324    -5648617.61149  -4376269.42645  24126636.787    24126654.468
       212.000         144.000
  23147525.226   -13271777.81449 -10331037.01246  23147524.182    23147531.739
       224.000         170.000
  20669857.081   -24511268.60649 -19091639.00548  20669856.856    20669863.197
       245.000         216.000
  24484730.364    -3181648.44349  -2472108.59945  24484730.454    24484741.410
       205.000         142.000
  21444769.045   -22162123.90749 -17247444.37147  21444769.005    21444776.335
       241.000         202.000
  23338310.532    -9696146.18349  -7535896.60746  23338309.674    23338320.131
       219.000         163.000
  22062629.479   -14643026.91049 -11163959.54447  22062629.360    22062637.047
       232.000         190.000
  23589262.609    -9264927.92849  -6972460.05945  23589262.433    23589275.090
       216.000         153.000
 01  6 24  0 53 30.0000000  0  9G20G22G14G25G30G11G 1G29G21
  22139222.833   -18431512.52249 -14354237.06847  22139221.926    22139229.420
       233.000         188.000
  24107730.254    -5747978.33249  -4453692.95445  24107728.097    24107746.884
       208.000         144.000
  23161180.447   -13200019.35549 -10275121.39246  23161180.269    23161187.026
       223.000         170.000
  20674148.325   -24488717.87549 -19074066.99148  20674148.115    20674154.506
       245.000         216.000
  24488546.216    -3161596.18649  -2456483.46845  24488546.572    24488556.025
       202.000         143.000
  21449244.249   -22138606.73349 -17229119.32747  21449243.857    21449251.483
       240.000         202.000
  23326193.863    -9759818.91049  -7585511.55746  23326192.993    23326203.555
       220.000         164.000
  22073202.374   -14587466.12349 -11120665.46147  22073202.170    22073209.557
       232.000         190.000
  23605323.401    -9180528.78649  -6906694.69945  23605322.975    23605336.425
       215.000         153.000
 01  6 24  0 54  0.0000000  0  9G20G22G14G25G30G11G 1G29G21
  22123965.608   -18511689.42449 -14416712.50947  22123964.798    22123972.080
       233.000         188.000
  24088812.101    -5847392.57249  -4531158.19445  24088811.073    24088827.549
       211.000         143.000
  23174841.342   -13128231.27349 -10219182.68146  23174841.271    23174847.993
       223.000         169.000
  20678530.242   -24465690.70149 -19056123.72248  20678530.151    20678536.315
       245.000         216.000
  24492461.289    -3141022.51249  -2440452.01445  24492462.011    24492471.765
       202.000         142.000
  21453822.213   -22114549.30649 -17210373.31447  21453821.928    21453829.558
       241.000         202.000
  23314104.090    -9823350.55749  -7635016.57046  23314103.772    23314113.957
       221.000         165.000
  22083789.222   -14531831.98049 -11077314.21447  22083789.011    22083796.618
       232.000         189.000
  23621434.250    -9095866.38849  -6840724.20745  23621433.912    23621446.307
       214.000         153.000
 01  6 24  0 54 30.0000000  0  9G20G22G14G25G30G11G 1G29G21
  22108737.936   -18591711.08449 -14479066.97947  22108737.320    22108744.770
       233.000         188.000
  24069884.239    -5946857.63249  -4608663.03845  24069882.957    24069899.207
       208.000         144.000
  23188507.704   -13056414.34849 -10163221.52746  23188507.790    23188515.396
       223.000         169.000
  20683002.466   -24442188.80849 -19037810.54648  20683002.305    20683008.639
       245.000         216.000
  24496475.383    -3119927.93049  -2424014.68545  24496474.883    24496485.307
       203.000         141.000
  21458502.667   -22089953.44449 -17191207.74347  21458502.558    21458510.057
       240.000         202.000
  23302041.061    -9886741.67449  -7684412.07446  23302040.693    23302050.970
       221.000         166.000
  22094389.951   -14476124.98849 -11033906.21447  22094389.972    22094397.059
       232.000         189.000
  23637595.111    -9010941.38649  -6774549.09045  23637595.393    23637608.121
       213.000         152.000
 01  6 24  0 55  0.0000000  0  9G20G22G14G25G30G11G 1G29G21
  22093540.270   -18671575.25149 -14541298.72547  22093539.701    22093546.990
       233.000         188.000
  24050947.270    -6046370.36449  -4686205.02545  24050945.427    24050963.634
       206.000         144.000
  23202179.458   -12984568.91949 -10107238.13946  23202179.645    23202186.503
       223.000         168.000
  20687564.843   -24418213.16549 -19019128.21148  20687564.667    20687571.017
       245.000         216.000
  24500588.660    -3098312.45149  -2407171.45245  24500589.655    24500599.762
       200.000         140.000
  21463285.416   -22064820.11749 -17171623.36947  21463285.147    21463293.021
       241.000         202.000
  23290004.716    -9949992.44849  -7733698.22746  23290004.056    23290014.725
       222.000         168.000
  22105004.426   -14420345.68649 -10990441.86347  22105004.424    22105011.536
       232.000         189.000
  23653805.717    -8925754.75949  -6708170.09245  23653805.291    23653818.172
       211.000         152.000
 01  6 24  0 55 30.0000000  0  9G20G22G14G25G30G11G 1G29G21
  22078372.870   -18751280.12749 -14603406.35247  22078372.091    22078379.730
       233.000         189.000
  24032001.625    -6145928.42649  -4763782.32045  24031999.623    24032016.417
       207.000         144.000
  23215856.597   -12912695.38249 -10051232.84746  23215856.957    23215863.098
       222.000         167.000
  20692217.110   -24393765.13149 -19000077.78348  20692216.906    20692223.427
       244.000         216.000
  24504800.845    -3076176.16749  -2389922.39445  24504801.259    24504811.627
       199.000         139.000
  21468170.175   -22039150.61149 -17151621.19247  21468169.875    21468177.828
       241.000         202.000
  23277995.075   -10013102.96649  -7782875.08846  23277994.640    23278004.099
       222.000         168.000
  22115632.564   -14364494.34349 -10946921.37447  22115632.366    22115639.761
       232.000         189.000
  23670065.945    -8840307.19549  -6641587.80745  23670066.064    23670079.260
       212.000         151.000
 01  6 24  0 56  0.0000000  0  9G20G22G14G25G30G11G 1G29G21
  22063236.181   -18830823.65949 -14665388.25347  22063235.150    22063242.782
       234.000         189.000
  24013047.962    -6245528.84649  -4841392.62545  24013046.504    24013063.103
       205.000         144.000
  23229538.903   -12840794.35949  -9995206.14246  23229538.495    23229546.551
       222.000         167.000
  20696959.040   -24368846.20049 -18980660.42048  20696958.933    20696965.151
       245.000         216.000
  24509112.630    -3053519.31049  -2372267.70745  24509112.754    24509123.724
       199.000         139.000
  21473156.736   -22012946.12149 -17131202.14547  21473156.233    21473164.410
       240.000         202.000
  23266012.056   -10076073.53349  -7831942.90246  23266011.276    23266021.640
       223.000         169.000
  22126274.384   -14308571.42649 -10903345.11347  22126274.309    22126282.109
       232.000         189.000
  23686375.602    -8754599.88949  -6574803.10345  23686375.583    23686389.186
       211.000         151.000
 01  6 24  0 56 30.0000000  0  9G20G22G14G25G30G11G 1G29G21
  22048130.476   -18910204.43749 -14727243.33547  22048129.448    22048137.042
       234.000         189.000
  23994086.829    -6345168.86549  -4919033.78045  23994085.111    23994101.742
       205.000         145.000
  23243226.288   -12768866.84849  -9939158.80346  23243226.299    23243233.272
       221.000         166.000
  20701790.147   -24343458.42349 -18960877.72348  20701790.149    20701796.336
       245.000         216.000
  24513523.066    -3030342.80049  -2354208.07445  24513522.551    24513532.782
       201.000         139.000
  21478244.701   -21986208.73249 -17110367.85547  21478244.491    21478252.317
       241.000         201.000
  23254055.496   -10138905.07249  -7880902.38746  23254054.083    23254065.539
       222.000         169.000
  22136929.600   -14252578.13049 -10859714.01447  22136930.042    22136936.883
       231.000         188.000
  23702734.507    -8668634.11549  -6507817.00045  23702734.119    23702747.276
       210.000         151.000
 01  6 24  0 57  0.0000000  0  9G20G22G14G25G30G11G 1G29G21
  22033056.346   -18989419.27749 -14788969.11347  22033055.553    22033062.720
       234.000         190.000
  23975118.858    -6444844.25349  -4996702.48245  23975116.882    23975134.438
       206.000         145.000
  23256918.838   -12696912.19649  -9883090.32146  23256919.200    23256927.124
       221.000         166.000
  20706710.434   -24317602.10849 -18940729.93148  20706710.283    20706716.747
       245.000         216.000
  24518032.406    -3006645.59649  -2335742.72945  24518031.340    24518042.219
       201.000         138.000
  21483434.104   -21958938.38349 -17089118.26747  21483433.718    21483441.790
       241.000         201.000
  23242125.572   -10201596.56049  -7929752.74446  23242124.742    23242135.855
       223.000         169.000
  22147598.381   -14196513.42449 -10816027.27647  22147598.187    22147605.887
       231.000         188.000
  23719142.607    -8582409.83649  -6440629.46445  23719143.229    23719155.622
       209.000         151.000
 01  6 24  0 57 30.0000000  0  9G20G22G14G25G30G11G 1G29G21
  22018013.907   -19068467.47049 -14850565.03847  22018012.837    22018020.190
       235.000         190.000
  23956144.471    -6544553.64249  -5074397.68245  23956142.538    23956159.785
       207.000         146.000
  23270616.267   -12624931.97049  -9827001.91346  23270616.597    23270622.629
       221.000         166.000
  20711719.369   -24291280.00649 -18920219.19348  20711719.095    20711725.612
       245.000         216.000
  24522640.538    -2982429.47649  -2316873.02245  24522640.139    24522650.391
       199.000         138.000
  21488724.367   -21931137.87249 -17067455.57447  21488724.276    21488731.911
       241.000         201.000
  23230221.999   -10264149.35249  -7978495.02746  23230221.033    23230231.775
       223.000         170.000
  22158280.375   -14140379.21849 -10772286.38447  22158280.152    22158287.935
       231.000         188.000
  23735599.499    -8495928.94249  -6373241.96445  23735599.466    23735613.562
       208.000         150.000
 01  6 24  0 58  0.0000000  0  9G20G22G14G25G30G11G 1G29G21
  22003003.757   -19147346.04049 -14912028.78147  22003002.978    22003010.272
       234.000         190.000
  23937164.317    -6644293.47949  -5152116.61745  23937162.317    23937179.688
       207.000         145.000
  23284318.681   -12552925.73449  -9770893.22846  23284318.372    23284324.973
       221.000         166.000
  20716816.780   -24264492.78349 -18899346.02048  20716816.766    20716823.065
       245.000         216.000
  24527347.548    -2957693.49149  -2297598.23545  24527348.530    24527358.555
       203.000         138.000
  21494115.501   -21902807.51649 -17045380.01147  21494115.024    21494123.031
       240.000         201.000
  23218344.926   -10326562.91249  -8027128.79646  23218344.605    23218354.461
       223.000         170.000
  22168975.731   -14084174.82349 -10728490.79646  22168975.877    22168982.894
       231.000         187.000
  23752105.211    -8409191.40649  -6305654.48645  23752105.709    23752118.916
       210.000         149.000
 01  6 24  0 58 30.0000000  0  9G20G22G14G25G30G11G 1G29G21
  21988026.281   -19226053.01649 -14973358.82647  21988025.826    21988033.036
       234.000         190.000
  23918178.913    -6744060.53149  -5229856.75545  23918176.911    23918193.916
       206.000         145.000
  23298025.940   -12480893.93149  -9714764.61946  23298025.962    23298033.599
       221.000         166.000
  20722002.555   -24237241.42949 -18878111.19348  20722002.576    20722008.660
       245.000         216.000
  24532153.398    -2932437.84649  -2277918.52545  24532153.094    24532163.404
       200.000         137.000
  21499607.193   -21873948.72649 -17022892.68747  21499606.862    21499614.994
       240.000         201.000
  23206494.420   -10388837.21949  -8075654.07846  23206493.779    23206503.752
       222.000         170.000
  22179684.378   -14027900.72949 -10684640.90446  22179684.404    22179691.908
       231.000         187.000
  23768659.645    -8322198.05549  -6237867.65745  23768659.380    23768672.679
       206.000         149.000
 01  6 24  0 59  0.0000000  0  9G20G22G14G25G30G11G 1G29G21
  21973081.741   -19304586.73449 -15034553.85947  21973081.053    21973088.024
       235.000         191.000
  23899188.900    -6843851.78149  -5307615.74145  23899186.977    23899203.683
       209.000         147.000
  23311737.886   -12408837.49949  -9658616.83646  23311737.900    23311745.476
       221.000         166.000
  20727276.267   -24209527.93049 -18856516.24748  20727276.165    20727282.498
       245.000         216.000
  24537058.180    -2906663.81449  -2257834.87645  24537057.608    24537067.334
       201.000         138.000
  21505199.042   -21844563.52949 -16999995.17447  21505198.771    21505206.408
       241.000         201.000
  23194670.214   -10450973.12649  -8124071.51246  23194669.664    23194680.177
       222.000         170.000
  22190406.112   -13971557.83049 -10640737.39546  22190406.451    22190413.868
       231.000         187.000
  23785262.377    -8234950.80449  -6169883.00745  23785262.605    23785276.579
       204.000         147.000
 01  6 24  0 59 30.0000000  0  9G20G22G14G25G30G11G 1G29G21
  21958170.519   -19382945.49449 -15095612.56647  21958170.065    21958177.022
       234.000         191.000
  23880194.822    -6943664.84049  -5385391.72645  23880193.116    23880209.445
       209.000         148.000
  23325454.370   -12336757.19849  -9602450.44446  23325453.944    23325461.217
       220.000         166.000
  20732637.497   -24181354.33449 -18834562.79148  20732637.504    20732643.677
       245.000         216.000
  24542061.347    -2880371.83649  -2237347.59345  24542061.594    24542071.995
       199.000         138.000
  21510890.732   -21814653.66849 -16976688.83447  21510890.480    21510898.254
       240.000         201.000
  23182872.303   -10512971.27349  -8172381.60246  23182870.822    23182882.158
       220.000         171.000
  22201140.778   -13915146.83549 -10596780.82746  22201141.060    22201148.655
       229.000         186.000
  23801913.291    -8147450.84849  -6101701.43845  23801913.678    23801926.020
       204.000         146.000
 01  6 24  1  0  0.0000000  0  9G20G22G14G25G30G11G 1G29G21
  21943293.111   -19461126.39549 -15156532.68547  21943292.205    21943299.445
       235.000         191.000
  23861197.308    -7043496.00849  -5463181.83045  23861195.598    23861211.469
       209.000         149.000
  23339175.563   -12264652.15649  -9546264.77846  23339175.805    23339182.599
       221.000         166.000
  20738086.271   -24152720.80249 -18812250.94048  20738086.292    20738092.516
       245.000         216.000
  24547163.063    -2853561.00549  -2216456.06545  24547162.683    24547174.263
       195.000         138.000
  21516682.248   -21784219.19849 -16952973.70447  21516682.051    21516689.766
       241.000         201.000
  23171100.662   -10574830.76249  -8220583.65646  23171100.341    23171110.164
       222.000         171.000
  22211888.560   -13858666.93849 -10552770.56246  22211888.470    22211896.072
       230.000         186.000
  23818612.293    -8059697.60149  -6033322.50045  23818612.418    23818625.649
       206.000         145.000
 01  6 24  1  0 30.0000000  0  9G20G22G14G25G30G11G 1G29G21
  21928449.800   -19539128.22149 -15217313.26147  21928449.031    21928456.308
       235.000         191.000
  23842196.646    -7143343.31349  -5540984.50745  23842194.392    23842211.662
       210.000         150.000
  23352901.170   -12192523.92849  -9490061.04746  23352901.353    23352909.441
       221.000         166.000
  20743622.056   -24123629.95349 -18789582.74148  20743621.929    20743628.218
       245.000         216.000
  24552363.394    -2826232.88049  -2195161.45345  24552364.082    24552374.258
       199.000         139.000
  21522573.030   -21753263.09149 -16928852.11047  21522572.763    21522580.254
       240.000         201.000
  23159355.167   -10636552.87949  -8268678.65846  23159354.383    23159364.329
       222.000         171.000
  22222649.189   -13802119.47349 -10508707.65446  22222649.100    22222656.865
       230.000         186.000
  23835359.165    -7971693.03349  -5964747.72345  23835359.304    23835372.932
       208.000         144.000
 01  6 24  1  1  0.0000000  0  9G20G22G14G25G30G11G 1G29G21
  21913641.068   -19616948.42449 -15277952.31547  21913640.213    21913647.012
       235.000         192.000
  23823193.692    -7243202.84649  -5618796.71245  23823191.568    23823207.960
       209.000         151.000
  23366631.222   -12120372.46849  -9433839.20946  23366630.918    23366638.611
       220.000         166.000
  20749244.648   -24094082.98649 -18766559.12548  20749244.657    20749250.922
       245.000         216.000
  24557662.125    -2798387.62349  -2173463.86045  24557662.374    24557672.889
       195.000         139.000
  21528562.883   -21721786.30649 -16904324.79047  21528562.826    21528570.359
       241.000         201.000
  23147635.928   -10698137.34449  -8316666.38946  23147635.016    23147644.981
       223.000         171.000
  22233422.709   -13745504.43549 -10464592.08946  22233422.832    22233430.179
       230.000         186.000
  23852153.729    -7883437.83949  -5895977.64745  23852153.558    23852167.757
       205.000         144.000
 01  6 24  1  1 30.0000000  0  8G20G22G14G25G11G 1G29G21
  21898867.339   -19694584.70449 -15338448.06147  21898866.650    21898873.932
       235.000         192.000
  23804189.131    -7343071.31149  -5696615.87645  23804187.394    23804203.467
       212.000         151.000
  23380365.611   -12048197.95049  -9377599.40946  23380365.610    23380373.217
       222.000         166.000
  20754953.828   -24064081.08449 -18743181.02048  20754953.635    20754960.161
       245.000         216.000
  21534651.643   -21689790.01449 -16879392.66547  21534651.221    21534659.204
       241.000         201.000
  23135942.798   -10759584.36949  -8364547.02846  23135941.821    23135952.599
       223.000         171.000
  22244209.038   -13688822.16049 -10420424.12746  22244208.885    22244216.373
       229.000         185.000
  23868995.792    -7794933.17549  -5827013.20545  23868996.348    23869009.710
       208.000         144.000
 01  6 24  1  2  0.0000000  0  8G20G22G14G25G11G 1G29G21
  21884128.986   -19772034.89149 -15398798.79147  21884128.463    21884135.029
       236.000         192.000
  23785183.373    -7442945.75149  -5774439.69645  23785181.601    23785196.663
       211.000         152.000
  23394104.365   -11976000.54049  -9321341.76646  23394104.409    23394111.711
       222.000         166.000
  20760749.328   -24033625.56849 -18719449.44548  20760749.282    20760755.510
       245.000         216.000
  21540838.914   -21657275.88949 -16854057.02847  21540838.638    21540846.224
       240.000         201.000
  23124275.798   -10820894.12249  -8412320.70446  23124275.577    23124286.250
       222.000         171.000
  22255008.171   -13632072.60549 -10376203.74146  22255008.158    22255015.576
       229.000         185.000
  23885885.204    -7706179.67349  -5757854.84145  23885885.516    23885899.079
       208.000         144.000
 01  6 24  1  2 30.0000000  0  8G20G22G14G25G11G 1G29G21
  21869426.271   -19849297.93849 -15459003.70447  21869425.742    21869432.656
       236.000         192.000
  23766176.733    -7542824.63649  -5852266.97445  23766175.329    23766190.334
       213.000         152.000
  23407847.208   -11903781.59949  -9265067.34846  23407847.105    23407854.731
       222.000         166.000
  20766630.557   -24002719.42749 -18695366.73648  20766630.491    20766636.724
       245.000         216.000
  21547124.274   -21624246.19049 -16828319.64247  21547123.996    21547131.970
       240.000         200.000
  23112634.739   -10882067.67049  -8459988.26746  23112634.516    23112643.979
       222.000         171.000
  22265819.791   -13575257.27449 -10331932.10246  22265820.113    22265827.007
       229.000         185.000
  23902821.592    -7617179.23349  -5688504.06045  23902821.331    23902835.715
       208.000         143.000
 01  6 24  1  3  0.0000000  0  8G20G22G14G25G11G 1G29G21
  21854759.723   -19926370.76649 -15519060.39647  21854758.935    21854766.037
       236.000         193.000
  23747170.131    -7642703.41649  -5930094.17245  23747168.967    23747183.645
       213.000         153.000
  23421594.316   -11831540.30449  -9208775.52046  23421594.058    23421602.010
       220.000         167.000
  20772597.512   -23971362.93649 -18670933.10448  20772597.410    20772603.737
       245.000         216.000
  21553507.655   -21590701.53949 -16802181.00547  21553507.567    21553515.152
       240.000         200.000
  23101019.754   -10943104.11249  -8507548.98546  23101018.997    23101029.518
       222.000         171.000
  22276644.131   -13518375.18649 -10287608.44346  22276644.240    22276651.679
       228.000         184.000
  23919805.000    -7527931.70049  -5618960.76145  23919805.503    23919818.382
       211.000         143.000
 01  6 24  1  3 30.0000000  0  8G20G22G14G25G11G 1G29G21
  21840129.687   -20003252.03949 -15578967.82047  21840129.423    21840135.914
       236.000         193.000
  23728164.027    -7742579.43349  -6007919.21845  23728161.526    23728177.267
       213.000         153.000
  23435345.475   -11759277.90849  -9152467.24746  23435345.208    23435353.440
       221.000         167.000
  20778649.796   -23939557.90449 -18646149.96048  20778649.710    20778655.985
       245.000         216.000
  21559988.572   -21556644.25949 -16775642.91147  21559988.421    21559996.200
       240.000         200.000
  23089430.656   -11004004.58949  -8555003.75346  23089429.531    23089440.388
       222.000         171.000
  22287480.900   -13461427.45849 -10243233.63746  22287480.748    22287488.500
       229.000         184.000
  23936834.986    -7438439.45149  -5549226.76745  23936835.274    23936848.798
       211.000         142.000
 01  6 24  1  4  0.0000000  0  8G20G22G14G25G11G 1G29G21
  21825536.645   -20079938.78349 -15638723.66447  21825535.646    21825542.842
       236.000         193.000
  23709159.155    -7842449.09749  -6085739.33145  23709157.322    23709172.972
       213.000         153.000
  23449100.719   -11686994.12449  -9096142.31546  23449100.915    23449109.323
       221.000         167.000
  20784787.211   -23907305.52649 -18621018.23548  20784787.181    20784793.346
       245.000         216.000
  21566566.828   -21522075.57049 -16748706.32047  21566566.437    21566574.387
       240.000         200.000
  23077867.512   -11064768.70949  -8602352.28346  23077866.715    23077876.411
       222.000         171.000
  22298330.229   -13404413.94249 -10198807.55846  22298329.847    22298337.890
       228.000         183.000
  23953911.399    -7348702.80149  -5479302.31345  23953911.182    23953925.264
       210.000         142.000
 01  6 24  1  4 30.0000000  0  8G20G22G14G25G11G 1G29G21
  21810980.763   -20156430.14349 -15698327.26547  21810979.583    21810986.807
       236.000         193.000
  23690155.737    -7942310.90749  -6163553.31845  23690153.958    23690169.340
       214.000         153.000
  23462859.721   -11614690.54549  -9039801.96146  23462859.440    23462867.752
       222.000         167.000
  20791009.209   -23874608.87249 -18595540.31648  20791009.014    20791015.415
       245.000         216.000
  21573241.875   -21486998.10249 -16721373.27247  21573241.855    21573249.536
       240.000         200.000
  23066330.056   -11125397.81749  -8649595.60046  23066329.442    23066339.667
       222.000         170.000
  22309191.829   -13347336.06949 -10154331.33446  22309191.958    22309200.003
       228.000         183.000
  23971034.069    -7258723.38249  -5409188.71745  23971033.978    23971047.558
       211.000         142.000
 01  6 24  1  5  0.0000000  0  8G20G22G14G25G11G 1G29G21
  21796462.728   -20232722.60349 -15757775.88147  21796462.043    21796469.213
       236.000         193.000
  23671154.682    -8042160.46949  -6241357.76745  23671152.752    23671168.359
       213.000         153.000
  23476622.681   -11542366.03749  -8983445.29146  23476622.492    23476630.576
       219.000         166.000
  20797315.594   -23841468.45449 -18569716.61548  20797315.478    20797321.740
       245.000         216.000
  21580013.731   -21451411.99949 -16693643.88347  21580013.388    21580021.445
       240.000         200.000
  23054818.525   -11185890.75349  -8696732.82746  23054818.221    23054827.563
       222.000         171.000
  22320065.916   -13290192.62749 -10109804.01346  22320065.760    22320073.201
       228.000         183.000
  23988203.019    -7168500.76349  -5338885.60045  23988202.823    23988217.365
       211.000         141.000
 01  6 24  1  5 30.0000000  0  8G20G22G14G25G11G 1G29G21
  21781982.783   -20308815.04149 -15817068.63647  21781982.038    21781989.346
       235.000         193.000
  23652156.478    -8141994.99849  -6319150.48445  23652155.144    23652169.118
       213.000         153.000
  23490389.406   -11470021.56149  -8927073.07146  23490388.632    23490397.067
       220.000         166.000
  20803706.112   -23807886.03849 -18543548.49148  20803706.004    20803712.288
       245.000         216.000
  21586881.885   -21415319.84049 -16665520.17147  21586881.723    21586889.477
       240.000         200.000
  23043332.742   -11246248.54749  -8743764.74546  23043332.333    23043342.203
       223.000         171.000
  22330952.258   -13232984.72549 -10065226.47046  22330952.333    22330959.185
       227.000         182.000
  24005417.858    -7078037.26249  -5268394.80645  24005417.445    24005431.432
       213.000         139.000
 01  6 24  1  6  0.0000000  0  8G20G22G14G25G11G 1G29G21
  21767541.414   -20384704.68449 -15876203.37347  21767540.645    21767547.838
       236.000         194.000
  23633161.849    -8241810.93149  -6396928.72645  23633160.803    23633173.869
       214.000         153.000
  23504159.940   -11397657.24849  -8870685.38246  23504159.419    23504167.856
       221.000         166.000
  20810180.409   -23773863.43249 -18517037.36948  20810180.202    20810186.504
       245.000         216.000
  21593846.080   -21378722.99549 -16637003.19247  21593845.692    21593853.707
       240.000         200.000
  23031872.658   -11306471.18949  -8790691.35046  23031872.047    23031881.720
       223.000         171.000
  22341850.800   -13175712.50749 -10020598.80746  22341850.629    22341858.218
       227.000         182.000
  24022678.388    -6987333.53649  -5197716.81845  24022679.135    24022692.261
       212.000         140.000
 01  6 24  1  6 30.0000000  0  8G20G22G14G25G11G 1G29G21
  21753138.827   -20460390.50949 -15935179.28647  21753138.196    21753145.172
       236.000         194.000
  23614171.086    -8341606.33449  -6474690.97045  23614169.491    23614184.046
       213.000         153.000
  23517934.077   -11325274.25149  -8814283.15046  23517934.073    23517942.569
       221.000         166.000
  20816738.102   -23739402.61649 -18490184.78148  20816737.922    20816744.160
       245.000         216.000
  21600905.795   -21341624.08249 -16608094.98247  21600905.594    21600913.638
       240.000         200.000
  23020438.098   -11366559.72249  -8837513.46946  23020436.733    23020447.476
       222.000         171.000
  22352761.437   -13118376.89149  -9975921.74246  22352761.755    22352768.987
       228.000         182.000
  24039984.199    -6896391.77749  -5126853.33545  24039985.524    24039998.597
       214.000         139.000
 01  6 24  1  7  0.0000000  0  8G20G22G14G25G11G 1G29G21
  21738775.712   -20535868.90449 -15993993.56747  21738774.629    21738782.223
       236.000         194.000
  23595185.000    -8441377.12449  -6552434.04145  23595182.705    23595197.677
       213.000         152.000
  23531711.909   -11252871.48649  -8757865.51846  23531711.635    23531719.828
       221.000         166.000
  20823379.043   -23704504.21249 -18462991.22048  20823379.045    20823385.079
       245.000         216.000
  21608060.922   -21304023.59749 -16578795.94247  21608061.011    21608068.717
       239.000         199.000
  23009029.250   -11426513.11249  -8884230.26846  23009028.431    23009038.550
       223.000         171.000
  22363684.354   -13060976.85049  -9931194.47846  22363684.513    22363691.784
       228.000         182.000
  24057335.458    -6805211.21249  -5055803.79145  24057336.283    24057348.768
       212.000         140.000
 01  6 24  1  7 30.0000000  0  8G20G22G14G25G11G 1G29G21
  21724452.213   -20611139.14849 -16052645.64947  21724451.625    21724458.501
       236.000         195.000
  23576204.033    -8541121.29849  -6630156.37745  23576202.185    23576216.861
       213.000         152.000
  23545493.212   -11180450.54949  -8701433.71946  23545492.944    23545501.235
       221.000         165.000
  20830102.618   -23669171.45749 -18435459.20348  20830102.520    20830108.739
       245.000         216.000
  21615310.953   -21265924.61549 -16549108.45947  21615310.712    21615318.592
       240.000         199.000
  22997645.855   -11486332.81649  -8930842.89846  22997645.341    22997655.291
       224.000         171.000
  22374619.213   -13003513.92149  -9886418.21346  22374618.874    22374626.542
       228.000         182.000
  24074731.668    -6713794.55949  -4984570.29545  24074732.070    24074746.029
       212.000         139.000
 01  6 24  1  8  0.0000000  0  8G20G22G14G25G11G 1G29G21
  21710169.017   -20686197.65249 -16111132.74647  21710168.493    21710175.828
       237.000         195.000
  23557229.063    -8640833.88949  -6707854.11745  23557227.451    23557242.052
       212.000         152.000
  23559278.172   -11108010.42649  -8644986.97246  23559278.301    23559286.102
       219.000         166.000
  20836908.902   -23633404.22249 -18407588.63248  20836908.768    20836915.167
       245.000         216.000
  21622655.776   -21227327.44649 -16519032.78347  21622655.387    21622663.726
       240.000         199.000
  22986288.110   -11546017.74949  -8977350.51346  22986287.884    22986297.290
       224.000         171.000
  22385566.263   -12945986.99049  -9841592.08046  22385566.635    22385573.591
       228.000         181.000
  24092172.860    -6622141.31749  -4913152.44745  24092173.515    24092186.895
       213.000         139.000
 01  6 24  1  8 30.0000000  0  8G20G22G14G25G11G 1G29G21
  21695926.243   -20761043.64849 -16169454.24647  21695925.923    21695932.901
       237.000         195.000
  23538260.369    -8740513.30649  -6785525.99445  23538258.623    23538273.408
       212.000         151.000
  23573066.488   -11035552.83049  -8588526.61546  23573066.356    23573075.235
       221.000         166.000
  20843797.219   -23597205.78449 -18379382.05648  20843797.010    20843803.351
       245.000         215.000
  21630094.765   -21188235.30049 -16488571.40547  21630094.527    21630102.803
       239.000         199.000
  22974955.680   -11605569.52449  -9023754.36746  22974955.070    22974963.926
       224.000         171.000
  22396525.108   -12888397.98049  -9796717.57146  22396524.978    22396532.900
       227.000         181.000
  24109658.728    -6530253.67749  -4841551.94745  24109658.581    24109674.146
       211.000         140.000
 01  6 24  1  9  0.0000000  0  8G20G22G14G25G11G 1G29G21
  21681724.437   -20835674.33049 -16227607.97047  21681723.585    21681730.864
       237.000         196.000
  23519298.671    -8840156.07049  -6863169.33345  23519296.960    23519311.694
       212.000         151.000
  23586858.191   -10963077.31449  -8532052.30346  23586858.038    23586865.998
       220.000         165.000
  20850767.456   -23560576.96449 -18350840.11548  20850767.454    20850773.687
       245.000         215.000
  21637627.747   -21148649.43249 -16457725.31647  21637627.502    21637635.416
       240.000         199.000
  22963648.705   -11664987.71749  -9070054.13346  22963647.258    22963657.719
       224.000         171.000
  22407495.910   -12830746.20449  -9751794.15946  22407496.393    22407502.968
       228.000         181.000
  24127188.927    -6438133.03849  -4769769.89545  24127189.214    24127203.793
       212.000         140.000
 01  6 24  1  9 30.0000000  0  8G20G22G14G25G11G 1G29G21
  21667564.177   -20910086.85049 -16285591.70447  21667563.518    21667570.767
       237.000         196.000
  23500344.675    -8939758.59349  -6940781.32145  23500342.342    23500357.675
       212.000         151.000
  23600653.385   -10890583.48549  -8475563.70146  23600653.588    23600661.496
       220.000         165.000
  20857819.295   -23523519.28049 -18321964.00248  20857819.112    20857825.365
       245.000         215.000
  21645254.411   -21108571.03749 -16426495.43547  21645253.833    21645262.124
       239.000         199.000
  22952367.163   -11724272.12149  -9116249.65046  22952366.577    22952376.041
       224.000         172.000
  22418478.669   -12773031.48449  -9706821.69646  22418478.480    22418486.008
       227.000         181.000
  24144763.426    -6345779.56549  -4697806.42245  24144762.898    24144777.283
       208.000         140.000
 01  6 24  1 10  0.0000000  0  8G20G22G14G25G11G 1G29G21
  21653445.615   -20984280.12249 -16343404.58947  21653444.762    21653451.921
       237.000         196.000
  23481398.853    -9039318.25949  -7018359.92245  23481397.137    23481410.926
       212.000         151.000
  23614451.855   -10818072.55849  -8419061.78446  23614451.865    23614459.409
       219.000         164.000
  20864952.273   -23486035.23049 -18292755.65348  20864952.044    20864958.282
       245.000         215.000
  21652974.295   -21068002.93549 -16394883.96447  21652974.208    21652982.193
       239.000         198.000
  22941110.828   -11783424.04249  -9162341.92446  22941109.640    22941120.564
       224.000         172.000
  22429473.240   -12715254.84249  -9661800.98646  22429473.279    22429480.652
       228.000         180.000
  24162381.758    -6253195.66849  -4625663.39645  24162383.050    24162395.967
       210.000         139.000
 01  6 24  1 10 30.0000000  0  8G20G22G14G25G11G 1G29G21
  21639369.188   -21058252.15249 -16401045.08247  21639368.427    21639375.936
       237.000         197.000
  23462461.664    -9138832.05049  -7095902.77645  23462460.117    23462474.436
       211.000         151.000
  23628253.445   -10745545.15549  -8362547.02646  23628253.441    23628261.357
       218.000         163.000
  20872166.009   -23448126.69849 -18263216.53748  20872165.980    20872172.238
       245.000         215.000
  21660786.929   -21026947.28849 -16362892.58847  21660786.530    21660794.852
       239.000         198.000
  22929879.598   -11842443.98949  -9208331.36746  22929878.635    22929889.118
       224.000         172.000
  22440479.448   -12657416.84849  -9616732.47046  22440479.559    22440487.158
       228.000         180.000
  24180043.773    -6160382.13049  -4553341.42745  24180044.304    24180058.888
       209.000         139.000
 01  6 24  1 11  0.0000000  0  8G20G22G14G25G11G 1G29G21
  21625335.545   -21131999.30749 -16458510.35147  21625334.812    21625341.695
       237.000         197.000
  23443534.182    -9238295.18749  -7173406.16145  23443532.660    23443546.376
       212.000         152.000
  23642058.437   -10672999.96049  -8306018.40646  23642058.643    23642066.460
       219.000         163.000
  20879460.473   -23409793.98149 -18233346.88848  20879460.320    20879466.799
       245.000         215.000
  21668692.341   -20985404.28949 -16330521.46247  21668692.147    21668700.217
       239.000         198.000
  22918673.756   -11901330.62849  -9254216.93946  22918672.963    22918682.119
       225.000         172.000
  22451497.608   -12599516.12449  -9571615.07146  22451498.011    22451505.045
       228.000         180.000
  24197749.489    -6067338.87949  -4480840.48145  24197750.496    24197764.486
       207.000         140.000
 01  6 24  1 11 30.0000000  0  8G20G22G14G25G11G 1G29G21
  21611344.928   -21205520.28849 -16515799.38047  21611344.577    21611351.395
       238.000         197.000
  23424616.631    -9337706.18749  -7250868.93145  23424614.677    23424628.559
       212.000         152.000
  23655866.570   -10600438.08849  -8249476.79045  23655866.245    23655875.008
       219.000         162.000
  20886835.129   -23371039.90249 -18203148.90748  20886835.155    20886841.243
       245.000         215.000
  21676689.938   -20943376.91649 -16297772.90147  21676689.800    21676697.670
       239.000         198.000
  22907493.073   -11960085.09249  -9299999.52946  22907492.173    22907502.953
       226.000         173.000
  22462527.513   -12541553.79149  -9526449.66746  22462527.286    22462535.558
       227.000         179.000
  24215498.544    -5974068.33849  -4408162.40345  24215498.899    24215514.022
       206.000         140.000
 01  6 24  1 12  0.0000000  0  8G20G22G14G25G11G 1G29G21
  21597397.707   -21278813.22549 -16572910.71047  21597396.943    21597403.871
       238.000         198.000
  23405709.608    -9437061.96749  -7328288.68845  23405707.576    23405722.095
       212.000         153.000
  23669677.765   -10527860.22949  -8192922.71445  23669676.874    23669686.960
       218.000         162.000
  20894289.619   -23331866.24049 -18172623.97848  20894289.644    20894295.977
       245.000         215.000
  21684779.208   -20900867.64649 -16264648.83847  21684778.830    21684787.067
       239.000         198.000
  22896337.406   -12018708.16749  -9345679.73046  22896336.446    22896346.122
       227.000         173.000
  22473569.006   -12483530.67249  -9481236.90146  22473568.822    22473576.176
       227.000         179.000
  24233290.594    -5880571.75449  -4335308.22045  24233290.952    24233304.476
       203.000         140.000
 01  6 24  1 12 30.0000000  0  8G20G22G14G25G11G 1G29G21
  21583494.416   -21351875.33749 -16629842.18047  21583493.738    21583500.698
       238.000         198.000
  23386813.875    -9536358.33149  -7405662.14845  23386812.077    23386824.962
       213.000         154.000
  23683492.018   -10455266.07149  -8136355.92145  23683492.210    23683500.795
       217.000         161.000
  20901823.701   -23292274.42549 -18141773.21348  20901823.549    20901829.949
       244.000         215.000
  21692959.932   -20857877.82349 -16231150.32247  21692959.507    21692967.948
       238.000         197.000
  22885206.817   -12077199.42749  -9391257.21246  22885207.161    22885214.974
       227.000         174.000
  22484622.162   -12425446.13049  -9435976.26946  22484622.020    22484629.858
       227.000         179.000
  24251125.531    -5786849.78049  -4262278.39545  24251127.224    24251141.476
       201.000         139.000
 01  6 24  1 13  0.0000000  0  8G20G22G14G25G11G 1G29G21
  21569635.457   -21424704.49849 -16686592.12847  21569634.633    21569641.831
       238.000         199.000
  23367930.059    -9635592.07049  -7482986.81745  23367928.210    23367942.344
       213.000         154.000
  23697309.337   -10382655.80049  -8079776.57445  23697308.775    23697317.577
       216.000         159.000
  20909436.966   -23252266.41649 -18110598.14648  20909436.958    20909442.996
       245.000         214.000
  21701231.693   -20814409.51349 -16197278.96247  21701231.530    21701239.721
       238.000         197.000
  22874101.219   -12135559.26949  -9436732.30846  22874100.570    22874109.824
       226.000         174.000
  22495686.899   -12367300.64749  -9390668.16446  22495687.030    22495694.629
       228.000         179.000
  24269003.083    -5692903.91549  -4189074.11745  24269003.548    24269019.248
       199.000         138.000
 01  6 24  1 13 30.0000000  0  7G20G22G14G25G11G 1G29
  21555821.021   -21497299.67149 -16743159.74847  21555820.316    21555827.324
       238.000         199.000
  23349058.474    -9734761.49449  -7560261.37645  23349056.425    23349070.484
       213.000         155.000
  23711129.441   -10310030.85349  -8023185.78545  23711129.537    23711137.484
       215.000         159.000
  20917128.892   -23211845.16549 -18079101.06648  20917128.853    20917134.871
       244.000         214.000
  21709593.972   -20770465.57249 -16163036.98247  21709593.701    21709601.837
       238.000         197.000
  22863020.383   -12193788.95049  -9482105.96946  22863019.191    22863029.226
       227.000         175.000
  22506763.027   -12309095.37649  -9345313.45846  22506763.192    22506770.860
       228.000         179.000
 01  6 24  1 14  0.0000000  0  7G20G22G14G25G11G 1G29
  21542051.780   -21569657.33549 -16799542.30547  21542051.148    21542058.211
       239.000         199.000
  23330199.989    -9833862.20649  -7637482.40145  23330198.730    23330212.097
       214.000         156.000
  23724952.594   -10237389.91949  -7966582.53845  23724952.367    23724960.138
       216.000         158.000
  20924899.332   -23171011.11649 -18047282.33148  20924899.204    20924905.522
       245.000         214.000
  21718046.643   -20726046.66249 -16128424.89447  21718046.439    21718054.486
       238.000         197.000
  22851964.542   -12251887.37849  -9527377.35846  22851963.475    22851973.015
       227.000         175.000
  22517850.795   -12250829.08749  -9299911.21646  22517851.196    22517858.598
       227.000         178.000
 01  6 24  1 14 30.0000000  0  7G20G22G14G25G11G 1G29
  21528328.130   -21641775.49549 -16855738.23247  21528327.489    21528334.516
       239.000         200.000
  23311355.139    -9932891.06449  -7714647.42745  23311354.045    23311367.270
       213.000         157.000
  23738778.695   -10164733.75349  -7909967.43045  23738778.496    23738787.421
       215.000         157.000
  20932747.977   -23129766.26249 -18015143.48548  20932747.890    20932754.103
       244.000         214.000
  21726589.221   -20681155.30349 -16093444.66347  21726589.055    21726597.152
       238.000         197.000
  22840933.543   -12309855.13949  -9572546.92246  22840932.791    22840942.438
       227.000         176.000
  22528950.087   -12192502.19549  -9254461.75146  22528950.292    22528958.045
       227.000         178.000
 01  6 24  1 15  0.0000000  0  7G20G22G14G25G11G 1G29
  21514650.539   -21713651.48649 -16911745.45447  21514649.578    21514657.004
       239.000         200.000
  23292524.793   -10031843.97249  -7791753.28245  23292523.302    23292536.665
       215.000         158.000
  23752607.727   -10092061.92349  -7853340.09545  23752607.472    23752615.867
       215.000         157.000
  20940674.567   -23088111.67049 -17982685.36548  20940674.493    20940680.640
       245.000         214.000
  21735221.441   -20635793.01349 -16058097.47047  21735221.219    21735229.617
       238.000         196.000
  22829927.512   -12367692.10649  -9617614.57746  22829926.781    22829936.826
       227.000         176.000
  22540060.929   -12134114.57049  -9208964.95646  22540060.841    22540068.957
       227.000         178.000
 01  6 24  1 15 30.0000000  0  7G20G22G14G25G11G 1G29
  21501019.440   -21785283.32549 -16967562.43347  21501018.645    21501026.051
       239.000         201.000
  23273709.446   -10130718.08249  -7868797.73045  23273707.997    23273720.988
       216.000         158.000
  23766439.631   -10019374.97949  -7796700.99745  23766439.836    23766447.166
       214.000         156.000
  20948678.688   -23046049.75449 -17949909.85248  20948678.622    20948684.912
       245.000         214.000
  21743942.831   -20589962.02249 -16022385.06147  21743942.482    21743950.713
       238.000         196.000
  22818946.213   -12425398.72049  -9662580.66346  22818944.963    22818954.866
       227.000         176.000
  22551183.255   -12075666.57549  -9163421.11746  22551183.770    22551191.934
       227.000         178.000
 01  6 24  1 16  0.0000000  0  7G20G22G14G25G11G 1G29
  21487435.128   -21856669.08749 -17023187.66047  21487434.419    21487441.484
       239.000         201.000
  23254909.540   -10229510.98949  -7945778.90245  23254908.132    23254921.556
       216.000         159.000
  23780274.362    -9946673.26549  -7740050.38245  23780275.198    23780282.730
       215.000         156.000
  20956759.916   -23003582.75649 -17916818.68548  20956759.797    20956766.078
       245.000         214.000
  21752752.883   -20543664.93749 -15986309.45947  21752752.693    21752760.926
       238.000         196.000
  22807989.593   -12482975.70249  -9707445.74346  22807989.348    22807997.848
       228.000         177.000
  22562316.979   -12017158.68449  -9117830.61446  22562316.533    22562324.585
       226.000         178.000
 01  6 24  1 16 30.0000000  0  7G20G22G14G25G11G 1G29
  21473898.145   -21927806.20249 -17078619.14247  21473897.470    21473904.281
       239.000         201.000
  23236125.766   -10328219.09349  -8022693.99845  23236124.606    23236137.278
       216.000         160.000
  23794112.024    -9873956.58049  -7683388.10145  23794111.190    23794120.708
       215.000         155.000
  20964917.894   -22960712.13349 -17883413.00948  20964917.899    20964924.165
       244.000         213.000
  21761651.346   -20496903.49849 -15949872.01947  21761651.162    21761659.161
       238.000         196.000
  22797057.657   -12540422.89549  -9752209.68546  22797057.505    22797066.226
       228.000         177.000
  22573462.157   -11958590.77149  -9072193.33546  22573462.247    22573469.964
       226.000         178.000
 01  6 24  1 17  0.0000000  0  7G20G22G14G25G11G 1G29
  21460408.763   -21998693.28549 -17133855.79547  21460408.308    21460415.108
       240.000         202.000
  23217358.726   -10426839.27349  -8099540.57945  23217357.628    23217370.469
       216.000         161.000
  23807952.265    -9801225.96849  -7626714.98345  23807952.607    23807960.579
       214.000         155.000
  20973152.271   -22917440.19449 -17849694.62248  20973152.089    20973158.436
       245.000         213.000
  21770637.685   -20449680.03049 -15913074.56147  21770637.651    21770645.441
       238.000         196.000
  22786150.326   -12597740.99249  -9796873.03346  22786149.647    22786158.936
       228.000         177.000
  22584618.615   -11899963.46749  -9026509.79146  22584618.694    22584627.151
       226.000         178.000
 01  6 24  1 17 30.0000000  0  7G20G22G14G25G11G 1G29
  21446967.432   -22069327.75349 -17188895.60347  21446966.814    21446973.539
       240.000         202.000
  23198609.109   -10525368.11549  -8176315.99745  23198607.498    23198620.779
       217.000         162.000
  23821795.100    -9728481.47149  -7570031.03745  23821794.925    23821803.827
       216.000         155.000
  20981462.728   -22873768.50349 -17815664.73548  20981462.696    20981468.852
       245.000         213.000
  21779711.493   -20401997.00649 -15875919.00547  21779711.410    21779719.198
       238.000         195.000
  22775267.466   -12654930.28149  -9841436.00846  22775267.301    22775276.281
       227.000         177.000
  22595786.340   -11841276.89449  -8980780.05246  22595786.443    22595793.591
       226.000         178.000
 01  6 24  1 18  0.0000000  0  7G20G22G14G25G11G 1G29
  21433574.766   -22139706.53949 -17243736.18247  21433574.185    21433581.029
       240.000         202.000
  23179877.558   -10623801.89549  -8253017.33245  23179876.016    23179889.161
       217.000         162.000
  23835640.725    -9655722.45949  -7513335.79045  23835640.330    23835648.565
       214.000         154.000
  20989848.959   -22829698.54949 -17781324.51748  20989848.760    20989855.058
       245.000         213.000
  21788872.467   -20353855.91049 -15838406.51047  21788872.138    21788880.568
       238.000         195.000
  22764409.238   -12711990.28949  -9885898.26546  22764408.038    22764417.623
       228.000         178.000
  22606965.417   -11782530.57449  -8935003.76246  22606965.433    22606973.139
       226.000         177.000
 01  6 24  1 18 30.0000000  0  7G20G22G14G25G11G 1G29
  21420231.114   -22209827.76449 -17298376.06347  21420230.483    21420237.248
       240.000         202.000
  23161164.563   -10722138.06949  -8329642.61846  23161163.150    23161176.046
       217.000         163.000
  23849489.020    -9582949.39049  -7456629.57845  23849488.313    23849497.453
       217.000         154.000
  20998310.557   -22785232.55749 -17746675.70248  20998310.612    20998316.630
       245.000         213.000
  21798120.223   -20305258.92549 -15800538.78047  21798119.866    21798128.361
       238.000         195.000
  22753575.442   -12768921.64649  -9930260.26046  22753575.098    22753583.619
       229.000         178.000
  22618155.834   -11723724.74149  -8889181.09246  22618155.577    22618163.079
       225.000         177.000
 01  6 24  1 19  0.0000000  0  7G20G22G14G25G11G 1G29
  21406936.853   -22279689.40949 -17352813.67247  21406936.007    21406943.045
       240.000         203.000
  23142470.832   -10820373.14649  -8406189.13346  23142469.412    23142482.115
       219.000         163.000
  23863340.001    -9510162.61749  -7399912.70145  23863339.264    23863349.371
       217.000         154.000
  21006847.108   -22740372.69049 -17711719.96248  21006847.112    21006853.317
       244.000         213.000
  21807454.298   -20256208.35649 -15762317.60747  21807454.294    21807462.214
       237.000         195.000
  22742766.098   -12825724.53949  -9974522.16346  22742765.271    22742774.154
       229.000         178.000
  22629357.516   -11664859.67849  -8843312.27646  22629357.712    22629365.704
       226.000         177.000
 01  6 24  1 19 30.0000000  0  7G20G22G14G25G11G 1G29
  21393692.354   -22349289.51849 -17407047.49547  21393691.685    21393698.532
       241.000         203.000
  23123796.992   -10918503.76949  -8482654.24146  23123795.759    23123808.819
       219.000         164.000
  23877193.480    -9437362.60049  -7343185.50145  23877194.172    23877201.893
       216.000         154.000
  21015458.188   -22695121.08249 -17676458.97947  21015458.111    21015464.278
       245.000         212.000
  21816874.137   -20206706.99149 -15723745.16947  21816874.552    21816881.850
       238.000         195.000
  22731981.084   -12882399.72949 -10018684.56546  22731980.447    22731989.536
       229.000         179.000
  22640570.371   -11605935.93649  -8797397.74446  22640570.279    22640578.022
       226.000         177.000
 01  6 24  1 20  0.0000000  0  7G20G22G14G25G11G 1G29
  21380497.972   -22418626.34849 -17461076.15847  21380497.460    21380504.402
       241.000         203.000
  23105143.463   -11016527.43049  -8559036.02446  23105141.593    23105154.880
       217.000         164.000
  23891049.321    -9364549.84949  -7286448.38945  23891049.890    23891058.516
       216.000         154.000
  21024143.393   -22649480.10849 -17640894.58947  21024143.368    21024149.537
       245.000         212.000
  21826379.221   -20156757.56749 -15684823.59047  21826378.992    21826387.098
       237.000         195.000
  22721220.230   -12938948.01249 -10062748.06646  22721219.787    22721228.744
       229.000         180.000
  22651794.335   -11546953.95449  -8751437.82746  22651794.419    22651802.395
       225.000         176.000
 01  6 24  1 20 30.0000000  0  7G20G22G14G25G11G 1G29
  21367354.219   -22487697.05349 -17514897.45347  21367353.539    21367360.485
       240.000         204.000
  23086510.985   -11114440.47849  -8635331.60646  23086509.192    23086521.683
       218.000         164.000
  23904907.723    -9291723.87649  -7229700.96345  23904906.747    23904916.214
       216.000         154.000
  21032902.501   -22603450.70149 -17605027.51947  21032902.285    21032908.751
       244.000         212.000
  21835969.348   -20106361.30349 -15645553.82747  21835969.053    21835977.634
       237.000         195.000
  22710483.627   -12995368.97049 -10106712.34746  22710483.200    22710491.986
       229.000         180.000
  22663029.460   -11487913.30649  -8705432.18746  22663029.291    22663037.319
       225.000         176.000
 01  6 24  1 21  0.0000000  0  7G20G22G14G25G11G 1G29
  21354261.656   -22556498.74349 -17568509.12847  21354261.093    21354267.777
       241.000         204.000
  23067900.272   -11212239.17449  -8711538.10346  23067899.186    23067911.981
       218.000         164.000
  23918768.666    -9218884.59349  -7172943.18745  23918769.181    23918776.604
       216.000         155.000
  21041735.189   -22557034.51649 -17568859.06647  21041735.070    21041741.417
       244.000         212.000
  21845644.143   -20055520.20649 -15605937.43947  21845643.536    21845652.223
       237.000         195.000
  22699771.316   -13051662.24149 -10150577.14246  22699770.476    22699780.169
       229.000         180.000
  22674275.811   -11428813.58249  -8659380.52046  22674275.796    22674284.194
       225.000         176.000
 01  6 24  1 21 30.0000000  0  7G20G22G14G25G11G 1G29
  21341220.589   -22625029.80649 -17621909.91747  21341220.001    21341226.690
       241.000         204.000
  23049311.907   -11309920.26249  -8787652.94746  23049309.835    23049323.090
       218.000         164.000
  23932632.047    -9146032.45449  -7116175.38445  23932631.674    23932640.391
       216.000         154.000
  21050641.050   -22510233.89149 -17532391.04947  21050641.004    21050647.227
       244.000         212.000
  21855403.056   -20004236.96349 -15565976.51847  21855403.039    21855411.125
       238.000         194.000
  22689083.138   -13107828.59049 -10194343.02546  22689082.665    22689091.683
       229.000         180.000
  22685533.278   -11369655.31649  -8613283.24146  22685533.662    22685541.334
       225.000         176.000
 01  6 24  1 22  0.0000000  0  7G20G22G14G25G11G 1G29
  21328231.569   -22693287.59749 -17675097.76947  21328230.863    21328237.703
       241.000         204.000
  23030746.656   -11407480.16649  -8863673.37746  23030745.427    23030758.188
       218.000         164.000
  23946497.907    -9073167.20149  -7059397.35945  23946496.985    23946507.109
       215.000         154.000
  21059619.719   -22463050.68549 -17495624.91747  21059619.729    21059626.040
       244.000         212.000
  21865245.740   -19952513.41249 -15525672.50947  21865245.585    21865253.629
       237.000         194.000
  22678419.100   -13163868.03849 -10238010.03346  22678418.238    22678427.359
       229.000         181.000
  22696801.951   -11310438.32249  -8567140.19746  22696801.931    22696809.791
       224.000         176.000
 01  6 24  1 22 30.0000000  0  7G20G22G14G25G11G 1G29
  21315294.831   -22761270.44749 -17728071.38547  21315294.069    21315301.067
       241.000         205.000
  23012204.997   -11504916.23149  -8939597.30446  23012203.623    23012215.473
       218.000         164.000
  23960366.132    -9000289.49449  -7002609.64945  23960366.733    23960374.366
       218.000         154.000
  21068670.748   -22415487.04949 -17458562.35047  21068670.583    21068676.808
       244.000         211.000
  21875171.687   -19900352.44749 -15485027.65447  21875171.384    21875179.945
       237.000         194.000
  22667779.067   -13219781.40049 -10281578.79146  22667778.364    22667787.512
       229.000         181.000
  22708081.635   -11251163.28249  -8520951.93246  22708082.132    22708089.021
       225.000         176.000
 01  6 24  1 23  0.0000000  0  7G20G22G14G25G11G 1G29
  21302411.049   -22828974.99549 -17780828.14147  21302410.368    21302417.293
       242.000         205.000
  22993687.567   -11602224.82049  -9015421.90046  22993685.922    22993698.873
       218.000         164.000
  23974236.892    -8927398.66349  -6945811.69545  23974237.261    23974245.835
       217.000         155.000
  21077793.967   -22367544.33449 -17421204.40147  21077793.867    21077800.154
       244.000         211.000
  21885180.550   -19847755.83649 -15444043.33547  21885180.525    21885188.677
       237.000         194.000
  22657163.102   -13275568.10849 -10325048.85146  22657162.383    22657171.827
       229.000         181.000
  22719372.560   -11191829.46549  -8474717.85246  22719372.616    22719380.923
       225.000         176.000
 01  6 24  1 23 30.0000000  0  7G20G22G14G25G11G 1G29
  21289580.464   -22896400.10449 -17833367.14947  21289579.851    21289586.552
       242.000         205.000
  22975194.901   -11699403.15149  -9091145.00146  22975193.584    22975205.960
       219.000         164.000
  23988110.003    -8854495.61649  -6889004.23745  23988109.827    23988118.390
       215.000         155.000
  21086988.773   -22319225.30149 -17383553.20747  21086988.801    21086995.012
       244.000         211.000
  21895271.671   -19794726.66849 -15402721.96447  21895271.539    21895279.648
       237.000         194.000
  22646571.061   -13331229.31249 -10368421.12146  22646569.486    22646579.509
       229.000         181.000
  22730674.511   -11132437.58049  -8428438.53546  22730674.731    22730683.108
       225.000         176.000
 01  6 24  1 24  0.0000000  0  7G20G22G14G25G11G 1G29
  21276803.590   -22963542.78649 -17885686.08347  21276802.816    21276809.928
       242.000         205.000
  22956727.825   -11796447.01049  -9166763.32946  22956725.949    22956738.793
       218.000         164.000
  24001985.461    -8781579.79349  -6832186.81345  24001985.331    24001994.224
       216.000         156.000
  21096254.909   -22270531.28749 -17345609.82847  21096254.847    21096261.186
       244.000         211.000
  21905444.838   -19741266.58749 -15361064.80947  21905444.516    21905453.081
       237.000         193.000
  22636002.980   -13386764.58249 -10411695.25846  22636002.372    22636011.302
       229.000         182.000
  22741987.583   -11072987.30649  -8382113.72046  22741988.059    22741996.048
       225.000         175.000
 01  6 24  1 24 30.0000000  0  7G20G22G14G25G11G 1G29
  21264080.782   -23030401.39649 -17937783.66447  21264080.254    21264086.939
       242.000         205.000
  22938286.926   -11893353.55649  -9242274.65046  22938285.715    22938297.428
       216.000         165.000
  24015863.223    -8708652.15049  -6775360.19545  24015862.544    24015871.966
       216.000         156.000
  21105591.942   -22221464.82849 -17307376.22847  21105591.823    21105598.308
       244.000         211.000
  21915699.417   -19687378.62449 -15319074.24747  21915699.217    21915707.236
       237.000         193.000
  22625458.704   -13442174.82649 -10454871.97546  22625457.801    22625467.367
       229.000         182.000
  22753311.638   -11013479.33449  -8335743.95046  22753311.370    22753319.923
       226.000         175.000
 01  6 24  1 25  0.0000000  0  7G20G22G14G25G11G 1G29
  21251412.537   -23096973.34649 -17989657.87247  21251411.804    21251418.742
       243.000         206.000
  22919872.750   -11990119.57749  -9317676.48346  22919871.023    22919883.382
       219.000         164.000
  24029743.299    -8635712.24149  -6718524.01345  24029742.965    24029751.542
       218.000         156.000
  21114999.555   -22172027.57849 -17268853.70447  21114999.430    21115005.636
       244.000         211.000
  21926035.056   -19633064.65949 -15276751.73447  21926035.042    21926043.300
       237.000         193.000
  22614938.259   -13497459.73849 -10497951.03846  22614937.604    22614947.137
       229.000         182.000
  22764646.801   -10953912.98949  -8289328.69546  22764647.153    22764655.310
       224.000         175.000
 01  6 24  1 25 30.0000000  0  7G20G22G14G25G11G 1G29
  21238799.322   -23163256.12849 -18041306.75447  21238798.606    21238805.420
       243.000         206.000
  22901485.925   -12086741.94649  -9392966.37346  22901484.452    22901496.793
       220.000         164.000
  24043625.711    -8562760.10349  -6661678.30145  24043625.724    24043633.669
       218.000         156.000
  21124477.328   -22122221.54649 -17230043.81247  21124477.279    21124483.677
       244.000         211.000
  21936451.306   -19578327.11049 -15234099.15647  21936451.391    21936459.323
       237.000         193.000
  22604441.545   -13552619.79549 -10540932.79846  22604441.061    22604449.822
       229.000         182.000
  22775993.000   -10894288.66849  -8242868.26546  22775993.218    22776000.942
       224.000         174.000
 01  6 24  1 26  0.0000000  0  7G20G22G14G25G11G 1G29
  21226241.537   -23229247.49849 -18092728.56447  21226240.839    21226247.753
       243.000         206.000
  22883127.210   -12183216.79249  -9468141.32646  22883126.271    22883137.581
       219.000         165.000
  24057510.430    -8489795.77649  -6604823.09145  24057510.072    24057520.207
       218.000         156.000
  21134024.931   -22072048.56549 -17190947.99147  21134024.859    21134031.197
       244.000         211.000
  21946947.729   -19523168.28649 -15191118.31647  21946947.424    21946955.848
       237.000         193.000
  22593968.596   -13607655.08349 -10583817.34646  22593967.931    22593976.983
       230.000         182.000
  22787350.214   -10834606.20849  -8196362.52646  22787350.376    22787358.105
       224.000         174.000
 01  6 24  1 26 30.0000000  0  7G20G22G14G25G11G 1G29
  21213739.519   -23294945.91049 -18143922.09147  21213738.924    21213745.604
       243.000         206.000
  22864797.088   -12279541.18649  -9543199.05246  22864795.701    22864807.606
       219.000         165.000
  24071397.351    -8416820.06349  -6547959.01645  24071397.628    24071405.097
       216.000         156.000
  21143641.826   -22021511.52649 -17151568.49047  21143641.751    21143648.114
       244.000         211.000
  21957523.698   -19467591.28749 -15147811.62647  21957523.503    21957531.889
       237.000         192.000
  22583519.240   -13662566.55949 -10626605.41546  22583518.965    22583527.851
       229.000         183.000
  22798718.404   -10774866.32549  -8149812.03946  22798718.236    22798726.498
       225.000         174.000
 01  6 24  1 27  0.0000000  0  7G20G22G14G25G11G 1G29
  21201293.833   -23360348.34749 -18194884.99147  21201293.100    21201299.653
       242.000         206.000
  22846496.349   -12375711.40349  -9618136.64746  22846495.380    22846506.827
       220.000         165.000
  24085286.512    -8343832.14449  -6491085.43645  24085286.773    24085295.167
       218.000         156.000
  21153327.814   -21970611.37949 -17111906.04647  21153327.806    21153334.145
       244.000         211.000
  21968178.948   -19411597.67849 -15104180.30947  21968178.876    21968187.025
       236.000         192.000
  22573093.493   -13717353.69249 -10669296.59446  22573092.903    22573101.855
       229.000         182.000
  22810097.641   -10715068.36149  -8103216.30046  22810097.458    22810105.443
       225.000         173.000
 01  6 24  1 27 30.0000000  0  7G20G22G14G25G11G 1G29
  21188904.907   -23425452.38649 -18245615.37347  21188904.357    21188910.822
       242.000         206.000
  22828225.496   -12471724.32649  -9692951.67946  22828224.319    22828235.716
       220.000         165.000
  24099178.014    -8270832.18149  -6434202.47145  24099177.806    24099187.122
       217.000         156.000
  21163082.505   -21919350.17249 -17071962.26447  21163082.483    21163088.760
       244.000         211.000
  21978913.033   -19355189.96249 -15060226.31747  21978912.615    21978921.253
       236.000         192.000
  22562691.417   -13772016.53449 -10711890.92646  22562690.734    22562700.052
       230.000         182.000
  22821487.966   -10655212.11649  -8056575.15346  22821488.372    22821496.215
       225.000         173.000
 01  6 24  1 28  0.0000000  0  7G20G22G14G25G11G 1G29
  21176573.096   -23490256.25749 -18296111.86347  21176572.394    21176579.152
       243.000         206.000
  22809985.131   -12567576.93549  -9767641.79046  22809984.496    22809995.107
       222.000         166.000
  24113071.773    -8197820.60749  -6377310.44745  24113071.358    24113080.820
       216.000         155.000
  21172905.429   -21867730.38349 -17031739.06647  21172905.513    21172911.732
       244.000         211.000
  21989725.375   -19298370.95949 -15015951.84547  21989725.230    21989733.652
       236.000         192.000
  22552312.848   -13826555.93749 -10754389.06446  22552312.009    22552320.937
       229.000         182.000
  22832889.250   -10595298.22949  -8009889.07246  22832888.400    22832897.089
       224.000         173.000
 01  6 24  1 28 30.0000000  0  7G20G22G14G25G11G 1G29
  21164298.927   -23554757.21549 -18346372.30747  21164298.201    21164304.971
       242.000         206.000
  22791776.123   -12663265.02249  -9842203.71146  22791774.773    22791786.838
       221.000         166.000
  24126967.737    -8124797.08249  -6320409.10645  24126967.698    24126976.357
       215.000         155.000
  21182796.307   -21815753.50049 -16991237.61147  21182796.325    21182802.784
       244.000         211.000
  22000615.586   -19241142.76049 -14971358.51147  22000615.581    22000623.702
       236.000         192.000
  22541957.755   -13880971.75149 -10796790.89746  22541957.328    22541965.804
       229.000         182.000
  22844301.601   -10535326.27549  -7963157.75046  22844302.159    22844310.638
       225.000         172.000
 01  6 24  1 29  0.0000000  0  7G20G22G14G25G11G 1G29
  21152082.689   -23618953.73949 -18396395.53447  21152081.898    21152088.786
       242.000         206.000
  22773598.910   -12758786.00949  -9916635.43146  22773597.487    22773609.023
       222.000         166.000
  24140865.841    -8051762.58349  -6263499.22145  24140866.586    24140875.009
       215.000         154.000
  21192754.557   -21763422.61849 -16950460.31647  21192754.471    21192760.939
       244.000         211.000
  22011583.028   -19183508.75549 -14926448.98047  22011582.948    22011591.365
       236.000         191.000
  22531626.016   -13935265.02649 -10839097.25746  22531625.131    22531634.555
       229.000         182.000
  22855724.863   -10475296.97049  -7916381.73146  22855725.331    22855732.585
       223.000         172.000
 01  6 24  1 29 30.0000000  0  7G20G22G14G25G11G 1G29
  21139924.955   -23682842.92949 -18446179.28247  21139924.415    21139931.151
       242.000         207.000
  22755454.192   -12854136.24649  -9990934.09346  22755453.507    22755464.142
       223.000         167.000
  24154766.169    -7978716.35849  -6206580.20145  24154765.504    24154775.845
       213.000         154.000
  21202780.024   -21710738.58549 -16909407.84047  21202779.951    21202786.344
       244.000         211.000
  22022627.391   -19125470.42349 -14881224.38747  22022627.242    22022636.053
       236.000         191.000
  22521317.717   -13989435.21149 -10881307.71046  22521317.426    22521326.074
       229.000         182.000
  22867159.148   -10415209.59849  -7869560.47846  22867159.055    22867167.258
       222.000         172.000
 01  6 24  1 30  0.0000000  0  7G20G22G14G25G11G 1G29
  21127826.297   -23746421.79149 -18495721.21947  21127825.661    21127832.479
       242.000         207.000
  22737342.628   -12949312.06749 -10065096.84546  22737341.756    22737351.904
       222.000         167.000
  24168668.818    -7905657.88049  -6149651.64945  24168668.799    24168678.839
       214.000         154.000
  21212872.348   -21657703.06849 -16868081.48347  21212872.404    21212878.865
       244.000         211.000
  22033748.325   -19067029.88149 -14835686.38147  22033748.403    22033756.700
       235.000         191.000
  22511032.884   -14043481.89149 -10923421.93046  22511032.237    22511040.896
       229.000         182.000
  22878604.591   -10355063.73949  -7822693.63446  22878604.682    22878612.441
       223.000         171.000
 01  6 24  1 30 30.0000000  0  7G20G22G14G25G11G 1G29
  21115786.788   -23809689.58249 -18545020.75947  21115786.175    21115792.787
       243.000         207.000
  22719264.724   -13044311.10649 -10139121.85946  22719263.281    22719274.356
       222.000         168.000
  24182573.517    -7832588.51749  -6092714.60045  24182574.252    24182582.077
       212.000         153.000
  21223030.881   -21604319.69449 -16826484.06647  21223030.811    21223037.072
       244.000         211.000
  22044945.040   -19008191.16649 -14789838.11047  22044944.872    22044953.356
       236.000         191.000
  22500771.283   -14097406.78249 -10965441.24946  22500770.521    22500779.301
       229.000         183.000
  22890060.892   -10294860.83449  -7775782.34146  22890060.771    22890069.224
       223.000         171.000
 01  6 24  1 31  0.0000000  0  7G20G22G14G25G11G 1G29
  21103807.041   -23872643.34349 -18594075.60947  21103806.349    21103812.945
       242.000         207.000
  22701221.332   -13139129.08249 -10213005.78746  22701219.912    22701231.349
       223.000         169.000
  24196480.450    -7759507.69449  -6035768.62445  24196480.005    24196490.041
       213.000         153.000
  21233255.374   -21550589.77649 -16784616.62447  21233255.293    21233261.682
       244.000         210.000
  22056217.173   -18948955.94049 -14743680.87447  22056217.458    22056225.735
       235.000         191.000
  22490532.883   -14151209.46949 -11007365.34346  22490532.308    22490541.109
       228.000         183.000
  22901528.183   -10234600.03349  -7728825.93346  22901528.552    22901537.040
       223.000         171.000
 01  6 24  1 31 30.0000000  0  7G20G22G14G25G11G 1G29
  21091887.589   -23935280.39449 -18642883.67447  21091886.811    21091893.611
       242.000         207.000
  22683213.001   -13233762.49949 -10286745.89246  22683211.589    22683223.550
       223.000         169.000
  24210389.538    -7686415.26649  -5978813.59745  24210390.286    24210399.055
       214.000         153.000
  21243545.482   -21496515.01249 -16742480.46647  21243545.549    21243551.818
       244.000         210.000
  22067564.288   -18889326.71649 -14697216.62647  22067564.123    22067572.713
       235.000         190.000
  22480317.751   -14204889.94349 -11049194.21146  22480317.090    22480326.110
       229.000         183.000
  22913006.572   -10174281.09349  -7681824.22446  22913006.676    22913014.455
       223.000         170.000
 01  6 24  1 32  0.0000000  0  7G20G22G14G25G11G 1G29
  21080028.690   -23997599.13149 -18691443.69847  21080028.010    21080034.735
       243.000         207.000
  22665240.238   -13328209.15849 -10360340.48146  22665239.451    22665250.085
       223.000         169.000
  24224300.761    -7613311.89349  -5921850.05645  24224300.236    24224310.694
       212.000         152.000
  21253900.718   -21442097.89849 -16700077.54247  21253900.531    21253906.994
       244.000         210.000
  22078985.787   -18829306.55449 -14650447.75647  22078985.886    22078994.223
       235.000         190.000
  22470125.757   -14258448.95849 -11090928.43846  22470125.046    22470134.525
       229.000         183.000
  22924495.816   -10113904.73049  -7634777.76546  22924495.712    22924503.609
       223.000         170.000
 01  6 24  1 32 30.0000000  0  7G20G22G14G25G11G 1G29
  21068230.946   -24059596.54449 -18739753.34347  21068230.398    21068236.958
       242.000         207.000
  22647303.807   -13422464.76849 -10433786.20046  22647302.719    22647313.501
       223.000         169.000
  24238214.224    -7540196.66249  -5864877.27045  24238215.163    24238222.733
       212.000         151.000
  21264320.806   -21387340.14149 -16657409.18147  21264320.657    21264327.268
       244.000         210.000
  22090481.391   -18768897.09449 -14603375.53847  22090480.768    22090490.126
       235.000         190.000
  22459956.936   -14311886.09649 -11132567.70246  22459956.446    22459965.117
       229.000         183.000
  22935996.180   -10053470.08149  -7587685.90746  22935996.380    22936004.808
       222.000         169.000
 01  6 24  1 33  0.0000000  0  7G20G22G14G25G11G 1G29
  21056494.629   -24121271.07049 -18787811.38947  21056493.943    21056500.536
       242.000         207.000
  22629404.357   -13516526.18249 -10507080.60046  22629402.561    22629414.436
       222.000         170.000
  24252129.886    -7467070.27149  -5807895.79045  24252130.449    24252138.810
       211.000         150.000
  21274805.280   -21332243.98449 -16614477.13147  21274805.599    21274811.483
       244.000         210.000
  22102050.422   -18708101.81749 -14556002.67747  22102049.999    22102058.575
       235.000         189.000
  22449811.128   -14365202.24749 -11174112.68346  22449810.270    22449819.014
       229.000         183.000
  22947507.582    -9992977.72449  -7540549.06446  22947507.451    22947516.076
       222.000         169.000
 01  6 24  1 33 30.0000000  0  7G20G22G14G25G11G 1G29
  21044820.177   -24182620.59249 -18835616.18747  21044819.395    21044826.192
       242.000         207.000
  22611542.453   -13610390.10749 -10580221.11146  22611541.556    22611552.390
       222.000         170.000
  24266047.528    -7393932.97449  -5750905.81145  24266047.685    24266054.752
       210.000         149.000
  21285353.624   -21276812.06449 -16571283.44847  21285353.496    21285359.874
       244.000         210.000
  22113692.353   -18646923.36949 -14508331.24647  22113692.439    22113701.215
       235.000         189.000
  22439688.314   -14418397.76249 -11215563.66846  22439687.987    22439696.398
       229.000         183.000
  22959029.821    -9932428.01349  -7493367.54546  22959030.004    22959037.570
       222.000         168.000
 01  6 24  1 34  0.0000000  0  7G20G22G14G25G11G 1G29
  21033208.258   -24243641.54849 -18883164.96347  21033207.443    21033214.147
       242.000         208.000
  22593718.931   -13704052.42249 -10653204.52346  22593718.084    22593728.667
       222.000         171.000
  24279967.378    -7320783.77649  -5693906.55245  24279967.109    24279976.710
       210.000         148.000
  21295965.752   -21221045.14549 -16527828.72547  21295965.580    21295972.092
       244.000         210.000
  22125406.948   -18585363.16449 -14460362.34147  22125406.440    22125415.158
       234.000         189.000
  22429588.583   -14471471.86249 -11256920.04846  22429588.039    22429596.392
       230.000         183.000
  22970563.247    -9871819.61149  -7446140.29046  22970563.710    22970572.220
       221.000         168.000
 01  6 24  1 34 30.0000000  0  7G20G22G14G25G11G 1G29
  21021659.226   -24304332.06849 -18930456.25747  21021658.509    21021665.389
       242.000         208.000
  22575934.232   -13797510.58149 -10726028.84646  22575932.627    22575944.146
       221.000         171.000
  24293889.446    -7247623.06649  -5636898.32245  24293890.550    24293898.354
       209.000         148.000
  21306641.129   -21164945.71249 -16484114.90447  21306641.069    21306647.372
       244.000         210.000
  22137193.557   -18523424.40449 -14412098.45747  22137193.050    22137201.923
       234.000         188.000
  22419511.860   -14524425.21749 -11298182.33946  22419511.475    22419520.160
       230.000         183.000
  22982107.812    -9811152.86949  -7398867.57946  22982108.327    22982116.354
       221.000         168.000
 01  6 24  1 35  0.0000000  0  7G20G22G14G25G11G 1G29
  21010173.329   -24364690.73049 -18977488.96247  21010172.680    21010179.295
       242.000         208.000
  22558188.980   -13890761.67249 -10798691.82846  22558187.792    22558198.758
       222.000         171.000
  24307813.669    -7174451.50849  -5579881.63945  24307815.100    24307823.823
       209.000         148.000
  21317379.256   -21108516.57049 -16440144.16447  21317379.185    21317385.652
       244.000         210.000
  22149051.562   -18461110.49149 -14363542.24547  22149051.251    22149060.053
       234.000         188.000
  22409457.935   -14577258.87849 -11339351.36946  22409457.995    22409466.591
       231.000         184.000
  22993663.231    -9750428.71749  -7351550.13746  22993663.108    22993671.082
       221.000         167.000
 01  6 24  1 35 30.0000000  0  7G20G22G14G25G11G 1G29
  20998751.186   -24424714.36149 -19024260.60247  20998750.498    20998757.317
       242.000         208.000
  22540484.066   -13983800.77549 -10871189.62046  22540482.948    22540493.578
       223.000         172.000
  24321740.048    -7101268.13549  -5522855.74645  24321740.849    24321749.087
       211.000         147.000
  21328179.922   -21051758.63949 -16395917.22547  21328180.048    21328186.066
       244.000         209.000
  22160980.660   -18398422.93649 -14314694.87647  22160980.413    22160989.454
       234.000         188.000
  22399426.937   -14629971.90049 -11380426.40046  22399426.370    22399435.112
       230.000         184.000
  23005229.863    -9689645.98049  -7304187.04546  23005230.211    23005239.137
       221.000         167.000
 01  6 24  1 36  0.0000000  0  7G20G22G14G25G11G 1G29
  20987393.144   -24484401.10849 -19070769.73947  20987392.650    20987399.135
       242.000         208.000
  22522820.028   -14076625.31849 -10943520.23146  22522818.697    22522829.844
       223.000         172.000
  24335668.569    -7028073.55549  -5465821.12245  24335667.888    24335677.715
       210.000         146.000
  21339042.636   -20994674.75949 -16351436.29847  21339042.488    21339048.780
       244.000         209.000
  22172980.233   -18335365.00849 -14265558.91246  22172979.666    22172988.956
       234.000         187.000
  22389418.749   -14682565.05749 -11421408.01946  22389418.398    22389426.646
       230.000         184.000
  23016807.568    -9628805.13649  -7256778.67246  23016808.075    23016816.066
       221.000         167.000
 01  6 24  1 36 30.0000000  0  7G20G22G14G25G11G 1G29
  20976099.702   -24543748.53249 -19117014.46947  20976099.109    20976105.791
       242.000         209.000
  22505197.359   -14169232.09449 -11015681.15546  22505195.757    22505207.057
       221.000         173.000
  24349599.307    -6954867.26849  -5408777.37545  24349599.303    24349608.610
       207.000         146.000
  21349967.068   -20937266.73649 -16306702.79447  21349966.985    21349973.484
       243.000         209.000
  22185049.830   -18271939.13649 -14216136.24146  22185049.400    22185058.590
       233.000         187.000
  22379433.382   -14735038.26549 -11462296.17746  22379432.641    22379441.910
       231.000         185.000
  23028396.392    -9567905.79649  -7209324.73146  23028396.013    23028404.952
       221.000         167.000
 01  6 24  1 37  0.0000000  0  7G20G22G14G25G11G 1G29
  20964871.268   -24602754.25649 -19162992.93647  20964870.682    20964877.193
       242.000         209.000
  22487616.817   -14261617.70149 -11087669.74246  22487614.998    22487626.737
       222.000         173.000
  24363532.207    -6881649.66349  -5351724.82045  24363531.828    24363541.336
       210.000         146.000
  21360952.740   -20879536.58049 -16261718.27647  21360952.910    21360958.965
       243.000         209.000
  22197188.933   -18208147.98849 -14166428.93246  22197188.446    22197197.526
       233.000         186.000
  22369470.804   -14787391.78849 -11503091.07446  22369470.538    22369479.209
       231.000         185.000
  23039996.301    -9506948.07049  -7161825.27746  23039996.153    23040005.175
       221.000         167.000
 01  6 24  1 37 30.0000000  0  7G20G22G14G25G11G 1G29
  20953708.242   -24661416.15049 -19208703.48347  20953707.700    20953714.134
       242.000         209.000
  22470079.054   -14353778.41649 -11159483.08946  22470077.439    22470089.254
       222.000         174.000
  24377467.335    -6808420.67949  -5294663.38845  24377467.770    24377476.321
       208.000         144.000
  21371999.365   -20821486.34649 -16216484.34447  21371999.213    21372005.651
       243.000         208.000
  22209397.038   -18143994.19949 -14116439.04446  22209396.805    22209405.932
       232.000         186.000
  22359530.934   -14839625.78549 -11543792.83146  22359530.349    22359538.776
       231.000         186.000
  23051607.332    -9445931.90149  -7114280.28646  23051606.995    23051616.032
       219.000         167.000
 01  6 24  1 38  0.0000000  0  7G20G22G14G25G11G 1G29
  20942611.230   -24719731.28049 -19254143.83147  20942610.762    20942617.425
       242.000         209.000
  22452584.853   -14445710.25949 -11231118.09546  22452583.740    22452594.006
       223.000         174.000
  24391404.688    -6735179.70849  -5237592.62045  24391404.492    24391414.099
       211.000         144.000
  21383106.572   -20763117.63649 -16171002.25547  21383106.373    21383112.949
       243.000         208.000
  22221673.744   -18079479.89149 -14066168.22946  22221673.486    22221682.944
       232.000         186.000
  22349613.871   -14891740.01149 -11584401.26046  22349613.365    22349622.257
       231.000         186.000
  23063229.653    -9384856.72349  -7066689.32846  23063229.528    23063238.120
       219.000         166.000
 01  6 24  1 38 30.0000000  0  7G20G22G14G25G11G 1G29
  20931580.538   -24777697.89549 -19299312.60547  20931579.839    20931586.528
       242.000         209.000
  22435134.765   -14537410.40749 -11302572.55446  22435133.390    22435143.897
       222.000         174.000
  24405344.284    -6661927.02449  -5180512.71645  24405344.182    24405353.993
       211.000         144.000
  21394273.831   -20704433.18549 -16125274.13047  21394273.822    21394280.214
       243.000         208.000
  22234018.476   -18014608.26949 -14015618.98346  22234018.100    22234027.526
       232.000         185.000
  22339719.478   -14943735.16949 -11624916.91046  22339719.044    22339727.324
       232.000         186.000
  23074863.131    -9323722.85949  -7019052.61746  23074863.215    23074871.291
       221.000         166.000
 01  6 24  1 39  0.0000000  0  7G20G22G14G25G11G 1G29
  20920616.385   -24835314.77349 -19344208.85747  20920615.829    20920622.258
       242.000         209.000
  22417729.080   -14628877.08749 -11373845.09446  22417728.220    22417738.632
       223.000         174.000
  24419286.020    -6588663.66249  -5123424.50445  24419285.790    24419295.213
       212.000         144.000
  21405500.628   -20645436.00249 -16079302.32047  21405500.570    21405506.852
       243.000         208.000
  22246430.483   -17949383.12649 -13964794.27746  22246430.257    22246439.186
       232.000         185.000
  22329847.520   -14995612.50949 -11665340.75146  22329847.238    22329855.650
       232.000         187.000
  23086507.544    -9262531.17749  -6971370.85246  23086507.723    23086516.094
       219.000         166.000
 01  6 24  1 39 30.0000000  0  7G20G22G14G25G11G 1G29
  20909719.408   -24892578.69049 -19388830.07247  20909718.883    20909725.539
       242.000         210.000
  22400368.696   -14720105.79049 -11444932.20246  22400367.658    22400378.289
       223.000         174.000
  24433229.775    -6515388.93949  -5066327.42345  24433228.898    24433239.204
       212.000         144.000
  21416786.746   -20586127.04649 -16033087.57147  21416786.887    21416793.204
       243.000         207.000
  22258909.388   -17883806.21549 -13913695.45846  22258908.878    22258918.163
       232.000         185.000
  22319998.118   -15047371.25949 -11705672.19346  22319997.647    22320006.291
       231.000         187.000
  23098163.142    -9201280.84449  -6923643.38146  23098162.785    23098171.694
       219.000         167.000
 01  6 24  1 40  0.0000000  0  7G20G22G14G25G11G 1G29
  20898889.958   -24949487.68749 -19433174.72447  20898889.360    20898896.132
       242.000         210.000
  22383054.333   -14811092.66149 -11515830.86946  22383053.235    22383063.358
       224.000         175.000
  24447175.701    -6442102.74749  -5009221.41245  24447175.093    24447185.992
       212.000         144.000
  21428131.797   -20526508.60349 -15986631.66447  21428131.783    21428138.052
       242.000         207.000
  22271454.688   -17817880.42149 -13862324.78846  22271454.863    22271463.773
       231.000         184.000
  22310171.184   -15099011.70549 -11745911.44446  22310170.390    22310179.152
       232.000         187.000
  23109829.951    -9139971.82049  -6875870.18846  23109830.377    23109838.828
       220.000         167.000
 01  6 24  1 40 30.0000000  0  7G20G22G14G25G11G 1G29
  20888128.711   -25006038.32649 -19477240.14247  20888128.160    20888134.841
       242.000         210.000
  22365786.726   -14901833.54949 -11586537.86646  22365785.399    22365795.792
       223.000         175.000
  24461124.044    -6368804.17249  -4952105.75045  24461123.327    24461133.653
       213.000         144.000
  21439535.400   -20466582.28349 -15939935.85847  21439535.379    21439541.675
       241.000         207.000
  22284066.042   -17751607.48849 -13810683.61846  22284065.812    22284074.517
       232.000         184.000
  22300366.938   -15150533.17349 -11786057.98947  22300366.188    22300374.702
       233.000         188.000
  23121508.056    -9078603.06849  -6828050.45046  23121507.863    23121516.304
       219.000         166.000
 01  6 24  1 41  0.0000000  0  7G20G22G14G25G11G 1G29
  20877435.866   -25062229.60849 -19521025.53647  20877435.402    20877441.987
       243.000         210.000
  22348566.264   -14992326.83949 -11657051.94246  22348565.320    22348575.645
       225.000         175.000
  24475074.528    -6295494.42949  -4894981.38345  24475074.319    24475084.659
       212.000         143.000
  21450997.001   -20406351.06949 -15893002.46747  21450996.864    21451003.408
       241.000         206.000
  22296742.758   -17684991.30849 -13758774.99146  22296742.536    22296751.208
       232.000         184.000
  22290585.061   -15201937.18049 -11826113.00147  22290584.499    22290592.911
       233.000         188.000
  23133197.279    -9017175.88149  -6780185.18646  23133197.011    23133206.158
       220.000         166.000
 01  6 24  1 41 30.0000000  0  7G20G22G14G25G11G 1G29
  20866811.812   -25118059.16749 -19564529.06947  20866811.207    20866817.776
       242.000         210.000
  22331393.574   -15082569.12849 -11727370.43546  22331392.429    22331402.596
       224.000         176.000
  24489027.186    -6222173.25449  -4837848.10845  24489027.229    24489037.032
       213.000         144.000
  21462516.338   -20345816.68449 -15845832.84247  21462516.179    21462522.758
       241.000         206.000
  22309484.228   -17618034.78949 -13706601.15846  22309483.836    22309492.806
       231.000         184.000
  22280825.504   -15253223.71449 -11866076.46947  22280825.386    22280833.169
       232.000         188.000
  23144897.733    -8955689.88649  -6732274.07046  23144898.270    23144906.209
       218.000         166.000
 01  6 24  1 42  0.0000000  0  7G20G22G14G25G11G 1G29
  20856257.190   -25173523.97549 -19607748.37547  20856256.804    20856263.073
       242.000         210.000
  22314269.606   -15172555.49749 -11797489.49946  22314268.074    22314279.439
       225.000         176.000
  24502982.199    -6148839.65849  -4780705.15845  24502982.268    24502992.630
       213.000         143.000
  21474093.075   -20284980.58749 -15798428.11447  21474092.995    21474099.472
       241.000         206.000
  22322290.166   -17550739.40549 -13654163.27946  22322289.650    22322299.351
       232.000         183.000
  22271088.466   -15304392.02449 -11905947.82047  22271087.917    22271096.298
       233.000         189.000
  23156609.615    -8894143.97949  -6684316.29346  23156609.933    23156618.480
       218.000         166.000
 01  6 24  1 42 30.0000000  0  7G20G22G14G25G11G 1G29
  20845772.213   -25228622.90849 -19650682.58347  20845771.503    20845778.104
       242.000         211.000
  22297194.758   -15262283.73449 -11867407.42446  22297193.844    22297204.026
       225.000         177.000
  24516939.296    -6075495.01749  -4723553.59545  24516940.725    24516948.580
       212.000         143.000
  21485726.557   -20223846.26449 -15750791.00547  21485726.441    21485732.962
       241.000         206.000
  22335159.794   -17483109.37549 -13601464.63946  22335160.100    22335169.124
       231.000         183.000
  22261373.623   -15355443.55749 -11945728.18247  22261373.352    22261381.748
       233.000         189.000
  23168332.619    -8832539.38149  -6636312.76146  23168332.777    23168341.727
       220.000         166.000
 01  6 24  1 43  0.0000000  0  7G20G22G14G25G11G 1G29
  20835357.570   -25283352.13549 -19693328.70747  20835356.863    20835363.342
       243.000         211.000
  22280169.933   -15351749.15649 -11937120.57246  22280168.900    22280178.881
       225.000         177.000
  24530898.784    -6002137.70049  -4666392.15045  24530898.582    24530908.158
       213.000         142.000
  21497416.726   -20162414.01549 -15702921.75047  21497416.728    21497423.358
       241.000         205.000
  22348092.881   -17415145.99549 -13548506.25246  22348092.817    22348102.071
       232.000         183.000
  22251681.306   -15406376.88149 -11985416.43347  22251681.002    22251689.417
       233.000         189.000
  23180067.099    -8770874.42649  -6588262.22846  23180067.163    23180075.099
       221.000         166.000
 01  6 24  1 43 30.0000000  0  7G20G22G14G25G11G 1G29
  20825013.408   -25337710.91849 -19735686.17547  20825012.854    20825019.534
       242.000         211.000
  22263195.369   -15440950.32049 -12006627.79446  22263193.992    22263204.030
       226.000         177.000
  24544860.525    -5928768.80849  -4609221.67345  24544860.846    24544870.451
       213.000         141.000
  21509162.918   -20100687.39249 -15654823.11147  21509162.866    21509169.394
       240.000         205.000
  22361088.649   -17346853.15649 -13495291.14046  22361088.341    22361097.596
       232.000         183.000
  22242011.165   -15457193.60049 -12025013.81447  22242011.046    22242018.802
       233.000         189.000
  23191812.777    -8709150.53949  -6540165.74946  23191812.612    23191822.450
       216.000         166.000
 01  6 24  1 44  0.0000000  0  7G20G22G14G25G11G 1G29
  20814740.301   -25391696.35349 -19777752.71847  20814739.596    20814746.247
       242.000         211.000
  22246271.947   -15529882.85149 -12075925.70346  22246270.857    22246280.507
       225.000         177.000
  24558824.614    -5855387.63149  -4552041.63245  24558824.100    24558835.418
       213.000         141.000
  21520964.883   -20038667.64449 -15606496.06347  21520964.976    21520971.298
       241.000         205.000
  22374146.653   -17278233.29549 -13441821.21346  22374146.491    22374155.392
       232.000         183.000
  22232363.312   -15507893.09549 -12064519.85647  22232362.975    22232371.274
       233.000         189.000
  23203569.855    -8647366.78749  -6492022.64146  23203570.233    23203579.056
       219.000         165.000
 01  6 24  1 44 30.0000000  0  7G20G22G14G25G11G 1G29
  20804538.687   -25445306.22449 -19819526.61447  20804538.018    20804544.585
       243.000         211.000
  22229400.364   -15618543.03449 -12145011.39146  22229398.598    22229409.182
       226.000         178.000
  24572790.994    -5781994.42349  -4494852.20845  24572791.161    24572802.168
       213.000         140.000
  21532822.216   -19976357.16149 -15557942.46847  21532822.157    21532828.774
       240.000         205.000
  22387266.334   -17209289.23449 -13388098.66246  22387265.888    22387275.281
       231.000         183.000
  22222737.692   -15558475.84549 -12103934.92747  22222737.419    22222745.911
       233.000         189.000
  23215338.388    -8585523.10649  -6443832.82146  23215338.765    23215347.433
       218.000         165.000
 01  6 24  1 45  0.0000000  0  7G20G22G14G25G11G 1G29
  20794408.912   -25498538.38949 -19861006.19247  20794408.241    20794415.035
       243.000         212.000
  22212581.185   -15706927.75749 -12213882.44646  22212580.121    22212590.300
       226.000         178.000
  24586759.664    -5708589.13549  -4437653.37945  24586760.200    24586768.774
       212.000         139.000
  21544734.395   -19913758.28149 -15509164.15247  21544734.531    21544740.833
       240.000         204.000
  22400447.205   -17140023.83149 -13334125.71646  22400446.863    22400456.026
       231.000         182.000
  22213134.215   -15608942.21449 -12143259.31747  22213133.388    22213142.337
       233.000         189.000
  23227118.283    -8523619.63149  -6395596.41446  23227118.331    23227127.016
       218.000         165.000
 01  6 24  1 45 30.0000000  0  7G20G22G14G25G11G 1G29
  20784351.432   -25551390.83049 -19902189.88147  20784350.833    20784357.373
       242.000         212.000
  22195814.954   -15795034.15049 -12282536.62146  22195813.568    22195823.431
       226.000         178.000
  24600730.608    -5635171.87449  -4380445.20645  24600730.469    24600741.081
       212.000         139.000
  21556701.070   -19850873.03649 -15460162.69047  21556700.986    21556707.606
       240.000         204.000
  22413688.573   -17070440.19449 -13279904.79846  22413688.966    22413697.221
       231.000         182.000
  22203552.842   -15659292.40049 -12182493.17047  22203552.381    22203560.723
       232.000         190.000
  23238909.564    -8461656.31449  -6347313.37646  23238909.528    23238918.667
       217.000         165.000
 01  6 24  1 46  0.0000000  0  7G20G22G14G25G11G 1G29
  20774366.695   -25603860.78149 -19943075.52347  20774366.126    20774372.596
       243.000         212.000
  22179102.393   -15882858.49249 -12350971.01546  22179100.708    22179110.857
       226.000         178.000
  24614703.883    -5561741.96449  -4323227.19345  24614704.275    24614712.996
       213.000         140.000
  21568721.895   -19787703.21749 -15410939.48547  21568721.795    21568728.350
       240.000         204.000
  22426990.139   -17000540.35249 -13225437.49746  22426989.618    22426999.440
       231.000         182.000
  22193993.676   -15709525.97249 -12221636.15647  22193993.078    22194001.380
       233.000         190.000
  23250712.347    -8399632.39149  -6298983.11446  23250712.776    23250720.635
       218.000         165.000
 01  6 24  1 46 30.0000000  0  7G20G22G14G25G11G 1G29
  20764455.357   -25655945.14049 -19983660.70247  20764454.717    20764461.244
       243.000         212.000
  22162444.430   -15970396.10549 -12419181.98346  22162443.699    22162452.883
       226.000         179.000
  24628679.762    -5488298.34349  -4265998.47645  24628680.719    24628689.355
       209.000         139.000
  21580796.752   -19724249.50449 -15361495.06447  21580796.865    21580803.265
       240.000         204.000
  22440351.481   -16930326.41049 -13170725.42846  22440351.398    22440360.162
       230.000         181.000
  22184456.820   -15759642.20049 -12260687.70647  22184456.141    22184464.927
       232.000         190.000
  23262526.877    -8337547.05149  -6250604.99646  23262526.848    23262536.117
       218.000         165.000
 01  6 24  1 47  0.0000000  0  7G20G22G14G25G11G 1G29
  20754617.353   -25707644.15049 -20023945.61248  20754616.698    20754623.156
       243.000         213.000
  22145841.244   -16057645.88849 -12487168.67246  22145840.024    22145850.342
       227.000         179.000
  24642657.809    -5414843.59349  -4208761.09345  24642658.213    24642667.156
       211.000         139.000
  21592924.640   -19660517.09049 -15311833.47447  21592924.759    21592931.457
       239.000         203.000
  22453771.544   -16859803.79149 -13115772.83746  22453771.368    22453780.153
       230.000         181.000
  22174941.771   -15809643.77049 -12299649.91247  22174941.028    22174949.598
       232.000         190.000
  23274352.630    -8275402.59649  -6202180.81246  23274353.241    23274361.438
       219.000         165.000
 01  6 24  1 47 30.0000000  0  7G20G22G14G25G11G 1G29
  20744853.373   -25758954.13049 -20063927.38448  20744852.637    20744859.265
       243.000         213.000
  22129293.694   -16144603.11949 -12554927.40046  22129292.769    22129301.897
       228.000         179.000
  24656638.337    -5341375.98749  -4151513.68545  24656637.235    24656648.670
       209.000         139.000
  21605105.482   -19596506.27249 -15261954.95047  21605105.597    21605111.987
       240.000         203.000
  22467250.200   -16788973.39449 -13060580.42646  22467250.006    22467259.091
       230.000         181.000
  22165448.822   -15859529.23249 -12338521.64247  22165448.190    22165456.358
       232.000         190.000
  23286189.992    -8213197.04649  -6153709.01546  23286190.336    23286199.129
       218.000         165.000
 01  6 24  1 48  0.0000000  0  7G20G22G14G25G11G 1G29
  20735163.801   -25809872.97649 -20103604.38048  20735163.195    20735169.613
       243.000         213.000
  22112802.332   -16231265.04249 -12622456.01846  22112800.976    22112809.955
       226.000         179.000
  24670621.247    -5267895.54749  -4094256.30545  24670620.485    24670630.592
       210.000         140.000
  21617338.940   -19532219.13949 -15211861.11547  21617338.688    21617345.541
       239.000         203.000
  22480786.780   -16717838.42249 -13005150.67646  22480786.595    22480795.881
       230.000         180.000
  22155977.939   -15909298.72349 -12377303.01047  22155977.296    22155985.853
       232.000         190.000
  23298038.917    -8150930.61649  -6105189.78846  23298039.453    23298047.030
       219.000         164.000
 01  6 24  1 48 30.0000000  0  7G20G22G14G25G11G 1G29
  20725549.233   -25860397.97349 -20142974.48248  20725548.491    20725555.020
       243.000         213.000
  22096367.953   -16317627.77549 -12689751.50846  22096366.384    22096376.080
       227.000         180.000
  24684606.719    -5194401.79549  -4036988.53945  24684606.043    24684617.174
       208.000         140.000
  21629624.628   -19467657.54949 -15161553.41847  21629624.483    21629631.409
       239.000         203.000
  22494380.853   -16646401.46949 -12949485.62546  22494380.774    22494390.128
       230.000         180.000
  22146529.189   -15958952.17249 -12415993.95247  22146528.407    22146537.215
       232.000         190.000
  23309899.532    -8088602.83549  -6056622.76446  23309899.842    23309908.116
       218.000         165.000
 01  6 24  1 49  0.0000000  0  7G20G22G14G25G11G 1G29
  20716009.768   -25910527.94249 -20182036.77148  20716009.125    20716015.647
       243.000         213.000
  22079991.021   -16403688.54149 -12756811.69346  22079989.381    22079999.922
       227.000         180.000
  24698594.561    -5120895.64349  -3979711.12645  24698595.468    24698605.045
       208.000         141.000
  21641961.945   -19402824.59249 -15111034.26347  21641962.201    21641968.506
       239.000         203.000
  22508031.717   -16574666.22949 -12893588.13446  22508031.794    22508040.892
       230.000         180.000
  22137102.259   -16008490.61349 -12454595.28247  22137101.524    22137109.899
       232.000         190.000
  23321771.772    -8026214.23049  -6008008.34046  23321771.773    23321780.472
       218.000         164.000
 01  6 24  1 49 30.0000000  0  7G20G22G14G25G11G 1G29
  20706545.982   -25960260.46049 -20220789.35548  20706545.427    20706551.610
       243.000         213.000
  22063672.218   -16489443.59449 -12823633.65846  22063671.018    22063681.319
       227.000         180.000
  24712584.819    -5047376.91049  -3922423.90345  24712584.444    24712593.411
       204.000         140.000
  21654350.630   -19337721.80249 -15060304.84747  21654350.705    21654357.154
       240.000         203.000
  22521738.812   -16502635.33449 -12837460.26746  22521738.875    22521748.129
       230.000         179.000
  22127697.286   -16057913.83649 -12493106.82547  22127696.764    22127704.862
       233.000         190.000
  23333655.613    -7963764.60449  -5959346.36446  23333655.786    23333664.814
       218.000         164.000
 01  6 24  1 50  0.0000000  0  7G20G22G14G25G11G 1G29
  20697158.269   -26009593.08549 -20259230.33948  20697157.696    20697164.161
       243.000         213.000
  22047412.239   -16574889.86349 -12890215.01846  22047410.815    22047420.607
       227.000         181.000
  24726577.547    -4973845.05749  -3865126.44545  24726576.417    24726586.967
       205.000         140.000
  21666790.203   -19272351.54449 -15009367.01147  21666790.143    21666796.720
       240.000         203.000
  22535501.672   -16430311.64649 -12781104.25146  22535501.417    22535511.499
       230.000         179.000
  22118314.205   -16107221.98149 -12531528.70247  22118313.680    22118322.096
       233.000         191.000
  23345551.169    -7901253.48849  -5910636.47846  23345551.341    23345559.862
       216.000         163.000
 01  6 24  1 50 30.0000000  0  7G20G22G14G25G11G 1G29
  20687847.186   -26058523.10149 -20297357.60548  20687846.622    20687852.900
       243.000         214.000
  22031211.661   -16660023.70749 -12956552.92846  22031210.570    22031220.602
       228.000         181.000
  24740572.858    -4900299.54649  -3807818.35045  24740572.768    24740582.858
       202.000         140.000
  21679280.545   -19206714.74149 -14958221.48547  21679280.666    21679287.216
       240.000         202.000
  22549319.817   -16357697.08449 -12724521.58446  22549319.991    22549328.819
       229.000         179.000
  22108953.180   -16156414.37849 -12569860.38347  22108952.541    22108961.160
       233.000         191.000
  23357458.553    -7838680.20849  -5861878.16846  23357458.918    23357467.282
       218.000         163.000
 01  6 24  1 51  0.0000000  0  7G20G22G14G25G11G 1G29
  20678612.992   -26107049.09049 -20335170.04848  20678612.325    20678618.890
       243.000         214.000
  22015071.145   -16744842.10749 -13022645.03946  22015070.584    22015079.553
       227.000         181.000
  24754570.694    -4826740.74449  -3750499.92545  24754571.427    24754581.396
       203.000         140.000
  21691820.933   -19140814.68849 -14906870.82547  21691821.285    21691827.603
       240.000         202.000
  22563192.604   -16284795.44049 -12667715.21146  22563192.167    22563201.836
       229.000         179.000
  22099613.959   -16205491.83549 -12608102.50247  22099613.556    22099621.545
       233.000         191.000
  23369377.590    -7776045.43349  -5813071.92946  23369377.826    23369386.507
       218.000         163.000
 01  6 24  1 51 30.0000000  0  7G20G22G14G25G11G 1G29
  20669456.264   -26155167.92349 -20372665.22948  20669455.674    20669461.925
       243.000         214.000
  21998991.502   -16829340.54549 -13088487.83346  21998990.406    21998999.705
       227.000         182.000
  24768571.222    -4753167.86849  -3693170.53045  24768570.416    24768581.887
       203.000         140.000
  21704411.130   -19074652.82849 -14855316.16647  21704411.099    21704417.758
       239.000         202.000
  22577119.615   -16211608.83149 -12610686.78646  22577119.775    22577128.675
       230.000         179.000
  22090296.766   -16254453.87349 -12646254.68147  22090296.396    22090304.887
       233.000         191.000
  23381308.589    -7713347.99649  -5764216.87146  23381307.618    23381318.247
       216.000         163.000
 01  6 24  1 52  0.0000000  0  7G20G22G14G25G11G 1G29
  20660377.100   -26202879.02949 -20409842.70548  20660376.369    20660382.890
       243.000         214.000
  21982973.102   -16913517.19849 -13154079.88346  21982971.835    21982981.406
       228.000         182.000
  24782574.157    -4679582.23349  -3635831.18445  24782573.331    24782583.992
       196.000         139.000
  21717050.608   -19008232.04349 -14803559.74547  21717050.649    21717057.273
       239.000         202.000
  22591100.133   -16138141.16249 -12553439.35446  22591099.727    22591109.061
       229.000         179.000
  22081001.249   -16303301.80349 -12684317.95447  22081000.971    22081009.361
       233.000         191.000
  23393251.243    -7650589.05349  -5715313.88945  23393251.199    23393260.223
       216.000         162.000
 01  6 24  1 52 30.0000000  0  7G20G22G14G25G11G 1G29
  20651376.135   -26250179.34449 -20446700.08348  20651375.700    20651382.003
       243.000         214.000
  21967016.624   -16997368.43249 -13219418.35446  21967015.322    21967024.792
       228.000         182.000
  24796579.641    -4605982.74049  -3578481.05445  24796578.586    24796591.146
       200.000         137.000
  21729739.109   -18941553.81249 -14751602.71747  21729739.185    21729745.644
       239.000         202.000
  22605133.700   -16064394.85249 -12495974.80046  22605133.552    22605143.517
       229.000         178.000
  22071727.605   -16352034.97949 -12722291.80447  22071726.951    22071735.396
       234.000         191.000
  23405205.771    -7587767.77349  -5666362.33145  23405205.813    23405214.443
       216.000         162.000
 01  6 24  1 53  0.0000000  0  6G20G22G25G11G 1G29
  20642453.805   -26297066.45449 -20483235.48448  20642453.277    20642459.543
       243.000         214.000
  21951122.748   -17080890.78849 -13284500.56446  21951121.255    21951130.906
       228.000         182.000
  21742476.224   -18874619.89149 -14699446.44747  21742476.107    21742482.814
       239.000         201.000
  22619219.757   -15990372.57549 -12438295.20546  22619219.570    22619229.083
       228.000         178.000
  22062475.808   -16400653.31249 -12760176.16047  22062475.236    22062483.812
       233.000         192.000
  23417172.312    -7524883.56149  -5617361.74645  23417172.299    23417181.622
       216.000         162.000
 01  6 24  1 53 30.0000000  0  6G20G22G25G11G 1G29
  20633610.972   -26343535.89049 -20519445.42548  20633610.299    20633616.633
       243.000         214.000
  21935292.695   -17164077.86149 -13349321.50946  21935291.284    21935300.957
       228.000         183.000
  21755262.020   -18807430.24649 -14647090.91147  21755261.776    21755268.594
       239.000         201.000
  22633358.210   -15916074.64149 -12380400.81346  22633358.622    22633367.541
       229.000         178.000
  22053246.316   -16449154.31749 -12797969.08847  22053245.946    22053254.147
       234.000         192.000
  23429151.303    -7461933.92649  -5568310.18145  23429151.316    23429160.828
       216.000         162.000
 01  6 24  1 54  0.0000000  0  6G20G22G25G11G 1G29
  20624847.230   -26389589.50149 -20555331.34948  20624846.676    20624852.917
       243.000         214.000
  21919526.269   -17246930.27849 -13413881.69546  21919525.318    21919534.576
       228.000         183.000
  21768095.353   -18739990.69149 -14594540.64147  21768095.381    21768102.072
       239.000         201.000
  22647547.852   -15841508.02449 -12322297.05646  22647547.319    22647557.292
       229.000         178.000
  22044038.405   -16497542.21849 -12835673.88847  22044037.910    22044046.076
       234.000         192.000
  23441141.999    -7398922.62449  -5519210.55145  23441142.205    23441150.754
       216.000         161.000
 01  6 24  1 54 30.0000000  0  6G20G22G25G11G 1G29
  20616163.116   -26435224.73449 -20590891.26148  20616162.588    20616168.900
       243.000         214.000
  21903824.155   -17329444.93049 -13478178.68746  21903823.479    21903832.354
       229.000         184.000
  21780975.866   -18672303.36649 -14541797.30147  21780975.994    21780982.389
       239.000         201.000
  22661788.109   -15766675.50449 -12263986.10246  22661788.360    22661798.101
       228.000         177.000
  22034851.993   -16545816.93849 -12873290.49047  22034851.430    22034860.003
       235.000         193.000
  23453144.485    -7335849.35949  -5470062.64345  23453145.295    23453153.773
       217.000         161.000
 01  6 24  1 55  0.0000000  0  6G20G22G25G11G 1G29
  20607559.162   -26480438.77649 -20626122.97648  20607558.574    20607564.972
       243.000         214.000
  21888186.998   -17411618.09149 -13542209.57746  21888185.794    21888194.921
       229.000         184.000
  21793903.343   -18604369.12349 -14488861.56047  21793903.375    21793909.961
       239.000         201.000
  22676078.561   -15691579.14649 -12205469.55546  22676078.268    22676087.506
       227.000         177.000
  22025687.275   -16593977.64549 -12910818.25847  22025686.564    22025695.229
       235.000         193.000
  23465159.035    -7272712.93949  -5420865.52645  23465159.478    23465168.063
       216.000         160.000
 01  6 24  1 55 30.0000000  0  6G20G22G25G11G 1G29
  20599035.849   -26525228.95449 -20661024.40348  20599035.295    20599041.640
       243.000         214.000
  21872615.669   -17493445.52849 -13605971.08446  21872614.694    21872623.900
       227.000         184.000
  21806877.527   -18536189.59449 -14435734.68847  21806877.763    21806884.330
       238.000         201.000
  22690418.742   -15616221.38249 -12146749.32146  22690418.930    22690428.670
       227.000         176.000
  22016544.366   -16642023.82249 -12948256.78047  22016543.704    22016551.927
       235.000         193.000
  23477185.709    -7209512.65849  -5371618.64245  23477185.952    23477195.217
       216.000         160.000
 01  6 24  1 56  0.0000000  0  6G20G22G25G11G 1G29
  20590593.434   -26569594.19149 -20695594.70948  20590592.899    20590599.259
       243.000         215.000
  21857110.616   -17574924.72649 -13669461.23546  21857109.338    21857119.048
       229.000         184.000
  21819897.743   -18467767.95949 -14382419.16547  21819897.719    21819904.679
       239.000         200.000
  22704807.979   -15540605.89549 -12087828.25946  22704807.979    22704817.390
       227.000         176.000
  22007423.000   -16689956.72149 -12985607.03447  22007422.488    22007430.518
       235.000         194.000
  23489224.406    -7146249.36949  -5322322.66545  23489223.999    23489233.732
       216.000         160.000
 01  6 24  1 56 30.0000000  0  6G20G22G25G11G 1G29
  20582232.325   -26613532.07149 -20729832.00448  20582231.777    20582238.116
       244.000         215.000
  21841672.495   -17656051.92049 -13732677.10146  21841671.495    21841680.497
       230.000         185.000
  21832963.725   -18399105.87949 -14328916.28047  21832963.724    21832970.299
       238.000         200.000
  22719245.698   -15464735.33949 -12028708.44546  22719245.024    22719255.828
       227.000         175.000
  21998323.231   -16737776.05549 -13022868.79347  21998322.798    21998330.838
       236.000         194.000
  23501275.187    -7082922.48249  -5272977.12145  23501276.165    23501284.488
       216.000         159.000
 01  6 24  1 57  0.0000000  0  6G20G22G25G11G 1G29
  20573953.113   -26657039.62949 -20763733.98448  20573952.559    20573958.968
       243.000         215.000
  21826302.034   -17736823.69849 -13795616.01846  21826301.166    21826309.982
       229.000         185.000
  21846075.216   -18330204.63149 -14275227.02947  21846075.207    21846082.156
       238.000         200.000
  22733731.540   -15388612.08549 -11969391.71146  22733730.756    22733740.510
       226.000         175.000
  21989245.269   -16785480.96749 -13060041.40247  21989244.903    21989252.993
       235.000         194.000
  23513338.223    -7019531.18449  -5223581.39145  23513338.195    23513346.834
       215.000         159.000
 01  6 24  1 57 30.0000000  0  6G20G22G25G11G 1G29
  20565756.113   -26700115.12149 -20797299.28448  20565755.514    20565761.898
       243.000         215.000
  21810999.708   -17817237.14049 -13858275.71946  21810998.350    21811007.510
       229.000         185.000
  21859231.746   -18261066.84349 -14221353.45947  21859231.989    21859238.141
       238.000         200.000
  22748264.829   -15312239.31849 -11909880.56946  22748264.664    22748273.883
       227.000         174.000
  21980188.983   -16833071.81349 -13097125.11947  21980188.472    21980196.483
       236.000         195.000
  23525413.529    -6956075.48049  -5174135.46345  23525413.595    23525423.796
       215.000         159.000
 01  6 24  1 58  0.0000000  0  6G20G22G25G11G 1G29
  20557641.670   -26742756.81749 -20830526.56548  20557641.121    20557647.434
       243.000         215.000
  21795766.274   -17897288.59449 -13920653.34946  21795765.356    21795774.674
       229.000         186.000
  21872432.902   -18191694.52649 -14167297.14147  21872432.870    21872439.485
       238.000         199.000
  22762845.069   -15235619.93349 -11850177.25546  22762844.651    22762855.811
       226.000         174.000
  21971154.424   -16880548.78849 -13134120.11247  21971153.987    21971162.360
       236.000         195.000
  23537501.088    -6892555.12449  -5124639.16045  23537501.767    23537510.834
       216.000         158.000
 01  6 24  1 58 30.0000000  0  6G20G22G25G11G 1G29
  20549610.101   -26784962.87949 -20863414.38448  20549609.471    20549615.786
       243.000         215.000
  21780602.345   -17976975.26549 -13982746.73346  21780601.194    21780610.382
       230.000         186.000
  21885678.189   -18122090.21249 -14113060.04547  21885678.270    21885684.795
       238.000         199.000
  22777471.577   -15158757.46949 -11790284.52446  22777472.424    22777481.694
       226.000         173.000
  21962141.348   -16927912.58049 -13171026.90947  21962140.816    21962148.539
       236.000         195.000
  23549600.940    -6828970.44349  -5075092.73245  23549601.000    23549610.247
       215.000         157.000
 01  6 24  1 59  0.0000000  0  6G20G22G25G11G 1G29
  20541661.887   -26826731.03949 -20895960.98548  20541661.344    20541667.561
       243.000         215.000
  21765508.441   -18056293.79749 -14044553.26046  21765507.003    21765516.321
       230.000         186.000
  21898967.289   -18052255.68849 -14058643.56747  21898967.590    21898974.188
       238.000         199.000
  22792143.857   -15081654.51849 -11730204.41446  22792143.427    22792153.277
       226.000         173.000
  21953149.904   -16975162.75949 -13207845.17347  21953149.681    21953157.294
       236.000         195.000
  23561713.075    -6765321.05549  -5025495.88345  23561712.766    23561721.516
       214.000         157.000
 01  6 24  1 59 30.0000000  0  6G20G22G25G11G 1G29
  20533797.481   -26868058.57249 -20928164.23848  20533796.858    20533803.274
       243.000         215.000
  21750485.274   -18135240.48749 -14106070.04046  21750484.523    21750493.180
       231.000         186.000
  21912299.949   -17982192.12449 -14004048.61547  21912300.020    21912306.663
       238.000         199.000
  22806861.513   -15004313.21549 -11669938.55846  22806861.408    22806871.480
       227.000         173.000
  21944180.188   -17022298.68249 -13244574.41347  21944179.711    21944187.762
       237.000         196.000
  23573837.715    -6701605.94549  -4975847.81445  23573837.632    23573846.728
       214.000         156.000
 01  6 24  2  0  0.0000000  0  6G20G22G25G11G 1G29
  20526017.220   -26908944.12349 -20960023.09148  20526016.554    20526022.902
       243.000         215.000
  21735533.328   -18213813.06149 -14167295.30446  21735532.134    21735541.002
       230.000         187.000
  21925675.638   -17911902.59049 -13949277.58547  21925675.771    21925682.145
       238.000         199.000
  22821623.733   -14926737.58049 -11609490.11246  22821623.459    22821633.684
       227.000         172.000
  21935232.058   -17069321.31849 -13281215.37847  21935231.475    21935239.564
       237.000         196.000
  23585974.744    -6637825.68149  -4926148.99345  23585975.179    23585983.710
       214.000         156.000
 01  6 24  2  0 30.0000000  0  6G20G22G25G11G 1G29
  20518321.366   -26949385.91249 -20991536.15548  20518320.822    20518327.063
       243.000         215.000
  21720653.291   -18292007.67149 -14228226.05046  21720652.745    21720661.309
       231.000         187.000
  21939093.967   -17841388.84249 -13894331.84747  21939094.001    21939100.585
       238.000         198.000
  22836430.013   -14848930.50749 -11548861.33246  22836430.058    22836439.312
       226.000         172.000
  21926305.479   -17116230.60649 -13317768.01847  21926304.945    21926312.930
       237.000         196.000
  23598124.143    -6573980.41449  -4876399.51045  23598124.059    23598132.919
       216.000         156.000
 01  6 24  2  1  0.0000000  0  6G20G22G25G11G 1G29
  20510710.429   -26989381.58349 -21022701.59948  20510709.901    20510716.169
       243.000         215.000
  21705845.818   -18369820.92749 -14288859.64246  21705844.407    21705854.069
       231.000         187.000
  21952554.554   -17770653.12549 -13839213.13947  21952554.533    21952561.198
       238.000         198.000
  22851279.796   -14770894.74949 -11488054.36246  22851279.618    22851290.047
       226.000         171.000
  21917400.493   -17163026.34949 -13354232.18847  21917400.000    21917407.763
       237.000         196.000
  23610286.069    -6510069.36449  -4826598.77345  23610286.489    23610295.484
       215.000         155.000
 01  6 24  2  1 30.0000000  0  6G20G22G25G11G 1G29
  20503184.893   -27028928.55749 -21053517.40948  20503184.361    20503190.594
       243.000         215.000
  21691111.571   -18447249.50749 -14349193.48847  21691110.597    21691119.636
       232.000         188.000
  21966057.109   -17699696.94449 -13783922.64347  21966057.065    21966063.714
       238.000         198.000
  22866172.626   -14692632.72549 -11427071.06546  22866172.078    22866182.723
       226.000         171.000
  21908517.224   -17209708.06249 -13390607.50547  21908516.729    21908524.785
       237.000         196.000
  23622460.645    -6446091.79449  -4776746.20445  23622460.371    23622469.699
       214.000         155.000
 01  6 24  2  2  0.0000000  0  6G20G22G25G11G 1G29
  20495745.061   -27068025.00649 -21083982.16048  20495744.561    20495750.783
       243.000         215.000
  21676451.075   -18524290.60349 -14409225.40147  21676450.296    21676459.202
       232.000         188.000
  21979601.295   -17628521.88549 -13728461.59047  21979601.329    21979608.013
       238.000         198.000
  22881107.916   -14614147.54749 -11365913.89546  22881107.619    22881118.007
       225.000         170.000
  21899655.619   -17256275.86449 -13426894.06547  21899655.164    21899663.003
       237.000         196.000
  23634647.891    -6382047.65449  -4726841.76545  23634648.014    23634656.769
       216.000         155.000
 01  6 24  2  2 30.0000000  0  6G20G22G25G11G 1G29
  20488391.197   -27106669.80249 -21114094.97648  20488390.682    20488396.895
       243.000         215.000
  21661864.813   -18600941.40349 -14468953.18247  21661863.414    21661872.404
       232.000         189.000
  21993186.499   -17557131.43149 -13672832.70447  21993186.574    21993193.367
       238.000         197.000
  22896085.013   -14535442.96449 -11304585.75046  22896084.680    22896093.518
       225.000         170.000
  21890815.492   -17302730.79749 -13463092.67447  21890814.644    21890822.863
       237.000         196.000
  23646847.700    -6317937.64349  -4676886.00545  23646848.398    23646856.444
       215.000         155.000
 01  6 24  2  3  0.0000000  0  6G20G22G25G11G 1G29
  20481123.906   -27144859.58649 -21143853.24048  20481123.323    20481129.664
       243.000         216.000
  21647353.753   -18677197.11449 -14528373.11247  21647352.560    21647361.167
       231.000         189.000
  22006812.520   -17485526.31049 -13617036.54847  22006812.411    22006819.296
       237.000         197.000
  22911103.516   -14456520.58449 -11243087.89346  22911102.844    22911113.237
       225.000         170.000
  21881997.128   -17349071.46249 -13499202.24547  21881996.609    21882004.312
       237.000         197.000
  23659060.358    -6253760.08149  -4626877.60745  23659060.743    23659070.613
       216.000         155.000
 01  6 24  2  3 30.0000000  0  6G20G22G25G11G 1G29
  20473943.297   -27182593.80349 -21173256.51648  20473942.754    20473949.039
       243.000         216.000
  21632918.185   -18753056.14049 -14587483.92947  21632917.403    21632926.191
       233.000         189.000
  22020478.852   -17413709.43949 -13561075.39547  22020478.810    22020485.735
       237.000         197.000
  22926162.623   -14377384.74649 -11181423.71446  22926162.348    22926172.595
       224.000         170.000
  21873200.245   -17395299.10349 -13535223.74347  21873199.739    21873207.559
       237.000         197.000
  23671285.575    -6189516.25549  -4576817.58445  23671285.470    23671295.514
       215.000         155.000
 01  6 24  2  4  0.0000000  0  6G20G22G25G11G 1G29
  20466849.879   -27219869.99749 -21202302.89648  20466849.215    20466855.533
       243.000         216.000
  21618558.681   -18828515.27649 -14646283.15047  21618557.314    21618566.570
       233.000         189.000
  22034185.144   -17341682.49449 -13504950.54547  22034185.231    22034191.873
       237.000         197.000
  22941261.900   -14298037.85949 -11119595.08146  22941261.965    22941271.986
       225.000         169.000
  21864424.982   -17441413.17649 -13571156.74747  21864424.454    21864432.370
       237.000         197.000
  23683523.656    -6125205.15449  -4526705.13745  23683524.107    23683533.234
       215.000         155.000
 01  6 24  2  4 30.0000000  0  6G20G22G25G11G 1G29
  20459844.106   -27256685.62049 -21230990.39348  20459843.635    20459849.815
       243.000         216.000
  21604276.025   -18903570.68849 -14704767.78347  21604274.662    21604283.708
       233.000         190.000
  22047931.126   -17269447.08049 -13448663.26047  22047930.925    22047937.845
       237.000         196.000
  22956400.842   -14218482.38849 -11057603.92346  22956400.045    22956411.152
       224.000         169.000
  21855671.449   -17487413.22449 -13607000.90547  21855670.964    21855678.584
       237.000         197.000
  23695774.630    -6060826.01249  -4476539.68045  23695775.036    23695784.216
       214.000         154.000
 01  6 24  2  5  0.0000000  0  6G20G22G25G11G 1G29
  20452926.078   -27293040.05849 -21259318.52448  20452925.564    20452931.942
       242.000         216.000
  21590070.625   -18978220.07549 -14762936.03547  21590069.476    21590078.603
       232.000         190.000
  22061716.209   -17197006.22549 -13392215.89247  22061716.192    22061722.637
       237.000         196.000
  22971578.698   -14138722.57549 -10995453.53346  22971578.657    22971589.002
       223.000         169.000
  21846939.279   -17533300.73149 -13642757.36847  21846938.609    21846946.754
       237.000         197.000
  23708038.381    -5996380.06249  -4426322.16745  23708038.826    23708048.175
       214.000         154.000
 01  6 24  2  5 30.0000000  0  6G20G22G25G11G 1G29
  20446096.363   -27328930.30849 -21287284.94448  20446095.752    20446102.229
       243.000         216.000
  21575943.314   -19052459.21749 -14820784.60747  21575942.326    21575950.983
       233.000         190.000
  22075540.131   -17124361.10749 -13335609.35047  22075540.371    22075546.826
       237.000         196.000
  22986795.094   -14058760.27249 -10933145.35646  22986794.653    22986805.214
       224.000         169.000
  21838228.816   -17579074.34349 -13678425.07847  21838228.409    21838236.461
       236.000         197.000
  23720315.075    -5931865.96749  -4376051.54445  23720314.938    23720324.461
       212.000         154.000
 01  6 24  2  6  0.0000000  0  6G20G22G25G11G 1G29
  20439355.297   -27364354.75349 -21314888.40248  20439354.649    20439361.116
       243.000         216.000
  21561894.532   -19126285.59649 -14878311.55647  21561893.512    21561902.103
       233.000         190.000
  22089402.504   -17051514.00549 -13278845.42747  22089402.625    22089409.214
       237.000         195.000
  23002049.430   -13978598.82049 -10870682.00846  23002049.862    23002059.932
       224.000         169.000
  21829540.004   -17624734.28549 -13714004.21647  21829539.374    21829547.427
       237.000         197.000
  23732604.745    -5867283.64249  -4325727.76445  23732605.079    23732614.183
       214.000         155.000
 01  6 24  2  6 30.0000000  0  6G20G22G25G11G 1G29
  20432703.240   -27399311.54649 -21342127.45548  20432702.674    20432709.000
       243.000         216.000
  21547924.836   -19199696.55949 -14935514.79447  21547923.903    21547932.280
       233.000         191.000
  22103302.981   -16978466.67049 -13221925.47747  22103302.862    22103310.056
       237.000         195.000
  23017341.057   -13898241.44149 -10808065.98946  23017341.316    23017351.141
       224.000         169.000
  21820872.763   -17670280.57949 -13749494.79747  21820872.135    21820880.246
       236.000         197.000
  23744907.430    -5802633.11749  -4275350.84245  23744907.722    23744917.364
       215.000         155.000
 01  6 24  2  7  0.0000000  0  6G20G22G25G11G 1G29
  20426140.599   -27433798.43149 -21369000.34548  20426140.097    20426146.387
       242.000         216.000
  21534034.908   -19272688.26049 -14992391.34247  21534033.859    21534042.370
       234.000         191.000
  22117241.151   -16905221.20749 -13164851.14647  22117241.203    22117247.751
       236.000         195.000
  23032669.453   -13817690.72949 -10745299.31146  23032669.765    23032679.712
       224.000         169.000
  21812227.231   -17715713.07749 -13784896.70147  21812226.630    21812234.710
       236.000         197.000
  23757223.224    -5737913.66749  -4224920.19645  23757223.077    23757232.809
       214.000         155.000
 01  6 24  2  7 30.0000000  0  6G20G22G25G11G 1G29
  20419667.588   -27467814.37849 -21395506.27148  20419667.039    20419673.345
       242.000         216.000
  21520225.268   -19345257.97449 -15048939.06747  21520224.609    21520232.873
       234.000         191.000
  22131216.572   -16831780.10949 -13107624.36547  22131216.478    22131223.487
       236.000         195.000
  23048033.938   -13736950.25649 -10682384.78646  23048033.768    23048044.244
       224.000         169.000
  21803603.211   -17761032.30149 -13820210.34247  21803602.890    21803610.603
       236.000         197.000
  23769552.014    -5673125.89049  -4174436.31845  23769553.061    23769561.080
       215.000         155.000
 01  6 24  2  8  0.0000000  0  6G20G22G25G11G 1G29
  20413284.663   -27501356.86149 -21421643.26448  20413284.038    20413290.467
       242.000         216.000
  21506496.582   -19417402.26949 -15105155.29547  21506495.553    21506503.953
       233.000         191.000
  22145228.943   -16758144.84149 -13050246.28747  22145229.317    22145235.683
       236.000         194.000
  23063434.127   -13656022.35749 -10619324.19946  23063434.407    23063444.333
       225.000         169.000
  21795000.828   -17806237.80549 -13855435.37447  21795000.315    21795008.012
       236.000         197.000
  23781893.986    -5608268.91949  -4123898.52245  23781894.317    23781903.769
       213.000         155.000
 01  6 24  2  8 30.0000000  0  6G20G22G25G11G 1G29
  20406992.238   -27534423.77149 -21447409.68148  20406991.634    20406998.044
       242.000         216.000
  21492849.444   -19489118.11949 -15161037.67147  21492848.670    21492857.111
       234.000         191.000
  22159277.980   -16684316.86949 -12992718.04947  22159277.891    22159284.812
       236.000         194.000
  23078869.427   -13574909.77249 -10556119.71846  23078869.281    23078879.690
       224.000         168.000
  21786420.249   -17851329.00349 -13890571.33147  21786419.745    21786427.499
       236.000         197.000
  23794249.225    -5543341.96149  -4073306.17945  23794249.394    23794258.721
       215.000         155.000
 01  6 24  2  9  0.0000000  0  6G20G22G25G11G 1G29
  20400790.514   -27567013.96749 -21472804.62948  20400789.857    20400796.209
       242.000         216.000
  21479284.275   -19560403.12149 -15216584.32247  21479283.362    21479291.866
       234.000         192.000
  22173363.189   -16610298.87049 -12935041.74447  22173363.520    22173369.878
       236.000         194.000
  23094339.182   -13493616.21649 -10492774.20846  23094338.722    23094349.159
       224.000         168.000
  21777861.248   -17896306.64849 -13925618.80247  21777860.941    21777868.712
       237.000         198.000
  23806617.690    -5478345.58249  -4022659.75645  23806618.081    23806627.076
       214.000         156.000
 01  6 24  2  9 30.0000000  0  6G20G22G25G11G 1G29
  20394679.741   -27599126.23549 -21497827.16748  20394679.217    20394685.655
       242.000         216.000
  21465801.618   -19631254.49749 -15271793.08347  21465800.675    21465809.173
       235.000         192.000
  22187484.000   -16536093.60049 -12877219.50947  22187484.284    22187490.863
       237.000         194.000
  23109842.679   -13412145.03349 -10429290.29546  23109841.859    23109853.440
       224.000         168.000
  21769323.734   -17941171.21049 -13960578.15447  21769323.001    21769331.045
       237.000         198.000
  23818999.281    -5413280.27749  -3971959.60345  23819000.199    23819009.535
       216.000         156.000
 01  6 24  2 10  0.0000000  0  7G20G22G25G11G13G 1G29
  20388659.285   -27630763.89549 -21522479.87648  20388658.695    20388665.074
       242.000         217.000
  21452401.069   -19701674.43749 -15326665.66447  21452400.102    21452408.274
       234.000         192.000
  22201639.077   -16461708.45049 -12819257.10947  22201638.985    22201645.812
       236.000         194.000
  23125378.344   -13330504.85849 -10365674.70646  23125377.944    23125388.804
       224.000         167.000
  24645842.597    -7586666.57149  -3005189.06145  24645842.039    24645852.726
       213.000         140.000
  21760806.746   -17985928.16149 -13995453.66147  21760805.868    21760814.020
       237.000         198.000
  23831392.986    -5348151.27349  -3921209.81245  23831393.170    23831402.842
       214.000         156.000
 01  6 24  2 10 30.0000000  0  7G20G22G25G11G13G 1G29
  20382730.888   -27661917.72149 -21546755.57248  20382730.449    20382736.515
       242.000         217.000
  21439084.552   -19771652.62649 -15381194.02647  21439083.531    21439091.765
       235.000         192.000
  22215829.412   -16387137.96249 -12761150.29547  22215829.391    22215836.076
       236.000         193.000
  23140947.115   -13248690.93249 -10301923.72446  23140946.496    23140957.512
       225.000         167.000
  24631685.298    -7661063.37749  -3063160.45645  24631684.879    24631696.269
       215.000         139.000
  21752311.698   -18030569.74149 -14030239.26947  21752311.248    21752319.251
       237.000         198.000
  23843800.376    -5282950.39149  -3870404.01145  23843800.740    23843810.644
       213.000         156.000
 01  6 24  2 11  0.0000000  0  7G20G22G25G11G13G 1G29
  20376895.151   -27692584.78549 -21570651.96848  20376894.479    20376900.851
       242.000         216.000
  21425852.841   -19841185.36449 -15435375.27947  21425851.682    21425860.278
       235.000         193.000
  22230054.880   -16312382.83149 -12702899.59547  22230054.933    22230061.643
       235.000         193.000
  23156548.609   -13166705.15549 -10238038.82546  23156548.595    23156558.594
       224.000         166.000
  24617531.750    -7735440.26849  -3121116.34945  24617531.767    24617541.390
       214.000         140.000
  21743838.841   -18075094.67249 -14064933.97747  21743838.424    21743846.132
       236.000         198.000
  23856221.667    -5217676.40749  -3819541.23145  23856221.951    23856231.514
       217.000         156.000
 01  6 24  2 11 30.0000000  0  7G20G22G25G11G13G 1G29
  20371152.130   -27722764.44849 -21594168.57548  20371151.505    20371157.877
       242.000         216.000
  21412706.335   -19910270.31349 -15489207.61347  21412704.883    21412713.815
       235.000         193.000
  22244314.934   -16237446.05149 -12644507.35647  22244314.801    22244322.024
       236.000         193.000
  23172181.998   -13084551.68549 -10174023.27146  23172183.012    23172192.516
       224.000         166.000
  24603381.808    -7809798.18249  -3179057.46445  24603380.934    24603391.961
       216.000         139.000
  21735387.978   -18119503.93749 -14099538.55947  21735387.424    21735395.368
       238.000         198.000
  23868656.649    -5152330.32749  -3768622.27445  23868657.582    23868667.478
       215.000         155.000
 01  6 24  2 12  0.0000000  0  7G20G22G25G11G13G 1G29
  20365502.131   -27752455.38849 -21617304.35848  20365501.467    20365507.920
       242.000         216.000
  21399645.573   -19978904.66049 -15542688.82947  21399644.544    21399652.917
       235.000         193.000
  22258609.071   -16162329.99849 -12585975.42547  22258609.235    22258615.969
       235.000         193.000
  23187846.648   -13002233.88349 -10109879.66746  23187846.538    23187856.415
       223.000         166.000
  24589235.375    -7884137.67749  -3236984.21245  24589235.616    24589244.408
       213.000         137.000
  21726959.096   -18163797.92749 -14134053.31347  21726958.460    21726966.785
       237.000         199.000
  23881105.331    -5086912.12549  -3717647.11845  23881105.115    23881114.825
       213.000         155.000
 01  6 24  2 12 30.0000000  0  7G20G22G25G11G13G 1G29
  20359945.368   -27781656.29849 -21640058.29648  20359944.664    20359951.028
       242.000         216.000
  21386671.026   -20047085.97349 -15595817.03447  21386669.707    21386678.670
       235.000         193.000
  22272936.886   -16087037.02349 -12527305.63247  22272936.827    22272943.465
       235.000         193.000
  23203541.900   -12919755.20749 -10045610.70846  23203542.142    23203552.073
       224.000         165.000
  24575092.316    -7958459.29649  -3294897.02545  24575091.288    24575102.389
       214.000         136.000
  21718552.058   -18207977.04649 -14168478.55947  21718551.440    21718559.371
       238.000         199.000
  23893567.737    -5021422.09449  -3666615.98045  23893566.888    23893578.236
       214.000         154.000
 01  6 24  2 13  0.0000000  0  7G20G22G25G11G13G 1G29
  20354482.071   -27810365.95349 -21662429.43448  20354481.576    20354487.877
       242.000         216.000
  21373783.060   -20114812.23349 -15648590.65247  21373782.109    21373789.980
       234.000         194.000
  22287297.942   -16011569.43049 -12468499.76447  22287297.965    22287304.869
       235.000         192.000
  23219267.206   -12837118.83349  -9981218.86746  23219267.695    23219278.196
       223.000         165.000
  24560952.558    -8032763.49849  -3352796.28945  24560953.106    24560962.730
       213.000         133.000
  21710166.822   -18252041.58149 -14202814.52347  21710166.514    21710174.191
       238.000         199.000
  23906043.826    -4955860.44649  -3615529.04245  23906044.130    23906053.403
       213.000         154.000
 01  6 24  2 13 30.0000000  0  7G20G22G25G11G13G 1G29
  20349112.635   -27838582.57749 -21684416.39648  20349112.143    20349118.359
       241.000         216.000
  21360982.266   -20182080.52749 -15701007.41847  21360981.031    21360989.684
       234.000         194.000
  22301691.843   -15935929.13249 -12409559.33047  22301692.140    22301698.753
       235.000         192.000
  23235021.903   -12754327.87449  -9916706.58246  23235021.309    23235031.832
       222.000         164.000
  24546816.125    -8107050.08449  -3410681.83444  24546814.864    24546826.208
       212.000         131.000
  21701803.442   -18295991.36249 -14237061.06647  21701802.845    21701810.703
       239.000         200.000
  23918533.567    -4890226.55549  -3564385.81145  23918533.784    23918544.211
       213.000         154.000
 01  6 24  2 14  0.0000000  0  7G20G22G25G11G13G 1G29
  20343837.223   -27866304.95349 -21706018.22648  20343836.605    20343842.719
       242.000         216.000
  21348269.176   -20248887.84749 -15753064.99147  21348268.062    21348276.579
       235.000         194.000
  22316118.067   -15860118.83049 -12350486.42147  22316118.003    22316124.776
       234.000         191.000
  23250805.342   -12671385.86949  -9852076.58846  23250805.502    23250816.530
       222.000         163.000
  24532682.974    -8181319.74349  -3468554.18144  24532683.307    24532694.083
       210.000         129.000
  21693461.835   -18339826.79549 -14271218.51047  21693461.239    21693469.283
       239.000         200.000
  23931036.990    -4824520.98149  -3513186.73245  23931038.097    23931046.754
       212.000         153.000
 01  6 24  2 14 30.0000000  0  7G20G22G25G11G13G 1G29
  20338656.278   -27893530.81949 -21727233.16748  20338655.712    20338662.036
       241.000         216.000
  21335644.507   -20315230.59649 -15804760.55247  21335643.411    21335651.768
       234.000         194.000
  22330576.434   -15784139.75349 -12291282.00447  22330576.663    22330583.383
       235.000         191.000
  23266617.083   -12588295.17949  -9787330.75045  23266617.246    23266628.355
       222.000         162.000
  24518553.098    -8255572.04949  -3526412.99544  24518553.189    24518563.783
       208.000         128.000
  21685142.077   -18383547.18049 -14305286.30047  21685141.789    21685149.320
       240.000         200.000
  23943554.191    -4758742.97349  -3461931.20745  23943554.462    23943564.310
       211.000         153.000
 01  6 24  2 15  0.0000000  0  7G20G22G25G11G13G 1G29
  20333570.141   -27920258.53849 -21748059.94748  20333569.613    20333575.799
       242.000         216.000
  21323108.683   -20381106.33949 -15856092.22247  21323107.740    21323115.960
       234.000         194.000
  22345066.583   -15707993.56249 -12231947.36147  22345066.472    22345073.385
       234.000         191.000
  23282456.603   -12505058.66049  -9722471.26745  23282456.301    23282468.172
       221.000         162.000
  24504426.471    -8329807.25649  -3584258.46744  24504428.227    24504434.821
       206.000         128.000
  21676844.234   -18427152.57149 -14339264.49247  21676843.713    21676851.387
       239.000         200.000
  23956085.196    -4692892.20249  -3410618.98945  23956085.487    23956095.238
       212.000         152.000
 01  6 24  2 15 30.0000000  0  7G20G22G25G11G13G 1G29
  20328579.012   -27946487.01049 -21768497.70548  20328578.398    20328584.662
       241.000         216.000
  21310662.101   -20446513.27049 -15907058.58047  21310661.196    21310669.348
       235.000         194.000
  22359588.048   -15631682.82749 -12172484.50047  22359587.879    22359595.017
       233.000         190.000
  23298323.108   -12421680.10549  -9657501.11245  23298323.836    23298333.948
       220.000         162.000
  24490302.996    -8404026.02649  -3642091.13344  24490300.028    24490312.667
       208.000         129.000
  21668568.119   -18470643.63049 -14373153.58947  21668567.703    21668575.498
       240.000         201.000
  23968630.002    -4626969.18849  -3359250.47845  23968629.973    23968639.840
       208.000         152.000
 01  6 24  2 16  0.0000000  0  7G20G22G25G11G13G 1G29
  20323683.413   -27972213.61149 -21788544.39948  20323682.907    20323689.090
       241.000         216.000
  21298305.558   -20511446.97049 -15957656.19047  21298304.680    21298312.991
       235.000         194.000
  22374140.641   -15555208.74749 -12112894.35947  22374141.124    22374147.858
       234.000         190.000
  23314216.311   -12338161.51449  -9592421.84645  23314215.744    23314226.739
       221.000         161.000
  24476182.867    -8478227.03449  -3699909.96244  24476180.823    24476192.640
       208.000         130.000
  21660314.098   -18514018.83649 -14406952.41747  21660313.697    21660321.228
       240.000         201.000
  23981188.852    -4560972.39449  -3307824.48945  23981188.998    23981198.863
       209.000         151.000
 01  6 24  2 16 30.0000000  0  7G20G22G25G11G13G 1G29
  20318883.359   -27997437.94849 -21808199.71548  20318882.720    20318889.004
       241.000         216.000
  21286039.470   -20575905.52049 -16007883.55647  21286038.552    21286046.468
       235.000         195.000
  22388723.674   -15478574.41449 -12053179.34847  22388723.869    22388730.783
       232.000         189.000
  23330135.308   -12254506.93649  -9527236.61545  23330135.084    23330146.427
       219.000         160.000
  24462065.869    -8552411.53749  -3757715.91545  24462065.065    24462075.924
       206.000         133.000
  21652081.826   -18557279.47549 -14440661.97447  21652081.546    21652089.254
       240.000         201.000
  23993761.503    -4494902.90049  -3256341.85945  23993761.545    23993771.311
       208.000         150.000
 01  6 24  2 17  0.0000000  0  7G20G22G25G11G13G 1G29
  20314179.416   -28022157.24849 -21827461.49848  20314178.797    20314184.970
       241.000         216.000
  21273864.541   -20639884.89149 -16057737.53547  21273863.711    21273871.663
       235.000         195.000
  22403337.170   -15401780.25949 -11993339.80647  22403337.312    22403344.358
       233.000         189.000
  23346079.932   -12170717.99449  -9461946.67845  23346079.545    23346090.621
       219.000         160.000
  24447952.222    -8626578.49149  -3815508.19145  24447952.095    24447962.387
       208.000         135.000
  21643871.688   -18600423.97249 -14474281.03047  21643871.100    21643878.772
       240.000         201.000
  24006348.320    -4428759.21649  -3204801.42645  24006347.342    24006358.067
       210.000         149.000
 01  6 24  2 17 30.0000000  0  7G20G22G25G11G13G 1G29
  20309571.884   -28046369.96949 -21846328.54348  20309571.256    20309577.456
       241.000         216.000
  21261781.209   -20703382.87349 -16107216.40647  21261780.396    21261788.171
       235.000         195.000
  22417980.642   -15324828.51949 -11933377.45947  22417980.675    22417987.943
       233.000         189.000
  23362049.479   -12086797.94749  -9396554.59245  23362049.130    23362060.416
       218.000         159.000
  24433841.923    -8700728.08949  -3873286.96745  24433841.643    24433851.930
       206.000         137.000
  21635683.625   -18643452.40149 -14507809.63947  21635683.138    21635690.874
       240.000         201.000
  24018949.182    -4362541.22649  -3153203.08545  24018949.747    24018960.340
       209.000         147.000
 01  6 24  2 18  0.0000000  0  7G20G22G25G11G13G 1G29
  20305060.844   -28070075.57049 -21864800.43148  20305060.309    20305066.408
       241.000         216.000
  21249789.801   -20766397.86949 -16156318.92647  21249788.637    21249797.147
       235.000         195.000
  22432653.580   -15247722.02049 -11873294.51947  22432653.117    22432660.352
       233.000         188.000
  23378043.254   -12002750.77049  -9331063.43945  23378042.818    23378054.291
       219.000         159.000
  24419734.680    -8774861.52349  -3931053.13945  24419734.969    24419744.763
       210.000         139.000
  21627517.496   -18686365.69049 -14541248.53547  21627517.002    21627524.389
       240.000         201.000
  24031564.103    -4296249.70349  -3101547.45445  24031564.894    24031573.263
       210.000         147.000
 01  6 24  2 18 30.0000000  0  7G20G22G25G11G13G 1G29
  20300646.768   -28093271.58549 -21882875.24148  20300646.195    20300652.321
       241.000         216.000
  21237891.149   -20828925.42549 -16205041.62047  21237890.085    21237898.359
       236.000         196.000
  22447355.812   -15170461.46949 -11813091.54747  22447355.899    22447362.997
       233.000         188.000
  23394060.850   -11918578.41249  -9265474.74745  23394061.568    23394071.492
       219.000         159.000
  24405630.764    -8848977.69649  -3988805.86745  24405630.843    24405640.772
       208.000         141.000
  21619373.489   -18729162.49549 -14574596.66147  21619373.109    21619380.608
       241.000         202.000
  24044193.285    -4229883.33049  -3049833.50645  24044193.291    24044203.267
       207.000         147.000
 01  6 24  2 19  0.0000000  0  7G20G22G25G11G13G 1G29
  20296329.786   -28115957.45149 -21900552.53448  20296329.304    20296335.279
       241.000         216.000
  21226085.560   -20890963.99049 -16253383.28547  21226084.497    21226092.578
       235.000         196.000
  22462086.693   -15093050.24949 -11752771.16947  22462086.441    22462093.995
       232.000         188.000
  23410101.504   -11834284.86149  -9199791.61945  23410101.934    23410112.105
       219.000         159.000
  24391529.949    -8923077.52749  -4046545.86745  24391530.735    24391540.137
       210.000         143.000
  21611251.446   -18771843.99449 -14607854.94647  21611250.712    21611258.570
       241.000         202.000
  24056836.473    -4163443.14149  -2998062.03545  24056836.708    24056847.005
       206.000         146.000
 01  6 24  2 19 30.0000000  0  7G20G22G25G11G13G 1G29
  20292110.341   -28138130.77149 -21917830.44448  20292109.875    20292115.903
       243.000         216.000
  21214373.671   -20952510.02749 -16301341.16247  21214372.715    21214380.563
       236.000         196.000
  22476846.103   -15015488.94549 -11692333.83846  22476846.333    22476853.139
       232.000         187.000
  23426164.776   -11749872.32349  -9134015.76645  23426165.293    23426175.200
       218.000         159.000
  24377432.406    -8997160.36549  -4104272.64845  24377432.814    24377442.881
       209.000         144.000
  21603151.550   -18814409.05749 -14641022.49447  21603150.740    21603158.540
       241.000         202.000
  24069493.947    -4096927.96249  -2946232.14045  24069494.486    24069504.365
       205.000         146.000
 01  6 24  2 20  0.0000000  0  7G20G22G25G11G13G 1G29
  20287988.784   -28159789.73149 -21934707.55248  20287988.208    20287994.406
       242.000         216.000
  21202755.977   -21013560.94249 -16348913.23147  21202754.888    21202762.947
       236.000         197.000
  22491633.745   -14937779.50349 -11631781.07546  22491634.226    22491641.168
       232.000         187.000
  23442250.142   -11665343.58949  -9068149.37945  23442250.118    23442261.781
       217.000         159.000
  24363338.138    -9071225.98449  -4161986.00545  24363338.192    24363348.340
       210.000         143.000
  21595073.898   -18856857.24549 -14674098.97947  21595073.372    21595081.117
       241.000         202.000
  24082165.822    -4030337.11249  -2894343.26945  24082166.713    24082176.217
       205.000         145.000
 01  6 24  2 20 30.0000000  0  7G20G22G25G11G13G 1G29
  20283965.158   -28180934.00749 -21951183.60848  20283964.544    20283970.839
       243.000         216.000
  21191232.917   -21074114.84049 -16396098.01347  21191232.035    21191239.764
       236.000         197.000
  22506449.078   -14859924.62749 -11571114.97746  22506449.399    22506456.429
       231.000         187.000
  23458356.916   -11580702.52849  -9002195.45845  23458357.037    23458368.343
       218.000         159.000
  24349246.958    -9145275.29649  -4219686.67745  24349246.777    24349255.587
       210.000         144.000
  21587018.332   -18899189.43849 -14707085.07347  21587017.799    21587025.387
       241.000         202.000
  24094851.952    -3963671.29249  -2842395.98845  24094851.411    24094862.037
       205.000         145.000
 01  6 24  2 21  0.0000000  0  7G20G22G25G11G13G 1G29
  20280039.961   -28201561.02649 -21967256.60448  20280039.271    20280045.535
       243.000         216.000
  21179805.198   -21134167.55649 -16442892.26247  21179804.247    21179812.037
       236.000         197.000
  22521291.934   -14781925.03449 -11510336.12546  22521292.244    22521299.183
       231.000         187.000
  23474484.674   -11495951.16549  -8936155.58945  23474484.612    23474495.348
       218.000         159.000
  24335159.078    -9219307.23949  -4277373.80545  24335158.570    24335168.275
       210.000         143.000
  21578985.066   -18941404.38649 -14739979.81347  21578984.620    21578992.072
       240.000         202.000
  24107552.630    -3896929.43249  -2790389.44545  24107552.359    24107562.957
       206.000         145.000
 01  6 24  2 21 30.0000000  0  7G20G22G25G11G13G 1G29
  20276213.330   -28221669.99449 -21982925.93048  20276212.660    20276218.932
       242.000         216.000
  21168473.218   -21193717.12349 -16489294.45347  21168472.392    21168480.305
       237.000         198.000
  22536161.814   -14703783.27849 -11449446.48746  22536161.860    22536169.368
       231.000         186.000
  23490632.744   -11411092.92749  -8870032.43045  23490632.454    23490644.017
       218.000         159.000
  24321074.378    -9293322.80549  -4335048.15445  24321074.441    24321083.941
       210.000         143.000
  21570974.041   -18983502.55949 -14772783.55447  21570973.656    21570981.265
       241.000         202.000
  24120267.530    -3830111.93149  -2738323.96245  24120268.026    24120277.747
       208.000         145.000
 01  6 24  2 22  0.0000000  0  7G20G22G25G11G13G 1G29
  20272485.713   -28241258.81849 -21998189.94848  20272485.131    20272491.373
       242.000         216.000
  21157237.554   -21252760.65749 -16535302.33347  21157236.620    21157244.727
       237.000         198.000
  22551058.531   -14625500.79849 -11388447.20246  22551058.877    22551065.968
       231.000         186.000
  23506800.738   -11326130.08649  -8803827.77545  23506800.770    23506812.015
       218.000         159.000
  24306992.896    -9367321.07149  -4392709.03245  24306992.559    24307002.626
       209.000         143.000
  21562985.369   -19025483.17849 -14805495.69947  21562984.876    21562992.277
       240.000         202.000
  24132997.127    -3763217.97949  -2686198.88545  24132997.214    24133008.028
       207.000         145.000
 01  6 24  2 22 30.0000000  0  7G20G22G25G11G13G 1G29
  20268857.215   -28260326.61149 -22013047.96548  20268856.533    20268862.957
       242.000         216.000
  21146098.580   -21311296.18749 -16580914.36347  21146097.381    21146105.625
       237.000         198.000
  22565981.584   -14547079.83349 -11327340.00746  22565981.136    22565989.011
       231.000         186.000
  23522987.978   -11241066.39949  -8737544.53545  23522988.484    23522999.063
       218.000         159.000
  24292914.631    -9441302.60649  -4450356.86345  24292914.515    24292923.801
       209.000         143.000
  21555019.014   -19067346.51049 -14838116.45247  21555018.581    21555025.978
       241.000         202.000
  24145741.206    -3696247.55549  -2634014.23545  24145741.241    24145751.446
       207.000         144.000
 01  6 24  2 23  0.0000000  0  7G20G22G25G11G13G 1G29
  20265328.173   -28278871.85149 -22027498.80048  20265327.556    20265333.801
       242.000         216.000
  21135056.859   -21369320.59349 -16626128.11147  21135055.905    21135064.127
       237.000         199.000
  22580930.699   -14468522.08849 -11266126.22246  22580930.857    22580937.462
       231.000         186.000
  23539193.846   -11155904.47649  -8671184.75345  23539194.785    23539204.996
       219.000         159.000
  24278839.496    -9515267.34849  -4507991.61745  24278839.289    24278848.759
       209.000         143.000
  21547075.058   -19109092.02349 -14870645.40047  21547074.651    21547081.948
       241.000         202.000
  24158499.941    -3629200.48149  -2581769.84145  24158499.629    24158510.657
       209.000         144.000
 01  6 24  2 23 30.0000000  0  7G20G22G25G11G13G 1G29
  20261898.734   -28296893.59749 -22041541.71448  20261898.200    20261904.486
       242.000         217.000
  21124112.826   -21426831.53049 -16670941.75747  21124111.982    21124120.095
       237.000         199.000
  22595905.369   -14389829.88149 -11204807.66446  22595905.370    22595912.829
       231.000         185.000
  23555417.738   -11070647.99449  -8604751.28045  23555418.143    23555428.554
       219.000         159.000
  24264767.482    -9589215.81849  -4565613.67545  24264768.320    24264776.966
       210.000         143.000
  21539153.447   -19150720.23449 -14903082.94047  21539153.055    21539160.597
       240.000         202.000
  24171273.102    -3562077.04249  -2529465.91445  24171273.276    24171283.592
       210.000         144.000
 01  6 24  2 24  0.0000000  0  7G20G22G25G11G13G 1G29
  20258569.470   -28314389.05349 -22055174.53648  20258568.885    20258575.098
       242.000         217.000
  21113267.245   -21483825.12749 -16715352.28547  21113266.270    21113274.307
       237.000         199.000
  22610905.595   -14311003.41449 -11143384.50146  22610905.366    22610912.883
       230.000         185.000
  23571659.385   -10985298.27349  -8538245.14445  23571659.999    23571670.858
       219.000         159.000
  24250698.915    -9663146.57649  -4623221.94745  24250698.131    24250706.886
       211.000         144.000
  21531254.514   -19192229.39549 -14935427.72247  21531254.243    21531261.483
       239.000         202.000
  24184061.204    -3494875.50849  -2477101.13245  24184061.912    24184072.077
       211.000         144.000
 01  6 24  2 24 30.0000000  0  7G20G22G25G11G13G 1G29
  20255340.309   -28331358.44949 -22068397.43648  20255339.790    20255346.019
       242.000         217.000
  21102520.262   -21540300.77149 -16759359.20547  21102519.340    21102527.216
       237.000         200.000
  22625930.689   -14232046.17449 -11081859.42746  22625930.724    22625938.078
       230.000         185.000
  23587917.957   -10899859.67849  -8471669.76645  23587918.014    23587929.918
       220.000         160.000
  24236633.391    -9737060.89949  -4680817.39945  24236633.278    24236643.256
       208.000         144.000
  21523377.946   -19233620.72049 -14967680.67347  21523377.466    21523385.090
       239.000         202.000
  24196863.982    -3427597.17549  -2424676.50645  24196864.489    24196873.431
       210.000         143.000
 01  6 24  2 25  0.0000000  0  7G20G22G25G11G13G 1G29
  20252211.648   -28347799.52449 -22081208.65948  20252211.096    20252217.336
       242.000         217.000
  21091872.449   -21596254.95449 -16802959.79647  21091871.281    21091879.360
       238.000         200.000
  22640980.493   -14152959.15749 -11020233.23146  22640980.365    22640987.510
       230.000         185.000
  23604192.995   -10814334.42649  -8405026.86645  23604192.907    23604203.814
       219.000         160.000
  24222571.081    -9810958.09549  -4738399.50345  24222571.273    24222580.578
       210.000         143.000
  21515524.047   -19274893.12049 -14999840.96147  21515523.533    21515531.067
       239.000         202.000
  24209681.530    -3360240.90649  -2372191.13245  24209680.947    24209692.706
       211.000         143.000
 01  6 24  2 25 30.0000000  0  7G20G22G25G11G13G 1G29
  20249183.952   -28363710.22049 -22093606.59848  20249183.312    20249189.514
       242.000         217.000
  21081324.597   -21651683.96449 -16846151.15947  21081323.773    21081331.698
       237.000         200.000
  22656054.769   -14073743.42949 -10958506.74946  22656055.039    22656062.035
       231.000         184.000
  23620484.127   -10728724.62749  -8338318.07145  23620483.869    23620495.708
       219.000         160.000
  24208512.181    -9884837.26949  -4795967.56145  24208512.296    24208522.463
       208.000         144.000
  21507692.910   -19316045.76549 -15031907.93047  21507692.474    21507699.923
       239.000         202.000
  24222513.996    -3292805.75649  -2319644.29445  24222514.372    24222524.807
       209.000         143.000
 01  6 24  2 26  0.0000000  0  7G20G22G25G11G13G 1G29
  20246257.046   -28379091.26149 -22105591.81648  20246256.348    20246262.744
       242.000         217.000
  21070876.866   -21706587.01549 -16888932.68247  21070875.736    21070883.912
       237.000         200.000
  22671152.842   -13994402.68849 -10896682.84446  22671152.768    22671160.010
       230.000         184.000
  23636790.385   -10643035.26449  -8271547.29145  23636790.091    23636802.449
       219.000         159.000
  24194456.442    -9958700.10949  -4853522.89545  24194456.856    24194465.734
       212.000         145.000
  21499884.325   -19357080.16049 -15063882.75447  21499883.600    21499891.419
       239.000         202.000
  24235361.241    -3225293.12449  -2267037.07845  24235361.468    24235371.438
       212.000         142.000
 01  6 24  2 26 30.0000000  0  7G20G22G25G11G13G 1G29
  20243431.364   -28393940.20249 -22117162.41348  20243430.715    20243437.111
       242.000         217.000
  21060529.747   -21760960.99249 -16931301.94447  21060528.609    21060536.689
       238.000         200.000
  22686274.546   -13914937.74149 -10834762.16546  22686274.119    22686282.102
       229.000         184.000
  23653111.491   -10557268.16349  -8204715.93645  23653110.402    23653123.802
       219.000         158.000
  24180404.062   -10032545.80149  -4911064.87145  24180404.324    24180413.218
       212.000         146.000
  21492098.448   -19397994.99349 -15095764.41447  21492097.900    21492105.521
       240.000         202.000
  24248223.475    -3157702.05849  -2214368.74445  24248223.824    24248232.789
       209.000         143.000
 01  6 24  2 27  0.0000000  0  7G20G22G25G11G13G 1G29
  20240707.287   -28408255.30249 -22128317.02948  20240706.740    20240712.934
       242.000         217.000
  21050283.803   -21814803.56049 -16973257.11847  21050282.782    21050290.994
       238.000         200.000
  22701419.652   -13835349.96349 -10772745.78246  22701419.634    22701426.867
       230.000         183.000
  23669446.869   -10471425.71649  -8137825.85445  23669446.843    23669457.584
       218.000         158.000
  24166354.890   -10106374.25149  -4968593.38845  24166354.821    24166364.782
       212.000         148.000
  21484335.412   -19438789.81249 -15127552.55347  21484335.224    21484342.600
       239.000         203.000
  24261100.712    -3090031.91649  -2161638.78445  24261100.630    24261111.598
       213.000         142.000
 01  6 24  2 27 30.0000000  0  7G20G22G25G11G13G 1G29
  20238084.829   -28422036.40849 -22139055.54348  20238084.216    20238090.502
       242.000         217.000
  21040139.372   -21868112.56349 -17014796.53147  21040138.705    21040146.332
       238.000         201.000
  22716587.638   -13755641.72349 -10710635.52746  22716587.604    22716595.435
       229.000         183.000
  23685795.843   -10385511.95449  -8070880.22045  23685796.234    23685807.062
       216.000         157.000
  24152308.770   -10180186.26449  -5026109.13045  24152309.154    24152317.901
       212.000         148.000
  21476595.118   -19479465.23449 -15159247.65547  21476594.613    21476602.466
       240.000         203.000
  24273992.894    -3022283.31549  -2108847.68045  24273994.253    24274003.523
       211.000         142.000
 01  6 24  2 28  0.0000000  0  7G20G22G25G11G13G 1G29
  20235564.337   -28435281.50549 -22149376.38248  20235563.801    20235570.018
       242.000         217.000
  21030097.114   -21920884.63049 -17055917.54547  21030096.137    21030104.081
       238.000         201.000
  22731778.348   -13675814.22849 -10648432.34646  22731777.938    22731786.258
       229.000         183.000
  23702157.931   -10299529.01149  -8003880.67345  23702157.947    23702170.330
       216.000         156.000
  24138266.064   -10253980.73749  -5083611.20345  24138265.556    24138274.764
       213.000         149.000
  21468877.739   -19520020.17549 -15190848.87347  21468877.355    21468884.982
       240.000         203.000
  24286900.204    -2954455.22849  -2055994.64145  24286900.978    24286909.742
       213.000         142.000
 01  6 24  2 28 30.0000000  0  7G20G22G25G11G13G 1G29
  20233146.199   -28447988.91849 -22159278.25248  20233145.645    20233151.888
       242.000         217.000
  21020157.594   -21973116.89649 -17096617.94147  21020156.488    21020164.487
       238.000         201.000
  22746991.499   -13595868.81049 -10586137.28046  22746991.655    22746999.742
       230.000         183.000
  23718532.707   -10213479.31649  -7936829.12345  23718532.761    23718544.258
       216.000         155.000
  24124226.883   -10327757.01649  -5141099.08945  24124227.295    24124235.917
       214.000         150.000
  21461183.470   -19560453.80349 -15222355.56447  21461183.092    21461190.502
       240.000         203.000
  24299822.698    -2886547.05949  -2003079.19745  24299823.142    24299832.550
       212.000         142.000
 01  6 24  2 29  0.0000000  0  7G20G22G25G11G13G 1G29
  20230830.265   -28460159.21149 -22168761.58948  20230829.628    20230835.826
       242.000         217.000
  21010320.829   -22024809.22949 -17136897.61347  21010319.938    21010327.786
       238.000         201.000
  22762226.474   -13515808.77249 -10523752.90446  22762226.359    22762234.058
       230.000         182.000
  23734919.374   -10127367.49849  -7869729.17845  23734919.807    23734931.050
       215.000         154.000
  24110190.779   -10401516.86649  -5198574.18245  24110190.263    24110200.342
       213.000         151.000
  21453511.986   -19600767.64149 -15253768.90947  21453511.583    21453519.199
       240.000         204.000
  24312760.157    -2818560.10449  -1950102.38345  24312759.817    24312771.535
       213.000         142.000
 01  6 24  2 29 30.0000000  0  7G20G22G25G11G13G 1G29
  20228617.011   -28471789.90649 -22177824.45748  20228616.440    20228622.778
       242.000         217.000
  21000587.508   -22075957.80649 -17176753.57847  21000586.636    21000594.275
       238.000         201.000
  22777483.162   -13435634.56649 -10461279.56846  22777483.486    22777489.939
       229.000         182.000
  23751317.557   -10041195.07649  -7802581.99245  23751318.185    23751330.276
       214.000         153.000
  24096157.958   -10475259.33949  -5256035.73145  24096157.937    24096167.332
       215.000         151.000
  21445863.593   -19640960.05249 -15285087.63247  21445862.888    21445870.559
       240.000         204.000
  24325712.971    -2750492.95049  -1897063.08845  24325713.249    24325722.219
       210.000         141.000
 01  6 24  2 30  0.0000000  0  7G20G22G25G11G13G 1G29
  20226506.613   -28482880.12349 -22186466.17148  20226506.051    20226512.236
       242.000         217.000
  20990958.138   -22126560.21249 -17216183.95047  20990957.093    20990965.034
       238.000         201.000
  22792761.124   -13355348.50249 -10398719.06846  22792761.120    22792767.835
       228.000         181.000
  23767726.640    -9954965.22449  -7735390.07045  23767726.785    23767738.487
       212.000         151.000
  24082128.501   -10548984.22549  -5313483.58245  24082128.429    24082137.059
       214.000         151.000
  21438238.328   -19681031.00149 -15316311.70647  21438237.787    21438245.340
       240.000         204.000
  24338681.037    -2682345.51649  -1843961.21445  24338680.472    24338691.592
       211.000         142.000
 01  6 24  2 30 30.0000000  0  7G20G22G25G11G13G 1G29
  20224499.370   -28493428.20949 -22194685.44948  20224498.881    20224505.013
       242.000         217.000
  20981433.296   -22176613.39149 -17255186.35447  20981432.327    20981440.000
       238.000         201.000
  22808060.175   -13274951.67349 -10336072.26246  22808060.548    22808067.764
       228.000         181.000
  23784146.162    -9868680.29749  -7668155.24245  23784145.279    23784158.949
       212.000         149.000
  24068102.438   -10622691.13649  -5370917.41445  24068102.190    24068111.165
       216.000         153.000
  21430636.303   -19720979.62549 -15347440.46547  21430636.039    21430643.517
       240.000         204.000
  24351664.471    -2614117.21349  -1790796.35245  24351664.064    24351673.484
       211.000         142.000
 01  6 24  2 31  0.0000000  0  7G20G22G25G11G13G 1G29
  20222595.356   -28503433.89149 -22202482.07748  20222594.599    20222600.960
       242.000         217.000
  20972013.162   -22226116.26949 -17293759.95747  20972012.128    20972019.825
       238.000         202.000
  22823379.822   -13194446.64949 -10273341.14146  22823379.883    22823387.186
       229.000         181.000
  23800575.511    -9782344.16249  -7600880.50245  23800575.165    23800585.308
       211.000         149.000
  24054079.721   -10696380.58949  -5428337.64645  24054079.487    24054088.937
       216.000         153.000
  21423057.458   -19760806.69049 -15378474.50447  21423057.076    21423064.642
       240.000         205.000
  24364663.198    -2545808.75549  -1737569.02545  24364662.555    24364673.178
       206.000         142.000
 01  6 24  2 31 30.0000000  0  7G20G22G25G11G13G 1G29
  20220794.771   -28512895.99749 -22209855.14048  20220794.285    20220800.417
       242.000         217.000
  20962698.088   -22275066.94549 -17331903.27247  20962697.157    20962704.878
       239.000         202.000
  22838719.785   -13113834.97049 -10210526.91846  22838720.083    22838727.048
       228.000         181.000
  23817013.978    -9695959.59649  -7533568.04145  23817014.404    23817026.178
       211.000         148.000
  24040060.240   -10770052.71549  -5485744.37945  24040059.603    24040068.656
       216.000         152.000
  21415501.810   -19800511.68749 -15409413.42347  21415501.137    21415508.739
       240.000         205.000
  24377677.229    -2477419.57049  -1684278.80345  24377677.835    24377686.427
       210.000         142.000
 01  6 24  2 32  0.0000000  0  7G20G22G25G11G13G 1G29
  20219098.068   -28521812.18049 -22216802.81248  20219097.520    20219103.603
       242.000         217.000
  20953488.864   -22323461.51149 -17369613.26047  20953487.862    20953495.677
       239.000         202.000
  22854080.026   -13033116.71549 -10147629.64346  22854079.680    22854087.666
       229.000         181.000
  23833461.447    -9609528.01849  -7466218.95045  23833461.108    23833473.987
       211.000         147.000
  24026044.390   -10843706.13449  -5543136.54845  24026043.946    24026053.820
       215.000         152.000
  21407969.729   -19840092.97149 -15440255.94647  21407969.361    21407976.675
       241.000         205.000
  24390706.950    -2408948.24349  -1630924.57345  24390707.385    24390717.170
       206.000         142.000
 01  6 24  2 32 30.0000000  0  7G20G22G25G11G13G 1G29
  20217505.281   -28530182.32549 -22223324.99848  20217504.723    20217510.946
       242.000         217.000
  20944385.830   -22371298.01949 -17406888.39947  20944384.784    20944392.429
       239.000         202.000
  22869459.946   -12952295.02049 -10084651.76346  22869460.112    22869467.388
       228.000         180.000
  23849917.125    -9523053.44249  -7398836.34645  23849916.776    23849929.023
       211.000         147.000
  24012031.982   -10917341.34449  -5600514.50945  24012031.437    24012041.294
       215.000         151.000
  21400461.072   -19879551.01449 -15471002.43447  21400460.579    21400468.006
       241.000         206.000
  24403752.108    -2340395.48349  -1577506.89045  24403753.363    24403763.397
       207.000         141.000
 01  6 24  2 33  0.0000000  0  7G20G22G25G11G13G 1G29
  20216016.442   -28538006.34949 -22229421.64048  20216015.833    20216022.086
       242.000         217.000
  20935389.182   -22418575.47049 -17443727.90047  20935388.312    20935395.782
       239.000         202.000
  22884859.032   -12871372.58549 -10021595.38246  22884859.731    22884867.148
       228.000         180.000
  23866380.185    -9436539.83149  -7331423.32545  23866380.119    23866391.968
       212.000         147.000
  23998022.807   -10990959.34949  -5657879.08645  23998021.655    23998031.755
       213.000         150.000
  21392975.756   -19918886.50249 -15501653.42347  21392975.211    21392982.658
       241.000         206.000
  24416812.649    -2271761.90549  -1524026.22145  24416812.802    24416822.795
       206.000         141.000
 01  6 24  2 33 30.0000000  0  7G20G22G25G11G13G 1G29
  20214631.960   -28545281.87949 -22235090.88348  20214631.302    20214637.500
       242.000         217.000
  20926499.498   -22465290.72649 -17480129.34047  20926498.716    20926506.186
       239.000         202.000
  22900277.346   -12790349.09749  -9958460.26846  22900276.918    22900284.396
       229.000         180.000
  23882850.473    -9349988.48549  -7263980.90045  23882849.727    23882861.773
       212.000         147.000
  23984017.132   -11064558.90349  -5715229.27845  23984017.450    23984026.256
       213.000         149.000
  21385514.112   -19958097.68249 -15532207.55347  21385513.647    21385521.307
       241.000         206.000
  24429888.936    -2203045.95649  -1470481.36145  24429888.490    24429899.390
       207.000         141.000
 01  6 24  2 34  0.0000000  0  7G20G22G25G11G13G 1G29
  20213351.969   -28552008.28949 -22240332.23948  20213351.398    20213357.362
       242.000         217.000
  20917717.140   -22511442.19549 -17516091.46147  20917716.266    20917723.789
       239.000         203.000
  22915714.354   -12709227.24149  -9895248.49346  22915714.401    22915722.229
       228.000         180.000
  23899327.419    -9263402.44049  -7196511.44645  23899328.209    23899339.476
       211.000         147.000
  23970014.952   -11138140.29549  -5772565.29245  23970015.314    23970023.877
       213.000         148.000
  21378076.052   -19997184.69849 -15562664.92947  21378075.616    21378082.838
       242.000         206.000
  24442980.795    -2134247.97149  -1416872.58445  24442980.007    24442990.867
       201.000         140.000
 01  6 24  2 34 30.0000000  0  7G20G22G25G11G13G 1G29
  20212176.696   -28558184.25049 -22245144.67448  20212176.122    20212182.329
       242.000         217.000
  20909042.630   -22557026.80649 -17551611.87147  20909041.682    20909049.204
       239.000         203.000
  22931169.852   -12628008.29349  -9831961.06746  22931169.362    22931177.966
       227.000         180.000
  23915810.474    -9176784.41149  -7129017.06545  23915810.799    23915821.972
       212.000         147.000
  23956016.335   -11211702.81149  -5829886.61645  23956016.475    23956026.868
       214.000         147.000
  21370661.811   -20036146.80549 -15593024.97047  21370661.239    21370668.768
       241.000         206.000
  24456088.389    -2065367.20649  -1363199.30945  24456088.252    24456098.465
       206.000         140.000
 01  6 24  2 35  0.0000000  0  7G20G22G25G11G13G 1G29
  20211106.173   -28563809.87649 -22249528.28048  20211105.683    20211111.634
       242.000         218.000
  20900476.252   -22602043.18349 -17586689.50447  20900475.292    20900482.534
       239.000         203.000
  22946643.367   -12546694.69649  -9768599.88346  22946643.899    22946651.355
       227.000         180.000
  23932298.829    -9090138.19449  -7061500.70945  23932299.084    23932311.150
       214.000         148.000
  23942021.170   -11285247.59549  -5887194.12445  23942021.503    23942029.066
       212.000         147.000
  21363271.204   -20074984.54249 -15623288.10147  21363270.695    21363278.032
       241.000         207.000
  24469211.581    -1996404.62049  -1309462.25245  24469212.896    24469222.494
       204.000         139.000
 01  6 24  2 35 30.0000000  0  7G20G22G25G11G13G 1G29
  20210140.805   -28568883.05549 -22253481.40648  20210140.171    20210146.354
       242.000         218.000
  20892018.564   -22646488.40049 -17621322.08147  20892017.667    20892024.940
       239.000         203.000
  22962134.763   -12465287.09049  -9705165.44446  22962134.325    22962142.304
       227.000         180.000
  23948792.244    -9003465.50749  -6993963.74345  23948792.226    23948804.890
       214.000         148.000
  23928029.616   -11358773.11949  -5944486.62545  23928028.810    23928038.449
       214.000         147.000
  21355904.541   -20113696.40149 -15653453.14847  21355903.925    21355911.323
       242.000         207.000
  24482350.643    -1927358.51749  -1255660.11245  24482350.731    24482361.339
       197.000         139.000
 01  6 24  2 36  0.0000000  0  7G20G22G25G11G13G 1G29
  20209280.509   -28573403.83949 -22257004.10048  20209279.917    20209286.181
       242.000         218.000
  20883669.706   -22690361.65049 -17655508.97547  20883668.987    20883676.184
       240.000         203.000
  22977643.589   -12383787.79849  -9641659.56346  22977644.088    22977652.248
       226.000         179.000
  23965289.997    -8916770.18649  -6926409.14645  23965290.465    23965302.993
       214.000         149.000
  23914041.554   -11432280.29649  -6001764.85345  23914041.484    23914051.340
       214.000         147.000
  21348561.694   -20152283.06849 -15683520.64847  21348560.989    21348568.602
       242.000         207.000
  24495505.420    -1858229.62249  -1201793.47845  24495504.575    24495514.977
       195.000         138.000
 01  6 24  2 36 30.0000000  0  7G20G22G25G11G13G 1G29
  20208525.643   -28577370.73749 -22260095.19448  20208525.069    20208531.276
       242.000         218.000
  20875430.219   -22733660.14549 -17689248.00447  20875429.401    20875436.897
       239.000         203.000
  22993169.663   -12302198.03149  -9578083.18546  22993169.230    22993177.390
       227.000         179.000
  23981791.595    -8830054.47049  -6858838.63745  23981791.131    23981803.838
       215.000         149.000
  23900057.157   -11505768.47249  -6059028.26145  23900057.005    23900066.753
       213.000         147.000
  21341242.887   -20190743.72149 -15713489.95747  21341242.395    21341249.901
       242.000         207.000
  24508676.049    -1789017.49249  -1147862.00645  24508677.036    24508685.618
       200.000         137.000
 01  6 24  2 37  0.0000000  0  6G20G22G25G11G13G 1
  20207876.295   -28580783.00749 -22262754.11148  20207875.689    20207881.868
       242.000         218.000
  20867300.549   -22776381.57249 -17722537.37147  20867299.629    20867307.058
       240.000         203.000
  23008712.565   -12220519.75449  -9514437.82846  23008712.480    23008720.777
       225.000         178.000
  23998296.529    -8743321.36049  -6791254.57145  23998297.225    23998309.617
       215.000         150.000
  23886076.388   -11579237.54049  -6116276.77245  23886076.993    23886085.262
       214.000         148.000
  21333948.102   -20229077.94549 -15743360.74447  21333947.785    21333955.067
       242.000         207.000
 01  6 24  2 37 30.0000000  0  6G20G22G25G11G13G 1
  20207332.523   -28583640.49249 -22264980.73048  20207332.015    20207338.215
       242.000         217.000
  20859281.000   -22818524.36149 -17755375.84947  20859280.001    20859287.589
       240.000         204.000
  23024271.948   -12138754.77549  -9450724.93046  23024272.428    23024279.643
       226.000         178.000
  24014804.213    -8656574.07749  -6723659.47145  24014804.277    24014817.101
       215.000         150.000
  23872099.160   -11652687.99649  -6173510.80245  23872098.690    23872106.362
       215.000         147.000
  21326677.369   -20267285.75849 -15773133.03347  21326676.799    21326684.169
       242.000         207.000
 01  6 24  2 38  0.0000000  0  6G20G22G25G11G13G 1
  20206894.829   -28585940.59849 -22266773.02448  20206894.258    20206900.574
       242.000         217.000
  20851372.153   -22860085.38449 -17787761.00647  20851371.356    20851378.700
       240.000         204.000
  23039847.819   -12056903.21249  -9386944.54246  23039848.265    23039855.664
       225.000         177.000
  24031314.313    -8569813.74849  -6656054.19245  24031314.237    24031326.847
       216.000         150.000
  23858125.762   -11726118.15849  -6230729.01245  23858125.603    23858133.825
       214.000         147.000
  21319431.072   -20305365.12349 -15802805.23347  21319430.425    21319438.036
       242.000         207.000
 01  6 24  2 38 30.0000000  0  6G20G22G25G11G13G 1
  20206562.982   -28587684.56149 -22268131.96448  20206562.508    20206568.552
       242.000         217.000
  20843573.928   -22901064.99349 -17819693.11547  20843572.975    20843580.528
       240.000         204.000
  23055439.482   -11974968.56849  -9323099.41846  23055439.571    23055447.397
       225.000         177.000
  24047825.962    -8483045.42549  -6588442.70445  24047826.266    24047838.457
       215.000         151.000
  23844155.926   -11799529.56649  -6287932.58945  23844155.934    23844164.771
       213.000         147.000
  21312208.901   -20343317.62349 -15832378.57547  21312208.245    21312215.612
       242.000         207.000
 01  6 24  2 39  0.0000000  0  6G20G22G25G11G13G 1
  20206337.329   -28588870.26349 -22269055.89548  20206336.704    20206343.041
       242.000         217.000
  20835887.081   -22941459.33449 -17851169.17447  20835886.206    20835893.771
       240.000         204.000
  23071046.880   -11892951.22149  -9259189.86546  23071046.827    23071054.506
       225.000         177.000
  24064338.815    -8396270.58249  -6520826.11845  24064339.315    24064351.965
       213.000         151.000
  23830189.859   -11872921.00849  -6345120.63345  23830188.933    23830198.560
       213.000         148.000
  21305011.234   -20381141.51849 -15861851.70847  21305010.828    21305017.975
       242.000         207.000
 01  6 24  2 39 30.0000000  0  6G20G22G25G11G13G 1
  20206218.157   -28589496.57449 -22269543.94248  20206217.657    20206223.782
       240.000         217.000
  20828312.109   -22981265.92349 -17882187.24647  20828311.290    20828318.565
       240.000         204.000
  23086669.788   -11810852.40949  -9195216.82846  23086669.911    23086678.095
       226.000         176.000
  24080852.416    -8309491.57149  -6453206.28845  24080851.913    24080864.906
       213.000         150.000
  23816227.863   -11946291.78049  -6402292.56545  23816227.928    23816236.472
       214.000         149.000
  21297838.159   -20418836.03949 -15891224.03147  21297837.664    21297845.053
       242.000         207.000
 01  6 24  2 40  0.0000000  0  6G20G22G25G11G13G 1
  20206205.384   -28589563.60949 -22269596.18648  20206204.825    20206211.008
       240.000         217.000
  20820849.162   -23020483.86049 -17912746.62547  20820848.497    20820855.750
       240.000         205.000
  23102307.700   -11728674.78849  -9131182.36646  23102308.105    23102315.147
       225.000         176.000
  24097366.156    -8222711.99749  -6385586.01445  24097365.651    24097378.313
       213.000         150.000
  23802269.584   -12019642.78949  -6459449.10045  23802269.382    23802279.270
       214.000         150.000
  21290689.637   -20456401.69149 -15920495.93647  21290689.143    21290696.506
       242.000         207.000
 01  6 24  2 40 30.0000000  0  6G20G22G25G11G13G 1
  20206299.126   -28589071.01049 -22269212.35148  20206298.601    20206304.724
       240.000         217.000
  20813498.420   -23059112.04049 -17942846.45547  20813497.675    20813504.916
       240.000         205.000
  23117960.291   -11646420.14749  -9067087.89946  23117960.749    23117967.871
       227.000         176.000
  24113879.400    -8135934.87449  -6317967.65045  24113879.958    24113892.722
       211.000         149.000
  23788314.994   -12092974.21249  -6516590.36745  23788314.433    23788324.064
       215.000         150.000
  21283565.640   -20493838.25549 -15949667.25347  21283565.084    21283572.642
       242.000         207.000
 01  6 24  2 41  0.0000000  0  6G20G22G25G11G13G 1
  20206499.672   -28588017.11549 -22268391.14248  20206499.072    20206505.233
       240.000         217.000
  20806260.442   -23097147.61249 -17972484.50747  20806259.366    20806266.967
       240.000         205.000
  23133627.462   -11564089.03649  -9002933.84146  23133627.933    23133635.338
       226.000         176.000
  24130391.885    -8049162.11649  -6250352.69145  24130391.987    24130404.737
       213.000         149.000
  23774364.385   -12166284.64449  -6573715.27845  23774363.621    23774372.437
       214.000         151.000
  21276466.498   -20531144.44149 -15978736.97547  21276466.089    21276473.123
       242.000         207.000
 01  6 24  2 41 30.0000000  0  6G20G22G25G11G13G 1
  20206807.055   -28586401.88949 -22267132.53148  20206806.449    20206812.714
       240.000         217.000
  20799135.600   -23134588.83649 -18001659.43647  20799134.769    20799142.045
       240.000         205.000
  23149308.821   -11481683.34349  -8938721.66946  23149308.577    23149316.322
       225.000         175.000
  24146902.790    -7962397.20849  -6182743.82845  24146903.596    24146915.377
       212.000         149.000
  23760417.756   -12239574.35349  -6630824.03745  23760417.335    23760426.145
       215.000         151.000
  21269392.101   -20568320.45949 -16007705.27347  21269391.736    21269398.912
       241.000         207.000
 01  6 24  2 42  0.0000000  0  6G20G22G25G11G13G 1
  20207221.294   -28584225.07449 -22265436.31748  20207220.672    20207226.922
       240.000         217.000
  20792124.093   -23171434.37749 -18030370.19447  20792123.253    20792130.350
       240.000         205.000
  23165003.922   -11399205.31549  -8874453.13746  23165004.421    23165012.477
       226.000         175.000
  24163411.600    -7875643.35149  -6115143.61045  24163411.548    24163423.446
       211.000         148.000
  23746474.936   -12312843.95449  -6687917.14245  23746475.157    23746482.935
       216.000         152.000
  21262342.468   -20605366.06849 -16036571.95247  21262341.997    21262349.129
       242.000         207.000
 01  6 24  2 42 30.0000000  0  6G20G22G25G11G13G 1
  20207742.674   -28581485.17249 -22263301.33448  20207742.251    20207748.396
       240.000         217.000
  20785226.318   -23207681.95549 -18058615.01247  20785225.208    20785232.692
       240.000         205.000
  23180712.634   -11316655.80349  -8810128.90446  23180712.766    23180720.598
       224.000         174.000
  24179917.997    -7788902.37349  -6047553.41145  24179917.581    24179931.260
       208.000         147.000
  23732536.162   -12386092.39549  -6744993.74945  23732536.157    23732544.752
       215.000         153.000
  21255317.970   -20642279.95549 -16065335.99347  21255317.620    21255324.826
       242.000         207.000
 01  6 24  2 43  0.0000000  0  6G20G22G25G11G13G 1
  20208371.338   -28578181.45749 -22260727.01848  20208370.916    20208377.055
       240.000         217.000
  20778442.735   -23243329.89749 -18086392.57947  20778441.624    20778449.368
       240.000         205.000
  23196434.673   -11234036.01849  -8745749.91446  23196434.842    23196442.636
       224.000         174.000
  24196421.439    -7702176.76549  -5979975.21245  24196421.276    24196433.947
       209.000         147.000
  23718601.570   -12459318.92749  -6802053.29045  23718601.054    23718609.243
       217.000         154.000
  21248318.685   -20679061.37649 -16093996.81747  21248318.065    21248325.428
       241.000         207.000
 01  6 24  2 43 30.0000000  0  6G20G22G25G11G13G 1
  20209107.318   -28574313.93249 -22257713.36348  20209106.757    20209112.957
       240.000         217.000
  20771773.501   -23278376.70349 -18113701.72447  20771772.591    20771779.939
       240.000         205.000
  23212169.741   -11151347.97949  -8681317.72546  23212169.719    23212178.017
       224.000         173.000
  24212921.279    -7615470.16349  -5912411.81245  24212920.864    24212933.960
       210.000         146.000
  23704671.006   -12532524.33149  -6859096.36145  23704671.497    23704679.572
       217.000         155.000
  21241344.568   -20715710.42449 -16122554.48747  21241344.233    21241351.315
       242.000         207.000
 01  6 24  2 44  0.0000000  0  6G20G22G25G11G13G 1
  20209950.751   -28569881.70949 -22254259.68448  20209950.193    20209956.487
       240.000         217.000
  20765219.076   -23312820.07249 -18140540.66347  20765218.199    20765225.724
       240.000         205.000
  23227917.552   -11068592.84749  -8616833.27346  23227917.847    23227925.804
       223.000         172.000
  24229417.123    -7528784.67049  -5844864.87245  24229416.884    24229431.069
       209.000         145.000
  23690744.495   -12605708.14749  -6916122.60745  23690745.088    23690753.505
       217.000         156.000
  21234395.790   -20752226.34349 -16151008.42847  21234395.524    21234402.591
       242.000         207.000
 01  6 24  2 44 30.0000000  0  6G20G22G25G11G13G 1
  20210901.713   -28564884.32449 -22250365.62148  20210901.044    20210907.514
       240.000         217.000
  20758779.769   -23346658.64049 -18166908.33047  20758778.896    20758786.109
       240.000         205.000
  23243677.732   -10985772.44549  -8552297.95946  23243677.667    23243685.978
       223.000         172.000
  24245908.324    -7442123.39249  -5777336.79245  24245908.797    24245922.124
       210.000         145.000
  23676822.201   -12678869.89549  -6973131.67245  23676822.697    23676830.479
       218.000         157.000
  21227472.418   -20788608.84949 -16179358.40847  21227471.997    21227479.184
       242.000         207.000
 01  6 24  2 45  0.0000000  0  6G20G22G25G11G13G 1
  20211960.354   -28559321.06949 -22246030.61648  20211959.761    20211966.030
       240.000         217.000
  20752455.804   -23379890.93749 -18192803.57847  20752454.864    20752462.119
       240.000         205.000
  23259450.184   -10902887.90049  -8487712.67146  23259449.898    23259458.422
       223.000         172.000
  24262394.498    -7355488.77749  -5709829.50045  24262394.654    24262408.001
       208.000         145.000
  23662904.208   -12752009.23249  -7030123.26645  23662904.322    23662912.118
       218.000         158.000
  21220574.547   -20824857.38449 -16207603.99647  21220573.922    21220581.370
       242.000         207.000
 01  6 24  2 45 30.0000000  0  6G20G22G25G11G13G 1
  20213126.726   -28553191.84949 -22241254.59748  20213126.164    20213132.358
       240.000         217.000
  20746247.486   -23412515.82149 -18218225.51447  20746246.492    20746253.999
       241.000         205.000
  23275234.502   -10819941.08149  -8423078.84746  23275234.660    23275243.012
       224.000         171.000
  24278875.004    -7268883.89349  -5642345.38245  24278875.115    24278887.931
       207.000         145.000
  23648990.453   -12825126.15249  -7087097.39245  23648991.044    23648999.501
       218.000         158.000
  21213702.156   -20860971.88949 -16235745.14647  21213701.630    21213708.910
       242.000         207.000
 01  6 24  2 46  0.0000000  0  6G20G22G25G11G13G 1
  20214400.763   -28546496.70549 -22236037.59948  20214400.162    20214406.390
       240.000         217.000
  20740155.052   -23444531.57449 -18243172.80147  20740154.110    20740161.385
       240.000         205.000
  23291030.230   -10736934.15449  -8358398.19546  23291029.975    23291038.402
       223.000         170.000
  24295349.211    -7182311.85849  -5574886.87245  24295350.299    24295363.211
       207.000         144.000
  23635080.841   -12898221.36849  -7144054.61045  23635080.194    23635089.120
       219.000         159.000
  21206855.340   -20896952.04649 -16263781.60847  21206854.790    21206862.115
       242.000         207.000
 01  6 24  2 46 30.0000000  0  6G20G22G25G11G13G 1
  20215782.851   -28539233.66749 -22230378.08948  20215782.295    20215788.422
       240.000         217.000
  20734179.146   -23475935.00849 -18267642.96047  20734178.437    20734185.508
       241.000         205.000
  23306837.410   -10653867.05649  -8293670.66046  23306838.152    23306845.566
       223.000         170.000
  24311817.027    -7095773.77249  -5507454.80145  24311817.809    24311830.252
       207.000         143.000
  23621175.764   -12971292.69749  -7200993.21845  23621175.550    23621183.857
       219.000         159.000
  21200034.497   -20932795.66149 -16291711.67347  21200034.002    21200041.223
       242.000         208.000
 01  6 24  2 47  0.0000000  0  6G20G22G25G11G13G 1
  20217272.873   -28531403.52449 -22224276.67948  20217272.234    20217278.495
       240.000         216.000
  20728319.743   -23506726.17549 -18291636.02647  20728318.754    20728326.305
       240.000         205.000
  23322655.614   -10570742.11649  -8228898.04746  23322656.011    23322663.694
       223.000         169.000
  24328277.579    -7009273.77549  -5440052.42945  24328278.363    24328292.465
       208.000         142.000
  23607274.947   -13044341.58949  -7257914.34245  23607274.624    23607283.497
       219.000         160.000
  21193239.512   -20968503.55349 -16319535.98347  21193238.996    21193245.912
       242.000         208.000
 01  6 24  2 47 30.0000000  0  6G20G22G25G11G13G 1
  20218870.945   -28523005.56549 -22217732.81248  20218870.367    20218876.552
       240.000         216.000
  20722577.088   -23536903.75449 -18315150.97347  20722576.199    20722583.153
       240.000         205.000
  23338484.552   -10487560.64949  -8164081.40046  23338484.813    23338492.826
       223.000         169.000
  24344730.423    -6922814.30449  -5372681.61845  24344731.183    24344745.002
       210.000         142.000
  23593378.628   -13117366.79649  -7314817.01845  23593378.344    23593387.502
       220.000         160.000
  21186470.487   -21004074.85949 -16347253.85647  21186470.072    21186477.265
       242.000         208.000
 01  6 24  2 48  0.0000000  0  6G20G22G25G11G13G 1
  20220577.266   -28514038.81449 -22210745.73148  20220576.666    20220582.935
       240.000         216.000
  20716951.651   -23566465.38949 -18338185.96847  20716950.743    20716958.020
       240.000         206.000
  23354324.069   -10404323.65949  -8099221.48246  23354324.498    23354332.448
       223.000         169.000
  24361175.211    -6836397.31949  -5305343.92045  24361174.620    24361188.487
       207.000         141.000
  23579486.884   -13190367.99549  -7371700.98345  23579486.141    23579494.439
       220.000         160.000
  21179727.645   -21039508.61549 -16374864.55447  21179727.170    21179734.503
       243.000         208.000
 01  6 24  2 48 30.0000000  0  6G20G22G25G11G13G 1
  20222391.700   -28504503.84349 -22203315.88648  20222391.190    20222397.482
       240.000         216.000
  20711443.661   -23595409.89849 -18360740.08347  20711442.777    20711450.048
       240.000         206.000
  23370173.785   -10321033.35549  -8034320.03446  23370173.685    23370182.547
       224.000         168.000
  24377611.191    -6750026.34649  -5238042.08245  24377612.090    24377625.016
       209.000         141.000
  23565599.636   -13263345.67549  -7428566.61945  23565599.605    23565607.845
       220.000         160.000
  21173010.977   -21074804.93149 -16402368.15747  21173010.620    21173017.750
       242.000         208.000
 01  6 24  2 49  0.0000000  0  6G20G22G25G11G13G 1
  20224314.340   -28494400.34549 -22195443.03448  20224313.819    20224320.062
       240.000         216.000
  20706053.331   -23623735.97049 -18382812.30147  20706052.598    20706059.821
       240.000         206.000
  23386033.309   -10237691.24549  -7969378.20846  23386033.426    23386041.304
       222.000         168.000
  24394037.892    -6663704.24949  -5170778.32745  24394038.379    24394052.289
       210.000         140.000
  23551716.896   -13336299.39649  -7485413.59345  23551717.116    23551725.386
       220.000         160.000
  21166320.511   -21109963.48049 -16429764.41047  21166320.181    21166327.301
       243.000         209.000
 01  6 24  2 49 30.0000000  0  6G20G22G25G11G13G 1
  20226345.415   -28483727.01049 -22187126.15548  20226344.943    20226351.118
       240.000         216.000
  20700781.064   -23651441.78049 -18404401.19947  20700780.328    20700787.514
       241.000         206.000
  23401902.577   -10154297.99549  -7904396.53046  23401902.310    23401910.408
       223.000         167.000
  24410454.980    -6577432.43649  -5103553.76945  24410455.793    24410468.806
       207.000         140.000
  23537838.998   -13409227.98149  -7542240.96745  23537838.224    23537847.115
       219.000         160.000
  21159656.579   -21144982.71049 -16457052.10347  21159656.245    21159663.226
       243.000         209.000
 01  6 24  2 50  0.0000000  0  6G20G22G25G11G13G 1
  20228485.026   -28472483.27549 -22178364.80548  20228484.621    20228490.672
       240.000         216.000
  20695627.100   -23678525.85449 -18425505.62347  20695626.056    20695633.473
       241.000         206.000
  23417781.397   -10070854.50249  -7839375.70546  23417780.698    23417789.320
       222.000         167.000
  24426862.033    -6491213.72549  -5036370.58345  24426863.015    24426875.782
       209.000         138.000
  23523965.961   -13482130.89049  -7599048.32545  23523966.257    23523974.520
       220.000         160.000
  21153019.284   -21179861.85849 -16484230.63547  21153018.660    21153026.091
       243.000         209.000
 01  6 24  2 50 30.0000000  0  6G20G22G25G11G13G 1
  20230732.835   -28460670.99149 -22169160.43848  20230732.315    20230738.557
       240.000         216.000
  20690591.395   -23704988.34849 -18446125.70647  20690590.712    20690597.745
       240.000         206.000
  23433669.096    -9987364.24749  -7774318.43746  23433669.218    23433676.896
       224.000         167.000
  24443258.156    -6405052.50949  -4969232.19745  24443260.763    24443272.121
       212.000         138.000
  23510097.426   -13555010.00449  -7655837.15145  23510097.558    23510105.336
       220.000         160.000
  21146408.420   -21214602.14649 -16511300.97047  21146407.966    21146415.030
       243.000         209.000
 01  6 24  2 51  0.0000000  0  6G20G22G25G11G13G 1
  20233089.136   -28448288.48449 -22159511.73848  20233088.654    20233094.695
       240.000         216.000
  20685674.559   -23730826.45749 -18466259.25447  20685673.756    20685680.960
       240.000         206.000
  23449565.681    -9903827.55249  -7709224.98146  23449566.193    23449573.538
       222.000         167.000
  24459643.063    -6318950.30249  -4902139.77845  24459643.281    24459658.685
       211.000         138.000
  23496233.792   -13627863.57249  -7712606.07045  23496234.585    23496241.621
       219.000         160.000
  21139824.316   -21249201.71749 -16538261.65047  21139823.745    21139830.944
       243.000         209.000
 01  6 24  2 51 30.0000000  0  6G20G22G25G11G13G 1
  20235554.150   -28435334.75749 -22149417.93248  20235553.518    20235559.900
       240.000         216.000
  20680876.848   -23756038.26749 -18485904.77547  20680875.848    20680883.279
       240.000         206.000
  23465470.996    -9820244.85849  -7644095.68546  23465471.382    23465479.247
       221.000         167.000
  24476016.401    -6232908.72049  -4835094.60745  24476015.757    24476030.505
       211.000         137.000
  23482375.190   -13700690.50749  -7769354.23545  23482375.300    23482383.550
       220.000         159.000
  21133267.286   -21283659.16649 -16565111.58847  21133266.774    21133273.870
       244.000         209.000
 01  6 24  2 52  0.0000000  0  6G20G22G25G11G13G 1
  20238127.700   -28421810.66349 -22138879.68448  20238127.176    20238133.446
       240.000         216.000
  20676198.263   -23780624.19049 -18505062.59747  20676197.256    20676204.762
       241.000         206.000
  23481384.619    -9736618.45249  -7578932.33546  23481384.905    23481393.330
       222.000         167.000
  24492377.467    -6146931.55949  -4768099.63245  24492377.980    24492390.463
       210.000         137.000
  23468521.594   -13773491.27549  -7826081.99445  23468521.651    23468529.704
       219.000         158.000
  21126737.142   -21317975.08049 -16591851.23847  21126736.485    21126743.840
       243.000         210.000
 01  6 24  2 52 30.0000000  0  6G20G22G25G11G13G 1
  20240809.894   -28407715.86049 -22127896.73148  20240809.359    20240815.592
       240.000         216.000
  20671639.136   -23804582.33149 -18523731.23747  20671638.223    20671645.439
       240.000         206.000
  23497306.380    -9652949.39049  -7513735.74246  23497306.793    23497314.693
       222.000         168.000
  24508725.892    -6061021.13049  -4701156.64945  24508725.902    24508739.874
       211.000         137.000
  23454672.964   -13846265.61249  -7882789.16645  23454672.618    23454681.061
       219.000         158.000
  21120234.142   -21352148.54249 -16618479.88847  21120233.746    21120240.763
       244.000         210.000
 01  6 24  2 53  0.0000000  0  6G20G22G25G11G13G 1
  20243600.524   -28393050.95749 -22116469.54148  20243600.037    20243606.221
       240.000         216.000
  20667199.632   -23827911.86149 -18541910.04747  20667198.896    20667205.997
       241.000         207.000
  23513235.893    -9569239.69249  -7448507.48346  23513235.576    23513244.096
       221.000         168.000
  24525060.885    -5975180.77649  -4634268.28245  24525061.293    24525074.527
       211.000         137.000
  23440829.297   -13919014.05949  -7939476.17945  23440829.252    23440838.169
       220.000         157.000
  21113758.244   -21386179.58449 -16644997.55747  21113757.870    21113764.809
       244.000         210.000
